GFSNGP_925_thetae_000.txt.gz
Theta_e
321 317 322 323 324 323 323 322 325 326 324 327 331 332 333 337 336 335 333 334 339 341 341 341 342 343 346 348 349 350 348 345 346 346 341 335 335 335 335 335 335 334 333 332
321 318 320 322 322 325 324 324 323 324 324 323 328 330 332 334 336 337 336 334 334 337 338 339 340 341 345 347 348 349 347 345 343 340 338 337 338 334 339 339 338 336 335 333
321 318 318 321 321 321 324 323 324 325 326 323 329 331 332 331 333 336 335 335 333 332 334 335 337 340 343 346 348 349 347 345 343 340 338 337 337 333 339 341 337 335 334 333
322 321 323 321 326 323 326 334 332 331 326 326 328 330 329 328 330 331 332 334 332 331 333 335 336 338 341 344 347 349 347 346 343 341 337 338 335 335 338 335 333 333 333 333
320 320 323 335 334 334 333 335 333 335 333 332 329 330 330 327 328 329 331 333 335 334 334 335 337 339 341 344 346 348 347 345 342 340 338 338 333 333 335 333 333 333 333 333
324 324 333 332 333 334 333 335 331 332 331 330 329 331 331 326 327 327 328 330 332 336 337 340 341 343 344 344 346 346 345 345 343 341 339 334 332 335 334 334 334 333 333 333
334 334 333 334 333 333 335 331 331 330 330 331 331 330 329 329 330 331 334 336 338 340 342 342 342 345 345 344 344 344 344 343 342 342 336 337 336 335 333 333 332 331 329 328
337 337 339 331 334 334 334 329 330 331 330 330 329 329 332 333 333 333 333 335 338 340 342 344 345 345 342 341 341 342 342 341 340 341 339 337 335 333 331 330 330 330 327 327
336 336 331 330 329 328 329 329 329 328 328 333 333 334 335 335 335 335 336 337 342 343 342 342 342 342 340 339 340 340 339 339 338 337 336 335 333 331 330 330 329 327 328 326
336 333 331 327 326 325 326 327 327 327 329 332 334 337 337 337 337 336 336 337 340 340 338 336 337 338 339 338 339 339 337 334 333 329 329 327 327 326 327 327 327 327 328 330
334 330 329 325 326 326 325 324 323 323 325 327 328 329 329 331 338 336 334 336 338 337 336 335 336 338 338 339 339 338 334 333 332 331 332 330 328 328 327 327 330 330 331 330
333 329 328 324 323 324 322 321 321 321 320 320 321 323 325 324 329 335 335 337 336 336 337 336 337 338 337 338 338 337 334 332 329 328 327 327 326 325 329 331 330 330 328 326
325 321 322 321 320 319 318 317 317 318 318 318 318 318 320 322 324 335 337 338 336 335 336 335 334 334 334 334 335 333 332 328 326 323 324 326 325 323 320 322 326 323 320 320
323 323 320 319 319 316 316 316 315 314 315 316 316 316 316 318 320 324 328 333 338 335 333 332 333 334 335 333 330 328 325 323 324 327 326 326 325 324 323 319 315 315 316 316
319 318 319 319 318 317 315 316 316 315 314 314 314 315 316 317 318 321 326 330 335 335 332 331 331 331 328 326 325 325 325 326 325 327 327 326 324 324 323 318 314 314 312 311
318 318 318 317 317 316 315 314 314 316 315 314 315 316 316 317 319 321 324 329 331 333 332 331 329 328 326 327 327 327 332 329 328 327 327 327 325 323 320 316 315 313 313 312
318 319 317 317 317 316 315 314 315 316 317 316 316 318 318 318 319 321 323 327 330 331 332 331 330 329 329 330 331 329 328 327 327 327 326 324 323 321 320 318 315 314 316 315
315 315 315 316 317 316 317 316 315 316 316 317 320 321 320 320 319 320 325 326 328 329 328 328 329 330 329 327 325 325 325 324 325 326 326 324 322 322 321 320 319 317 316 314
317 317 318 318 317 317 317 317 317 317 318 317 319 319 320 322 324 326 325 325 324 325 324 324 326 324 324 325 325 323 323 321 321 321 321 322 320 320 321 320 319 317 315 313
318 318 317 317 316 317 317 317 315 316 317 316 316 315 317 320 322 325 324 322 323 324 323 324 324 325 324 322 322 322 321 321 321 320 320 320 320 320 319 319 317 316 315 313
316 316 315 315 315 315 315 316 316 315 316 317 315 315 316 320 322 322 322 322 324 325 325 325 324 323 321 319 319 319 317 315 315 317 317 317 316 316 316 316 316 315 315 313
313 313 314 314 313 313 316 315 318 317 317 318 318 318 319 318 319 321 322 321 321 323 323 323 322 319 317 315 315 314 312 312 311 311 313 314 314 313 312 311 311 312 313 313
312 313 313 312 313 312 313 315 317 317 317 318 317 316 317 317 318 319 320 321 321 322 322 322 321 319 315 314 312 312 309 308 308 307 307 308 310 310 310 310 310 309 310 310
313 313 313 313 312 311 311 313 316 318 318 318 318 319 317 316 317 318 320 320 321 321 321 321 321 319 317 316 313 310 309 308 307 306 305 307 310 309 310 310 309 309 308 308
312 312 313 312 310 310 311 312 313 315 316 316 317 318 318 317 315 315 317 319 320 321 320 319 319 320 318 317 315 312 308 307 307 305 304 304 304 305 305 305 306 308 307 305
311 310 312 312 311 312 313 313 312 313 314 315 316 316 316 317 318 316 315 315 317 319 319 319 318 317 317 317 315 313 309 307 307 306 306 304 303 303 304 304 304 304 304 304
311 310 309 309 308 309 310 310 312 312 313 314 314 315 316 316 315 315 316 316 316 316 315 315 315 316 316 315 315 314 311 308 308 307 306 305 303 304 303 303 303 302 302 303

GFSNGP_925_thetae_003.txt.gz
Theta_e
331 329 326 324 323 326 329 331 332 330 333 335 341 344 344 344 346 343 344 347 350 351 356 355 354 353 352 352 352 353 354 354 352 349 346 341 339 334 332 324 328 334 329 327
327 328 326 325 324 325 328 327 330 330 334 333 337 339 341 342 346 345 344 344 348 349 350 351 350 350 350 351 352 353 354 353 350 347 343 340 337 335 329 328 331 330 334 330
332 325 324 327 326 326 329 330 330 332 333 336 334 337 341 342 345 347 346 344 345 347 348 347 347 347 347 348 350 351 352 351 348 345 342 339 337 334 332 333 334 332 332 335
336 330 331 325 326 326 327 327 329 330 333 334 337 338 338 336 341 344 345 344 343 340 342 343 342 343 345 347 350 351 351 350 347 344 343 341 339 336 335 332 331 334 336 337
334 332 332 330 333 328 326 328 338 336 338 335 332 336 338 334 334 338 339 342 343 339 340 341 340 342 345 347 349 350 350 350 346 343 343 342 340 338 335 334 335 335 336 334
338 338 336 339 338 336 337 334 337 338 339 338 336 337 341 335 335 337 339 342 342 342 341 343 343 343 346 347 348 350 350 349 346 343 342 341 341 341 338 337 335 335 335 333
343 342 335 339 337 336 338 338 336 336 337 337 340 341 337 339 343 342 341 343 343 344 344 345 347 347 349 349 350 350 349 348 345 344 343 342 341 340 337 336 335 334 334 334
345 346 342 335 338 341 340 336 336 338 338 338 338 339 339 340 342 343 344 345 346 347 349 347 348 349 350 350 349 348 348 344 344 343 342 341 340 337 337 337 337 337 336 336
342 344 335 332 335 335 336 336 336 339 337 338 339 340 341 343 344 345 348 348 346 346 348 347 347 348 347 345 343 344 344 343 343 342 339 338 337 336 336 336 335 335 334 332
341 340 333 332 331 332 334 336 336 338 338 339 339 341 346 346 345 344 345 347 348 349 348 346 344 343 344 342 344 343 342 341 341 342 340 338 337 335 334 334 332 330 330 332
340 336 331 329 329 329 330 330 330 331 334 335 337 336 340 348 348 347 347 345 347 348 348 347 344 344 343 343 343 343 343 343 342 341 338 337 334 332 332 332 329 332 332 332
338 334 334 331 327 325 325 325 326 328 328 328 332 335 335 339 345 347 347 347 347 347 345 343 343 342 342 342 343 343 342 341 339 336 334 332 328 325 327 328 328 331 331 331
329 327 325 322 321 322 323 322 323 323 325 323 323 326 329 332 332 336 337 341 347 346 344 343 342 341 341 340 339 339 337 337 335 335 334 333 329 328 328 321 325 325 324 324
324 323 323 321 321 319 320 320 319 320 320 321 322 321 322 324 325 328 332 335 341 344 343 341 340 340 338 336 335 334 334 331 331 330 330 328 327 328 328 327 326 319 318 319
321 321 322 321 320 318 318 320 321 321 321 322 321 321 322 324 324 325 326 331 338 342 342 340 338 338 335 333 330 331 329 328 329 329 330 329 328 327 326 326 324 320 315 314
320 320 320 321 321 320 320 321 321 321 321 322 322 323 323 324 324 324 325 328 334 337 341 339 337 335 332 330 330 331 331 332 330 329 325 325 326 325 325 324 321 320 319 319
322 322 322 321 321 322 322 321 321 321 321 323 324 323 324 327 328 328 328 331 331 333 336 337 336 333 331 332 332 332 331 328 328 328 328 327 327 326 326 323 322 321 321 319
321 321 321 322 322 321 321 322 322 322 322 322 321 321 323 325 330 330 331 331 333 332 332 333 333 332 331 330 329 327 327 328 329 329 327 327 326 325 324 324 324 322 321 317
321 320 319 319 319 320 320 320 320 321 320 320 320 321 322 326 327 329 331 332 332 333 327 328 328 328 327 328 325 325 326 326 325 325 325 325 324 325 325 325 323 322 321 318
319 318 317 318 318 318 320 319 319 319 319 320 320 322 323 324 325 327 330 329 328 327 327 325 326 327 327 324 324 324 323 323 323 323 323 323 324 323 323 322 322 321 320 318
318 318 318 318 317 317 319 319 320 320 320 321 322 323 324 323 323 326 327 328 327 327 326 325 325 324 323 321 321 321 321 321 321 321 321 322 321 321 321 319 319 319 318 317
318 318 318 317 318 317 317 319 320 321 321 322 321 322 322 323 323 325 325 325 324 325 326 325 322 319 319 318 318 317 316 316 316 316 316 315 315 315 315 315 314 314 313 314
318 318 318 318 318 317 317 318 320 321 321 322 322 322 321 320 320 324 325 322 324 323 324 323 321 318 315 316 315 314 313 312 312 312 311 311 312 312 312 311 310 310 311 311
317 318 318 317 316 317 319 317 317 317 319 321 322 322 321 319 319 318 320 321 320 322 323 322 319 316 315 316 314 313 312 312 311 311 309 307 309 311 311 311 310 310 310 310
317 317 317 318 319 318 318 317 317 318 319 320 320 320 320 320 319 318 317 319 320 321 321 320 320 320 319 318 317 315 314 312 311 311 310 309 307 307 308 310 309 308 308 308
316 315 314 315 314 314 315 315 316 316 316 318 319 318 318 318 318 318 318 317 318 319 320 321 320 319 319 319 318 317 315 314 311 309 310 309 308 307 306 306 306 306 306 305
310 308 311 311 311 311 311 312 313 313 313 314 315 315 316 315 316 315 316 316 317 317 317 318 318 318 318 318 317 316 315 314 312 311 310 310 308 307 305 306 306 306 305 304

GFSNGP_925_thetae_006.txt.gz
Theta_e
330 328 328 328 326 325 326 328 333 333 334 334 335 334 334 334 336 343 350 351 353 354 359 362 357 356 356 355 354 354 355 356 358 358 358 356 354 349 346 330 331 323 325 327
334 331 329 329 328 326 325 326 327 329 331 332 333 333 334 334 335 343 350 351 353 355 357 359 357 357 357 357 356 356 357 357 357 359 358 355 351 346 343 334 330 325 325 328
338 333 332 333 331 329 327 326 327 328 329 330 330 333 335 336 340 343 349 350 352 354 355 357 356 357 357 356 356 356 357 358 358 358 356 353 350 347 342 335 331 333 334 334
339 338 338 330 330 330 328 326 327 329 330 330 332 335 338 340 338 343 348 350 351 351 354 353 352 353 353 354 355 355 357 357 357 356 354 352 349 346 343 337 334 337 338 337
338 338 336 334 334 330 329 328 327 329 331 331 332 337 344 342 342 345 348 350 350 348 350 350 349 350 350 351 353 354 355 355 355 353 352 349 348 347 345 341 338 340 340 339
338 338 340 340 341 340 341 338 329 329 330 331 335 339 333 343 340 341 346 347 348 345 347 347 346 347 349 350 352 354 354 354 354 351 351 349 348 347 344 343 341 340 340 339
337 340 337 342 338 340 345 335 331 332 335 336 339 342 345 342 342 344 347 348 346 345 345 346 345 347 348 349 351 352 353 354 352 351 351 350 348 346 345 343 341 342 340 339
339 343 341 338 340 344 345 344 342 341 341 342 345 346 347 347 348 349 348 345 343 347 349 348 348 350 351 352 353 354 354 353 351 350 349 349 347 344 342 341 342 341 340 340
338 337 340 337 338 339 340 343 343 343 343 344 344 345 346 346 345 345 344 345 344 348 350 351 352 352 354 357 354 354 352 349 349 349 347 345 343 341 341 341 341 340 340 340
342 340 337 336 336 336 338 340 340 340 340 341 341 342 343 344 345 347 348 347 345 346 350 352 352 352 354 350 351 351 350 350 348 346 346 343 343 342 343 342 340 340 339 336
340 339 335 335 335 334 334 336 338 338 339 341 345 346 349 349 348 348 348 346 344 346 350 352 351 351 350 349 348 349 348 348 345 344 343 344 340 338 339 336 335 336 335 332
338 338 338 330 328 328 330 332 333 334 335 335 337 340 344 348 349 349 350 349 349 349 351 351 351 350 350 349 349 348 346 345 344 344 343 343 338 333 332 331 328 329 332 333
337 333 326 324 323 323 325 325 327 328 329 330 329 331 333 336 336 336 341 344 350 349 349 349 349 349 349 348 347 345 344 343 342 340 339 339 338 335 332 325 328 327 328 328
326 324 325 324 324 323 323 323 321 323 323 323 323 323 325 327 327 330 334 337 340 348 347 347 346 347 346 344 345 344 342 339 338 338 337 336 335 334 334 332 330 324 321 321
323 323 322 321 322 323 322 322 322 322 322 322 323 324 324 326 325 325 327 330 334 337 344 346 345 344 342 341 340 338 334 334 335 333 332 331 331 331 331 331 329 328 314 311
322 321 322 323 323 321 322 322 323 324 324 323 325 325 325 326 326 325 326 329 330 333 339 343 344 342 340 336 333 332 332 331 331 331 333 332 333 332 331 330 329 328 324 323
321 320 322 323 323 323 323 322 323 323 324 324 324 324 325 327 328 330 331 331 334 335 337 341 342 339 336 333 333 332 332 332 332 332 331 331 330 329 328 328 327 326 325 324
322 322 322 322 322 322 322 323 323 324 324 323 323 323 325 328 331 331 333 334 335 337 338 339 339 337 336 334 332 332 331 330 329 328 328 328 328 328 328 327 325 325 324 321
320 320 320 320 321 321 321 321 322 322 322 322 322 325 326 328 330 332 332 332 334 335 334 335 333 335 335 333 331 329 329 328 329 329 329 328 328 327 327 326 325 325 324 323
318 318 318 319 319 321 322 322 321 321 322 323 324 325 326 327 329 330 332 332 332 332 332 330 332 331 330 327 327 328 328 328 327 326 325 325 324 325 325 325 325 324 324 323
318 318 318 319 319 320 322 322 322 323 324 324 325 326 326 326 327 328 328 330 330 330 329 329 330 329 328 325 325 325 325 325 324 324 324 323 324 323 323 322 322 322 321 320
319 319 319 319 319 319 321 323 323 324 324 325 324 324 324 324 326 327 327 326 328 327 327 327 326 324 323 321 322 321 320 319 319 319 319 319 319 319 319 318 318 317 318 317
319 320 318 319 320 320 319 320 321 324 324 325 324 323 322 321 321 324 327 325 326 324 325 324 321 319 317 319 318 317 316 316 315 315 314 314 314 315 315 315 315 314 313 313
321 320 321 320 318 319 320 320 319 319 321 322 321 321 318 317 320 320 322 322 321 322 323 321 319 316 316 317 317 316 316 315 314 314 313 310 310 311 312 313 313 312 312 311
321 320 320 320 317 317 317 318 317 316 317 320 319 318 318 318 317 317 319 320 320 322 323 321 319 318 317 318 318 317 317 316 315 314 313 313 312 311 310 311 312 313 312 311
315 316 317 316 316 315 315 315 316 315 315 315 316 316 316 316 316 316 317 316 317 317 317 320 321 320 320 319 318 318 317 316 315 314 313 312 312 311 310 310 309 309 309 308
311 310 312 312 312 312 312 313 314 315 314 314 314 315 315 315 315 314 315 315 316 316 316 316 316 317 317 316 316 316 316 315 315 314 314 313 312 312 311 309 308 308 308 308

GFSNGP_925_thetae_009.txt.gz
Theta_e
332 332 332 330 326 326 326 328 332 332 335 336 340 337 336 336 336 336 337 348 350 352 360 362 358 356 354 351 351 351 354 355 358 362 361 360 359 362 362 360 357 351 345 342
333 330 330 330 330 328 327 326 328 329 331 333 335 338 337 335 336 336 336 339 351 353 355 363 362 361 359 356 356 354 358 358 360 364 363 362 361 362 361 358 355 349 343 339
339 334 334 334 330 330 330 329 328 328 329 330 333 337 338 337 336 337 338 339 349 353 356 360 357 360 361 360 357 358 360 362 362 366 365 365 363 361 359 355 352 345 340 335
336 338 339 334 333 332 331 330 330 329 329 329 335 337 336 335 335 339 341 341 345 350 355 358 356 357 358 359 362 363 364 363 364 365 366 365 363 359 355 352 350 345 339 335
339 340 342 339 339 340 341 335 331 332 330 329 330 331 336 336 335 337 338 339 345 350 353 359 357 359 361 360 361 362 362 363 363 363 364 362 360 357 353 351 350 344 339 337
340 340 341 336 341 340 338 338 333 332 331 329 329 332 336 337 338 342 342 339 349 350 353 357 358 357 359 358 359 360 360 360 361 361 360 359 357 355 352 351 348 345 341 341
337 340 337 341 339 339 339 339 347 345 343 337 330 336 337 339 339 343 343 349 351 352 358 358 356 355 358 356 356 355 356 357 359 358 358 356 354 353 352 350 347 344 342 343
336 336 337 341 340 341 347 345 345 346 344 345 333 333 345 346 345 345 347 351 350 355 355 353 353 355 357 357 355 356 356 357 358 357 355 354 352 352 351 347 346 346 344 345
334 337 346 343 342 342 341 344 344 344 344 343 341 346 348 349 351 352 351 352 350 350 353 350 353 354 358 359 357 357 357 358 356 353 352 352 352 351 347 346 344 344 343 344
343 345 343 342 341 341 342 343 342 343 344 344 346 348 349 350 349 348 347 351 348 350 355 356 354 354 360 359 358 358 356 353 352 351 350 348 348 346 343 343 343 344 344 344
346 344 342 341 340 340 341 341 342 344 347 345 347 348 349 350 349 348 348 349 348 350 353 354 354 356 354 355 356 354 354 353 350 348 347 345 341 341 342 338 340 341 341 341
346 342 342 337 335 336 337 337 338 341 341 345 347 348 349 349 348 347 348 347 350 349 352 353 354 354 353 353 353 352 351 350 348 346 345 343 339 332 333 333 333 333 333 334
341 336 330 328 328 327 329 331 331 332 334 334 334 335 336 339 341 341 346 346 347 348 350 352 353 353 351 351 352 351 347 346 344 344 344 344 341 340 337 329 328 328 328 330
332 331 331 327 326 326 325 323 323 324 325 327 327 327 328 330 330 335 341 343 347 348 349 349 349 350 350 349 349 348 346 343 342 340 339 339 338 337 335 333 331 326 323 326
327 329 328 327 325 323 323 324 323 323 325 326 326 327 328 328 328 328 329 332 337 345 346 346 347 347 346 347 347 346 343 340 339 339 338 336 334 334 333 333 332 329 318 317
325 325 324 323 320 320 323 322 325 325 325 325 326 327 329 329 329 327 327 328 330 336 341 343 345 345 344 343 343 340 336 336 337 335 333 332 332 331 331 331 330 328 326 323
323 324 324 322 322 323 320 320 324 325 325 325 325 326 327 329 330 332 331 330 331 332 335 339 344 343 342 339 336 335 333 333 332 334 333 332 332 331 330 329 328 328 328 325
320 321 323 323 325 321 323 324 324 324 325 324 324 325 327 331 333 333 331 332 332 334 335 341 342 341 340 337 335 333 333 333 331 332 331 330 329 328 328 327 326 326 324 323
321 322 322 321 323 323 323 323 323 323 323 323 325 327 328 329 330 331 331 331 333 334 337 338 339 338 338 337 334 332 331 330 330 329 330 329 329 329 328 327 327 326 323 322
319 320 319 320 321 323 323 323 322 324 324 325 325 326 327 328 328 329 331 333 334 334 335 335 335 336 335 332 330 330 330 329 329 329 329 329 328 326 326 326 326 326 325 325
319 318 319 320 322 323 323 323 323 325 324 325 325 326 326 327 327 329 330 331 332 332 332 332 332 331 330 328 328 329 328 328 327 327 326 326 325 324 325 325 324 324 324 324
319 319 319 319 320 321 322 323 324 325 325 325 324 324 325 325 326 327 328 328 328 328 329 328 328 325 326 324 326 325 324 324 323 323 323 322 322 322 322 322 323 322 322 323
319 318 319 319 320 320 319 319 320 322 323 323 322 322 322 322 323 327 329 325 326 324 325 323 321 321 319 321 322 321 320 319 319 318 318 317 317 317 318 318 318 318 317 317
320 320 320 319 318 318 320 318 318 319 320 321 319 320 319 319 319 320 322 322 321 321 324 319 317 315 315 320 319 319 318 318 317 317 316 314 313 313 313 314 315 316 315 315
319 319 319 319 318 317 317 317 318 317 319 320 320 319 319 318 318 317 317 320 317 319 323 321 316 316 317 317 319 319 318 318 318 317 316 315 315 314 314 313 312 314 314 314
317 317 317 316 316 315 315 316 316 316 316 317 316 316 317 316 317 317 318 317 317 317 316 322 321 320 319 318 318 318 318 318 317 317 316 315 314 314 314 313 312 312 311 312
313 311 314 313 312 312 312 312 313 314 314 314 313 314 315 316 316 315 316 316 316 316 317 317 318 320 318 318 318 317 317 317 317 316 316 315 315 315 314 313 313 311 311 310

GFSNGP_925_thetae_012.txt.gz
Theta_e
330 329 331 332 330 330 330 331 332 332 333 338 340 344 341 343 344 343 347 351 352 354 358 355 354 353 353 353 354 355 360 362 364 365 364 364 364 365 365 363 363 360 357 353
332 331 331 332 332 330 329 330 331 331 331 333 335 338 341 341 340 344 344 345 354 356 364 365 358 355 353 352 352 353 355 359 361 363 365 364 364 363 365 364 365 362 359 353
335 331 332 334 333 333 331 328 329 330 332 333 334 337 342 346 343 345 344 344 354 357 358 362 360 357 354 352 353 352 355 357 358 361 364 365 364 364 364 365 364 362 360 353
335 335 338 333 332 331 331 331 331 332 333 333 334 335 336 336 341 342 343 343 344 348 357 357 359 358 357 355 354 354 359 359 360 363 366 366 365 365 365 365 364 361 358 352
338 336 336 334 335 336 334 333 334 334 335 332 333 333 335 334 335 337 338 347 344 338 354 356 358 357 361 359 357 362 360 368 363 371 370 369 368 367 366 364 360 356 353 347
337 339 342 340 336 340 338 341 340 342 339 336 336 334 333 336 335 335 335 338 344 339 355 361 360 359 361 364 362 360 365 365 368 369 371 370 368 366 361 357 354 353 349 344
337 335 335 339 339 337 340 341 346 345 345 344 343 346 348 342 351 343 337 340 345 356 361 363 361 362 364 364 366 364 366 366 367 367 368 367 365 360 356 353 353 350 346 343
341 343 346 340 340 342 347 344 343 342 342 343 347 345 345 347 348 351 345 346 359 364 367 365 362 364 367 367 366 365 365 366 366 365 363 361 357 354 354 352 350 347 345 343
333 335 342 346 347 344 343 343 344 343 341 341 342 344 343 350 346 348 347 360 356 365 366 363 364 364 366 364 361 362 362 364 363 361 359 357 354 353 352 350 348 346 347 346
333 338 344 342 340 341 342 344 344 351 353 347 343 344 347 351 353 358 358 360 359 360 364 364 362 362 364 363 362 363 363 361 358 354 354 353 353 352 349 348 346 346 346 345
337 347 346 345 345 343 343 347 349 348 348 351 352 354 354 358 359 359 358 359 358 360 363 364 365 363 362 363 362 358 356 354 352 350 350 349 346 347 345 343 344 345 343 342
352 339 348 342 341 340 341 342 342 342 341 341 344 344 345 352 354 356 357 356 357 358 359 359 358 359 360 359 356 355 354 352 349 348 346 341 338 335 338 338 336 336 338 340
333 330 331 332 330 334 335 334 335 335 336 337 339 336 338 342 343 346 348 352 355 357 357 357 356 355 355 356 356 354 351 350 349 347 346 343 339 336 331 328 329 330 330 332
330 328 328 327 329 327 327 327 327 328 328 329 331 331 332 336 336 343 349 348 351 353 355 355 353 353 353 351 353 354 352 349 347 347 346 346 345 341 340 333 330 326 327 328
330 327 327 326 325 325 325 327 327 327 327 328 329 330 330 331 332 334 333 344 347 348 349 352 352 352 351 352 352 347 345 344 343 342 344 344 341 340 337 335 333 325 321 323
326 326 324 324 322 323 323 325 326 324 325 325 328 330 331 331 331 330 330 333 342 348 349 348 348 349 347 347 347 346 344 341 340 339 337 336 336 335 334 335 329 324 324 321
324 323 321 320 322 324 322 322 321 325 320 323 328 326 330 332 333 334 333 332 333 335 339 344 345 344 344 344 343 340 337 337 336 337 335 334 333 332 332 332 332 330 327 322
322 322 321 320 319 319 319 321 323 325 324 321 324 328 330 333 334 334 335 333 333 339 341 343 343 342 341 339 338 336 333 334 334 334 334 333 333 332 330 329 331 331 330 325
323 323 324 324 322 320 320 322 324 325 324 323 325 329 329 330 330 333 331 334 334 336 338 340 339 339 339 338 336 336 333 331 330 332 331 330 330 330 328 328 327 327 326 321
320 321 322 323 322 324 324 323 323 323 325 326 327 328 330 328 331 331 333 335 335 335 337 337 337 337 338 338 334 332 331 330 330 331 330 330 330 329 328 327 327 327 325 323
320 320 322 325 324 323 324 324 325 326 326 326 327 328 328 327 327 329 331 335 332 333 333 333 332 333 333 330 328 329 329 330 330 330 328 327 327 327 327 327 326 325 325 326
320 320 320 321 320 323 323 324 324 324 324 325 324 323 325 327 328 328 328 328 328 328 326 326 324 325 327 327 327 327 326 326 325 324 324 325 324 323 324 324 325 324 323 323
321 321 321 323 322 321 319 320 320 322 324 323 323 323 322 325 325 326 331 324 324 324 325 322 321 321 321 322 323 323 322 322 321 320 320 319 319 319 319 319 319 320 322 322
321 321 321 319 319 320 325 320 319 321 322 321 320 320 320 319 322 323 322 321 321 324 323 319 315 315 316 319 321 320 320 320 319 318 318 316 316 315 314 314 315 316 317 317
319 320 319 319 319 318 318 317 316 318 318 319 319 319 319 318 319 318 318 318 316 322 323 322 317 316 317 317 318 319 319 318 318 318 318 317 316 316 315 315 314 313 314 315
317 317 316 316 315 313 313 314 315 315 315 317 316 315 316 317 317 317 318 317 318 317 318 322 320 318 320 319 318 318 319 319 319 319 318 317 316 315 314 315 314 313 313 312
313 311 312 311 310 310 310 311 311 311 312 312 313 312 313 315 316 316 315 316 316 317 317 319 320 321 317 317 317 318 319 319 318 318 317 316 316 316 316 315 315 314 313 312

GFSNGP_925_thetae_015.txt.gz
Theta_e
326 327 327 326 328 327 325 323 324 323 323 323 327 339 337 336 338 336 338 340 343 346 346 349 352 353 354 356 358 364 366 366 365 365 364 365 364 364 361 360 362 359 356 351
329 329 326 327 328 330 326 326 326 325 326 326 328 333 342 339 337 333 334 346 347 347 346 347 348 351 353 355 357 360 364 364 364 364 364 364 364 364 365 363 361 362 358 354
328 330 330 330 327 328 330 329 328 327 326 325 326 327 332 338 337 334 335 342 345 345 348 347 348 350 352 355 356 358 360 363 363 362 363 363 364 363 364 365 363 364 361 358
327 331 334 331 330 331 331 332 329 328 327 329 328 329 332 332 331 334 336 339 345 347 351 351 351 350 352 353 355 356 356 360 361 362 362 364 364 364 363 365 364 364 363 361
329 329 329 331 330 332 331 331 329 338 336 331 329 328 328 330 330 328 330 332 332 344 349 357 353 351 351 351 353 353 354 356 359 360 362 363 364 364 364 364 365 364 363 360
327 329 330 330 333 339 338 340 346 344 344 343 339 333 327 339 337 330 331 330 330 334 344 352 357 354 352 351 353 351 352 355 357 358 361 364 364 364 365 365 364 362 360 357
330 326 328 332 336 335 338 346 346 343 343 343 343 342 341 341 340 344 341 330 332 339 349 352 357 357 354 353 352 355 352 361 360 362 366 366 366 367 366 362 361 358 355 350
335 335 337 342 340 340 343 346 342 341 341 342 342 340 342 340 340 342 342 349 337 351 351 356 358 360 360 358 356 356 364 366 370 370 369 368 368 363 360 357 353 351 349 346
332 341 345 337 334 332 337 342 345 350 355 348 344 345 340 345 343 343 353 361 362 363 364 366 362 363 365 368 364 365 368 368 367 367 365 365 358 355 353 353 351 348 346 344
341 332 338 340 334 340 350 348 349 349 350 349 349 351 354 354 354 357 357 360 361 362 362 363 366 366 366 365 365 365 364 361 361 359 357 355 353 352 351 350 348 347 345 344
340 335 338 345 346 345 347 345 342 342 343 343 343 343 343 345 351 354 354 355 360 362 363 363 364 364 363 363 362 360 357 355 354 354 352 351 350 349 349 348 345 344 345 345
341 331 334 331 333 341 339 339 338 336 335 335 336 336 335 336 337 340 340 356 360 360 361 362 362 361 359 359 358 354 351 350 349 345 343 344 342 340 342 343 342 344 345 342
334 330 328 327 326 329 330 331 332 333 332 333 333 334 333 333 331 332 334 347 356 356 356 357 358 357 356 355 355 352 350 348 346 343 341 339 338 337 330 330 333 335 341 340
329 330 330 326 326 325 326 326 325 326 328 331 330 330 331 333 332 332 331 333 352 353 352 354 355 356 357 353 352 350 349 348 346 343 342 341 341 338 335 330 329 328 329 331
328 325 325 324 324 325 324 324 323 322 326 327 329 329 328 329 330 331 332 343 351 352 352 352 352 352 353 353 353 350 349 348 347 345 343 341 340 336 333 332 328 326 326 327
324 324 323 323 323 324 324 325 324 321 320 320 323 332 333 333 333 334 333 339 342 343 350 352 351 352 352 351 347 348 348 347 346 346 346 344 342 340 337 333 328 325 323 325
323 323 322 322 324 322 322 325 326 323 319 317 323 328 331 333 333 335 334 340 341 343 344 346 349 347 347 346 345 344 342 340 339 338 343 342 338 336 335 333 328 326 324 325
321 320 320 320 321 321 322 324 325 326 320 317 324 327 328 330 328 332 334 336 335 336 338 340 340 341 342 340 340 339 337 336 335 336 334 334 333 332 333 332 328 326 325 323
322 323 321 318 318 319 320 324 324 325 322 319 326 327 327 329 332 330 327 334 331 334 337 336 337 337 337 337 335 332 334 335 333 332 333 331 330 328 329 331 330 328 328 325
321 322 323 324 324 324 325 324 324 326 325 325 327 327 327 329 329 330 331 332 332 332 329 330 336 336 337 336 332 331 331 331 331 330 330 330 328 327 327 327 327 327 327 326
324 323 323 324 323 323 324 325 325 325 326 324 325 326 327 328 328 328 329 329 328 327 329 331 331 332 332 330 328 329 329 330 329 329 328 327 327 327 327 327 327 326 325 323
321 320 321 323 323 323 323 324 324 324 325 324 324 325 325 327 327 326 327 325 325 325 323 321 321 321 324 325 324 327 327 327 327 327 326 325 324 324 322 327 326 327 326 324
319 323 323 322 322 322 322 321 321 323 322 322 321 322 325 325 325 324 324 323 324 323 322 320 317 318 320 322 321 325 324 322 321 321 320 319 318 318 317 317 318 320 322 322
319 319 321 316 319 321 319 318 319 322 322 321 320 320 319 322 323 321 320 320 321 324 322 319 316 316 316 318 318 319 321 321 319 319 318 317 317 316 315 314 314 315 316 317
320 316 314 313 312 313 312 314 314 313 317 316 315 314 316 317 317 318 320 318 317 322 323 321 319 316 316 318 318 317 318 319 318 318 317 317 316 316 315 315 314 313 313 314
313 313 312 310 309 310 311 310 311 312 312 311 311 312 315 315 314 313 315 316 316 316 319 322 320 318 317 317 318 318 319 318 318 318 318 317 317 316 315 314 314 314 313 313
310 310 309 308 308 308 308 308 308 311 309 310 311 314 312 310 310 310 310 311 313 314 316 316 315 315 316 315 315 315 316 317 318 317 316 317 317 317 316 315 315 314 313 312

GFSNGP_925_thetae_018.txt.gz
Theta_e
319 323 323 324 324 324 322 323 322 323 318 318 318 319 323 326 335 336 335 335 341 340 343 346 349 350 352 355 358 360 361 362 361 361 362 361 361 359 357 356 356 356 354 353
324 324 324 325 325 325 325 324 322 320 320 318 319 319 325 331 332 334 334 333 336 342 345 345 349 350 351 354 359 361 362 362 363 362 362 362 362 362 359 358 358 358 357 354
322 323 324 325 326 325 324 324 323 321 320 320 322 323 324 326 332 334 330 333 339 343 344 346 349 350 351 354 358 362 362 363 363 363 362 362 362 362 362 360 358 360 361 358
321 323 328 326 326 325 323 325 325 322 322 322 323 323 322 323 330 332 330 331 339 342 343 346 349 351 351 352 356 361 362 363 364 363 362 362 362 362 362 363 361 359 359 360
323 325 324 329 328 326 325 326 327 325 325 324 324 324 326 327 324 323 327 331 331 341 343 345 347 350 351 352 354 356 360 361 363 362 361 362 361 362 362 363 363 362 362 360
322 325 328 325 329 334 330 335 342 337 337 335 326 325 323 334 335 328 322 324 327 339 348 345 345 347 349 351 353 355 356 359 361 361 360 361 361 361 362 362 363 363 362 362
323 327 322 327 332 332 335 333 343 339 338 336 337 329 333 337 335 337 326 325 327 327 340 351 347 347 348 350 352 353 355 356 359 360 360 360 361 361 362 362 362 361 360 360
334 329 333 335 335 329 331 342 339 338 337 337 336 337 336 336 334 339 337 338 329 323 326 339 351 348 347 348 350 352 353 353 354 358 358 360 362 362 362 361 359 356 355 353
336 335 334 336 333 339 345 349 349 348 347 347 350 351 352 350 350 342 349 353 355 328 330 336 347 351 348 348 349 350 350 354 355 356 359 362 361 360 357 357 352 349 347 347
332 335 335 333 340 344 342 342 340 340 341 342 344 345 344 344 343 346 346 345 354 357 357 357 354 353 351 351 352 355 357 363 364 362 361 360 358 356 354 350 348 346 346 345
337 333 333 331 333 338 339 337 336 336 336 336 337 337 337 335 336 336 333 328 330 342 355 358 362 362 362 358 362 363 362 361 359 355 353 348 348 349 348 350 350 347 346 345
338 331 329 330 330 335 334 334 332 334 335 334 333 332 331 331 330 331 332 331 330 325 326 325 327 359 362 361 359 358 355 352 345 339 335 334 340 342 348 348 346 344 343 343
331 330 327 327 325 325 325 327 330 329 329 331 330 331 331 330 329 332 335 330 331 332 331 332 330 330 356 355 356 355 351 344 340 339 339 337 337 334 325 338 343 344 344 343
329 329 328 327 326 324 324 324 323 324 325 327 327 327 328 329 331 334 339 343 344 332 329 334 331 323 351 352 350 348 345 343 342 340 339 338 335 333 331 329 330 333 341 339
325 325 325 325 325 325 324 322 322 322 322 327 327 329 327 329 331 335 340 342 344 344 341 338 349 349 349 349 347 346 344 343 341 340 339 337 336 333 330 330 330 332 331 331
323 323 323 323 322 324 325 323 321 319 317 323 326 327 328 331 332 337 338 341 341 340 342 343 344 344 348 348 348 347 346 344 342 340 339 337 335 333 332 331 328 326 326 328
323 323 321 322 322 323 325 326 324 319 316 323 324 326 323 329 332 332 332 335 336 336 337 338 336 338 340 342 342 343 346 345 344 342 341 340 338 335 332 330 328 328 326 326
320 320 320 320 321 323 324 324 325 325 320 321 323 325 326 325 324 325 328 326 331 334 336 337 336 332 335 336 334 335 337 338 338 344 342 341 340 339 336 331 329 325 323 324
321 320 319 320 320 319 320 323 323 324 324 324 326 324 327 328 329 326 326 329 329 328 327 331 335 334 333 332 334 333 335 333 334 335 337 338 337 338 336 332 328 327 325 324
323 322 323 322 322 323 323 323 325 325 325 326 325 327 327 328 328 328 328 326 329 331 327 324 322 327 328 327 329 330 331 331 330 330 330 330 329 329 331 330 328 327 326 325
322 321 320 321 322 322 323 323 323 323 323 324 325 324 324 326 327 327 325 324 323 321 321 323 325 322 325 321 323 325 329 329 329 329 327 327 327 328 330 330 330 329 327 326
319 320 320 321 321 321 321 322 321 321 320 320 323 324 325 324 324 323 324 324 322 322 317 318 319 322 323 320 322 328 329 328 328 327 326 325 325 326 326 326 327 327 326 325
312 312 313 312 313 314 313 316 320 319 316 316 316 320 323 323 320 318 319 322 322 321 317 315 315 317 318 317 322 327 326 327 326 325 324 323 322 321 323 326 326 326 325 325
309 308 308 309 309 310 311 311 311 312 312 312 313 314 316 316 317 320 319 319 321 322 320 316 317 318 318 318 317 318 318 320 320 319 318 317 316 315 315 315 316 317 319 320
308 307 306 306 307 306 307 309 309 309 310 312 313 312 311 310 310 311 314 317 318 320 320 317 317 317 318 318 318 318 317 317 316 317 317 315 315 315 315 313 313 313 314 315
306 305 305 305 305 306 307 307 307 307 309 310 310 309 308 307 306 306 309 314 315 315 316 316 316 315 316 316 317 317 317 317 316 316 316 316 315 314 314 314 313 311 311 311
305 304 304 304 305 306 307 306 306 305 306 306 305 305 306 305 305 305 305 306 307 308 310 312 313 312 312 312 313 312 313 315 315 314 315 315 314 313 312 311 311 310 309 310

GFSNGP_925_thetae_021.txt.gz
Theta_e
317 318 319 319 319 322 320 322 322 323 317 318 318 318 319 321 328 333 338 339 335 338 336 338 342 346 348 351 354 354 355 356 356 356 356 355 355 354 353 353 354 353 354 354
318 319 321 322 320 321 322 322 320 320 318 316 318 317 318 318 320 331 333 339 337 338 338 339 341 345 347 351 353 355 355 356 356 357 357 357 357 356 355 354 354 354 353 353
319 318 319 322 322 322 322 321 321 322 320 317 318 317 317 318 321 326 331 332 330 336 337 338 341 345 346 350 352 356 357 357 357 357 358 358 358 358 357 355 355 354 354 353
317 317 325 322 322 323 322 322 320 320 320 319 320 320 319 319 322 326 328 328 328 331 332 337 341 345 346 349 352 355 357 358 358 358 358 359 359 359 358 357 356 355 355 354
319 320 322 323 325 322 321 322 322 321 320 320 319 321 320 320 319 321 324 327 327 332 335 338 341 345 347 349 351 356 357 358 359 360 359 359 359 359 360 359 356 356 356 356
317 322 325 323 336 336 322 325 332 323 323 323 320 321 323 320 323 322 321 322 327 333 338 339 342 345 348 348 351 356 357 358 359 360 360 360 360 359 360 360 359 357 357 357
319 321 321 333 338 337 329 326 338 329 326 324 324 322 323 326 333 331 328 322 323 330 339 340 343 347 348 348 350 353 356 358 359 361 361 360 360 360 360 360 360 359 359 358
320 325 326 336 340 344 339 340 338 336 335 334 337 343 341 344 338 343 350 352 349 324 322 338 342 345 347 348 350 351 353 356 359 360 361 360 360 360 360 360 360 360 356 357
327 326 336 334 335 338 340 340 341 344 345 347 350 349 346 344 344 336 337 345 352 352 344 339 332 344 343 347 349 350 352 354 355 358 359 359 359 360 360 360 360 353 352 351
332 334 337 336 334 336 336 337 337 338 340 341 341 338 335 336 336 332 329 329 337 341 344 337 341 349 347 345 345 348 350 352 353 357 358 358 359 360 360 360 356 352 351 347
333 333 337 336 331 331 332 332 334 333 333 333 332 332 330 331 331 330 330 328 328 336 336 333 335 337 340 351 350 346 348 350 351 354 357 359 357 359 359 355 353 350 347 346
335 331 332 331 328 326 330 330 329 331 332 331 331 331 331 331 330 331 331 330 330 330 331 333 333 335 340 346 357 351 349 354 355 356 343 338 339 338 345 347 348 348 348 346
331 327 326 326 325 326 327 327 328 329 328 329 328 329 329 330 330 332 340 339 337 332 333 335 335 333 334 335 354 359 358 351 345 341 340 343 343 341 337 337 340 339 332 344
326 326 327 327 326 323 324 326 326 328 328 329 329 328 328 331 335 336 339 340 340 338 336 341 339 342 342 338 342 343 341 342 342 342 341 340 337 334 332 331 332 332 342 342
325 325 325 324 325 325 322 322 323 326 326 326 327 328 330 332 335 336 336 337 338 340 339 339 338 339 336 335 336 341 342 341 337 337 338 335 334 334 334 334 332 331 338 340
324 323 323 324 324 324 322 320 321 322 325 324 327 327 328 327 326 327 331 334 335 336 335 334 335 338 341 332 331 326 326 338 338 336 334 334 330 331 332 331 329 330 330 334
324 324 324 324 323 323 324 323 322 320 323 324 325 324 322 322 322 324 325 327 330 332 333 333 332 331 340 341 337 330 333 338 337 336 334 332 331 331 329 328 326 327 330 335
320 320 320 321 322 322 323 323 322 323 323 324 326 328 327 323 320 322 327 327 326 324 326 328 329 330 333 341 342 341 341 341 340 339 337 335 333 331 329 328 328 327 326 327
320 320 321 323 322 323 323 324 324 324 324 325 325 324 325 327 327 326 326 327 328 328 326 324 325 325 328 333 336 335 337 342 341 340 340 338 336 334 332 329 326 324 325 324
323 323 323 320 321 323 323 323 322 322 323 325 326 326 326 326 325 323 323 320 319 319 324 323 323 324 323 323 329 331 333 334 335 338 338 337 336 336 334 330 328 325 324 324
321 321 321 321 320 320 321 321 320 319 321 324 325 324 324 323 323 323 321 318 316 315 317 319 319 318 320 323 327 327 330 329 329 331 332 332 331 330 330 329 328 328 327 324
310 311 311 312 313 314 315 314 313 313 315 318 321 320 319 318 318 320 320 318 315 315 317 317 318 319 321 325 326 329 329 329 328 327 327 328 328 327 328 328 328 328 329 327
307 307 307 308 309 309 309 309 311 312 312 312 312 312 314 313 313 314 315 317 318 317 318 318 318 317 319 321 322 325 326 326 326 326 325 325 325 326 327 327 327 327 326 326
305 305 306 306 307 306 307 307 309 310 310 309 308 307 306 308 309 311 314 316 316 316 316 318 318 318 318 317 317 316 316 317 318 320 323 322 319 321 325 326 325 326 326 325
303 303 303 304 304 303 305 308 308 308 307 306 305 305 305 305 306 308 310 312 313 313 313 315 315 316 316 316 316 316 315 315 315 315 313 312 312 311 311 312 314 316 317 317
302 302 302 303 303 304 305 306 305 305 304 304 304 304 304 304 304 304 304 304 303 303 303 305 309 310 311 311 313 314 314 315 316 313 313 312 311 310 311 310 310 310 309 310
299 299 300 300 301 303 303 303 302 302 302 302 301 301 301 301 301 302 301 301 301 301 301 300 301 303 306 308 309 309 311 313 313 314 313 313 309 308 306 306 307 307 307 307

GFSNGP_925_thetae_024.txt.gz
Theta_e
316 317 318 318 319 318 317 320 321 322 322 321 319 319 320 319 326 329 333 336 335 336 336 336 339 341 343 345 347 349 349 349 351 351 352 352 352 352 351 351 351 351 350 351
317 318 318 318 319 320 320 318 319 320 319 316 318 317 318 319 320 323 329 333 336 336 336 337 339 342 343 345 348 349 350 350 351 352 351 351 351 352 352 352 352 352 351 350
318 317 318 320 319 319 319 318 319 320 320 319 317 317 318 319 318 319 321 324 333 336 336 336 338 341 343 345 348 350 351 351 352 352 353 353 352 352 352 352 352 353 352 351
317 316 321 318 317 319 320 320 319 320 319 320 321 321 319 318 320 319 320 325 329 333 335 336 337 339 341 344 348 351 351 352 353 353 354 354 354 354 353 352 352 352 352 352
316 318 317 317 329 338 338 330 320 320 320 319 320 320 320 318 317 319 320 322 325 328 331 335 336 337 341 344 349 351 353 353 353 354 355 355 355 355 355 354 353 352 352 351
314 320 322 320 336 335 337 335 323 321 321 321 318 319 321 321 319 319 319 320 323 325 327 329 333 338 342 344 348 350 353 354 354 355 355 355 356 356 356 356 355 354 353 353
314 319 318 318 336 337 330 335 341 342 337 321 320 323 325 326 330 334 330 328 322 328 331 334 335 339 343 344 347 349 351 354 355 356 356 356 356 357 357 357 356 355 354 353
314 319 320 332 338 348 339 339 339 341 339 320 330 343 346 345 345 348 350 352 347 331 329 330 339 341 344 345 346 348 351 354 355 356 357 357 357 357 357 358 358 357 355 354
314 316 319 333 336 334 336 336 337 337 340 345 346 344 341 338 334 333 340 344 349 345 340 342 345 343 340 343 345 347 350 353 356 357 358 358 358 358 358 358 358 358 356 355
319 322 322 334 333 332 332 333 335 335 335 337 337 335 333 332 331 330 329 329 340 340 336 333 340 345 346 351 350 346 347 350 353 357 358 359 359 359 359 359 358 357 357 356
319 319 331 333 328 328 330 331 332 332 332 332 334 334 334 335 335 335 335 332 329 331 333 332 334 334 334 339 353 356 347 346 350 354 357 359 358 357 359 359 358 359 355 353
323 320 329 330 326 327 329 329 331 332 333 331 332 333 334 333 335 338 336 334 334 335 335 334 334 336 338 337 334 352 356 344 348 352 355 348 340 340 356 356 358 351 344 340
322 322 325 326 326 325 328 329 330 331 331 332 331 333 335 334 335 334 336 337 335 332 338 336 337 337 334 336 336 344 356 350 348 351 344 339 343 342 334 339 342 338 331 330
318 325 327 326 327 325 324 326 328 329 330 331 332 334 335 336 335 336 336 337 337 337 337 338 338 338 338 339 338 339 353 351 347 345 344 347 343 342 338 333 331 329 332 332
325 326 326 325 323 323 322 323 325 326 327 329 328 329 331 333 333 333 335 336 334 333 332 332 333 334 338 337 334 336 337 342 343 345 345 337 333 333 333 332 331 328 324 329
324 325 325 324 324 324 324 323 324 325 325 324 323 323 324 327 327 327 329 331 331 331 330 329 329 332 337 332 333 337 336 335 335 335 335 335 334 333 333 333 328 326 328 319
325 325 324 324 324 324 323 323 323 323 325 327 326 323 322 323 325 325 325 324 324 324 324 324 326 334 337 333 331 329 332 335 336 335 332 332 333 333 333 330 329 329 332 324
322 322 322 322 323 323 323 323 323 325 325 325 326 326 325 325 324 325 325 326 325 324 322 323 324 330 334 337 334 333 332 336 335 333 332 331 331 331 332 331 330 329 325 324
323 323 322 323 324 324 324 324 323 324 324 324 325 324 323 322 320 318 316 317 317 319 319 321 323 324 327 331 335 337 337 337 335 334 333 331 329 328 329 328 326 325 327 330
319 319 320 321 320 320 321 321 323 324 324 324 323 323 322 322 321 318 315 315 314 314 317 318 320 322 325 324 331 333 335 336 335 334 334 333 332 330 330 329 327 325 325 325
313 313 313 313 312 313 313 315 320 319 319 319 318 318 317 318 317 316 315 316 314 316 316 317 320 324 324 326 326 329 330 332 333 334 335 334 332 331 331 329 327 328 326 325
309 309 309 311 310 310 311 311 310 309 309 310 310 310 311 311 314 316 313 313 314 317 315 315 316 318 323 326 326 327 327 327 327 328 328 329 332 328 328 328 326 325 323 323
306 306 307 307 308 309 309 308 307 306 305 305 306 306 309 310 311 313 313 311 312 313 314 313 315 316 316 317 317 317 317 318 322 325 326 325 325 326 327 326 326 327 325 324
303 304 304 306 306 306 307 306 305 305 304 304 304 305 305 307 305 304 303 305 307 308 308 309 313 315 315 314 314 313 313 313 312 311 310 311 312 316 320 322 323 324 324 323
301 302 302 303 303 304 304 304 304 303 303 303 302 302 302 302 302 302 301 302 302 303 303 307 308 310 312 312 312 312 312 312 311 312 311 309 308 308 308 307 308 308 311 314
298 299 300 300 301 302 302 302 301 301 301 301 300 300 300 299 299 299 299 299 299 299 299 301 305 306 307 308 309 310 310 310 311 310 310 310 308 306 307 306 305 306 305 306
296 296 297 299 300 300 299 298 298 297 298 298 298 297 297 297 296 296 297 297 297 298 298 298 299 301 304 305 305 306 306 308 310 311 310 309 309 307 307 307 305 304 304 304

GFSNGP_925_thetae_027.txt.gz
Theta_e
319 318 319 321 322 322 323 326 330 327 329 327 327 329 330 330 332 332 334 337 340 344 349 351 347 347 346 347 349 349 351 352 354 354 354 354 353 353 353 353 352 352 352 352
317 316 319 320 321 321 322 323 323 324 325 326 325 329 331 331 332 335 332 335 340 346 346 348 349 347 346 347 348 350 351 351 352 354 355 355 354 354 353 354 353 354 354 353
316 317 316 321 321 322 322 322 323 325 324 324 325 326 328 331 333 335 334 335 337 344 346 347 345 346 346 347 347 350 351 352 352 354 355 355 355 355 354 355 354 354 354 354
313 314 319 320 321 321 323 324 323 323 324 325 327 329 331 331 332 334 334 334 337 333 339 344 342 342 345 346 348 350 351 352 353 353 355 355 355 355 355 355 355 355 354 354
312 315 317 317 319 332 336 328 332 330 325 325 325 327 331 329 329 332 334 334 334 331 333 339 342 343 345 348 350 351 352 353 353 353 355 355 355 355 355 356 356 356 355 355
312 312 316 320 319 322 336 330 342 343 341 331 325 328 329 333 329 328 328 330 332 330 333 336 342 342 345 348 350 353 353 353 353 354 355 356 356 356 356 355 356 356 356 355
312 313 313 316 321 339 336 332 343 344 344 346 346 330 335 333 331 333 334 331 328 329 333 338 338 339 347 347 351 351 352 354 355 356 356 356 357 357 357 357 357 356 356 355
313 312 312 315 323 323 334 341 342 344 343 343 346 345 332 342 352 357 357 352 330 334 340 345 345 343 348 352 350 351 352 354 357 357 356 356 357 356 358 358 358 358 357 356
315 313 315 318 324 333 339 342 342 342 341 339 344 347 342 351 354 356 357 354 349 348 349 348 349 349 351 351 350 352 353 355 357 358 358 358 359 359 359 358 358 358 357 355
313 312 315 315 319 320 334 339 339 338 336 338 347 346 345 343 343 347 350 351 346 345 347 348 349 351 352 354 354 352 355 356 357 359 359 360 359 359 358 358 355 352 357 356
315 315 316 318 319 319 325 336 336 336 337 339 341 341 341 342 342 340 340 340 342 344 344 343 343 342 341 341 353 359 354 353 356 357 358 360 360 360 359 357 358 359 359 357
314 314 317 322 318 323 331 336 336 336 339 339 339 336 335 340 342 341 341 341 341 341 340 340 341 341 340 340 339 346 351 353 352 353 355 358 361 354 359 359 358 357 359 358
313 313 316 320 322 328 332 334 334 336 335 338 336 337 336 337 336 336 339 339 340 343 343 343 343 343 343 343 342 343 344 347 350 350 352 359 347 352 345 345 355 355 356 356
314 316 317 320 324 328 329 332 330 334 335 336 336 336 336 336 335 336 338 339 339 338 338 340 341 341 338 336 339 340 343 340 341 348 353 348 347 345 338 339 335 327 335 342
312 314 320 323 327 326 327 330 333 333 332 332 333 335 334 335 334 335 335 335 334 334 336 339 340 338 336 336 340 340 340 337 338 337 337 339 343 342 341 334 332 330 326 331
314 316 319 325 326 327 329 330 331 331 331 328 330 330 331 331 329 328 327 328 329 331 331 335 337 338 337 336 336 337 337 335 335 334 330 328 331 332 334 334 331 326 327 324
324 323 325 326 327 328 329 330 330 330 329 330 331 329 329 329 327 329 328 327 327 327 327 329 332 335 339 337 336 336 336 338 336 337 336 334 329 332 332 331 331 332 328 320
323 324 324 326 327 327 326 326 328 330 330 328 326 324 322 321 322 321 323 323 323 323 322 324 324 332 335 339 339 339 338 338 338 334 334 334 333 332 332 331 331 329 324 325
314 318 321 323 324 325 325 326 327 326 325 324 323 323 320 319 319 320 320 320 320 322 320 322 323 327 331 331 336 338 338 337 336 334 333 332 332 331 330 329 326 324 324 326
315 313 314 316 315 317 320 319 319 319 321 321 320 320 320 318 319 320 319 318 317 318 320 321 325 326 328 329 331 336 337 338 336 335 334 334 332 330 328 327 327 326 326 328
312 312 312 311 311 310 310 311 311 312 312 313 317 318 318 317 315 315 315 316 313 315 317 317 318 322 322 325 328 329 330 328 331 335 336 334 333 330 328 327 326 325 324 324
310 310 311 310 308 307 307 308 309 309 309 312 314 314 315 316 316 313 309 310 308 311 313 314 316 315 317 320 321 322 323 323 323 326 328 329 330 331 330 329 327 324 323 322
307 308 308 309 308 308 307 307 307 307 307 307 310 310 308 308 308 309 308 305 307 306 309 310 313 315 315 315 315 315 315 315 315 314 313 318 323 323 324 324 325 324 325 324
305 306 307 307 306 307 308 306 306 305 305 305 305 305 304 306 305 304 304 303 303 305 305 306 308 312 314 312 313 314 314 312 310 309 311 311 314 315 313 314 317 319 319 320
304 304 304 306 306 305 304 304 304 304 303 303 302 301 301 302 302 301 301 301 301 303 304 303 305 307 309 310 311 310 310 310 310 312 309 309 309 309 309 308 308 309 308 309
302 303 303 303 303 303 302 302 302 301 301 300 299 299 298 298 298 298 298 298 299 300 300 300 301 305 305 305 306 307 308 308 309 308 308 308 307 307 307 307 306 306 306 307
299 298 302 303 301 300 299 299 300 298 298 298 297 296 296 296 295 296 295 296 296 296 296 297 298 300 302 302 303 303 303 303 304 307 308 307 306 305 305 305 305 306 307 307

GFSNGP_925_thetae_030.txt.gz
Theta_e
330 325 325 329 328 329 330 330 331 330 331 330 330 330 330 331 331 332 334 335 338 346 347 350 349 352 355 352 351 352 355 355 358 359 360 359 359 359 359 359 359 359 359 359
325 323 323 325 326 327 328 330 330 330 331 330 330 330 331 331 331 331 332 331 332 338 344 348 350 351 351 355 352 352 355 356 357 359 361 360 360 360 360 360 360 360 359 360
326 324 323 326 326 326 327 327 328 330 330 329 329 329 330 330 330 330 332 333 334 337 340 346 348 349 350 354 353 353 355 358 358 360 361 361 361 361 361 360 360 360 360 360
322 323 326 325 326 326 326 327 327 327 328 328 328 329 329 329 330 330 331 332 334 334 335 339 343 340 347 349 353 355 357 358 359 360 362 362 362 362 362 361 361 362 361 361
320 322 323 323 322 323 326 328 327 327 328 328 328 328 329 328 329 331 333 334 334 333 333 334 336 339 341 348 351 354 357 359 359 360 360 361 363 363 362 362 361 361 360 361
316 320 323 322 322 322 327 330 329 332 335 335 339 332 330 330 330 330 332 333 333 331 332 334 338 340 343 347 350 355 356 358 358 359 359 360 362 362 361 361 360 360 360 360
314 316 318 320 323 331 329 343 339 338 339 342 346 343 341 340 340 338 337 336 334 335 335 336 341 343 345 347 350 353 354 354 357 359 360 360 362 362 362 361 360 361 361 360
312 314 314 314 316 320 330 333 335 337 337 339 341 342 346 347 347 343 340 345 348 342 336 336 343 342 346 355 351 353 354 355 358 360 359 358 362 363 362 362 362 361 360 361
312 313 314 316 315 319 322 323 327 335 339 341 342 343 346 349 349 339 344 349 351 338 341 349 351 348 349 352 352 352 355 357 358 360 361 360 363 364 362 362 360 360 358 361
313 312 315 316 316 317 317 319 322 324 333 339 342 344 349 350 347 349 353 357 354 349 350 354 356 356 357 357 355 355 356 357 358 360 361 361 360 361 360 359 361 360 361 362
316 316 315 313 313 314 317 317 318 320 328 336 341 346 349 347 348 351 351 349 350 352 353 352 352 352 353 357 361 357 358 359 360 360 360 362 362 360 360 360 360 361 361 359
315 314 315 315 315 315 315 319 320 325 328 334 341 343 344 347 348 347 348 347 347 347 347 347 346 346 346 346 348 351 355 355 354 354 356 359 360 362 359 360 360 360 360 356
315 314 314 315 316 316 320 322 324 327 330 338 338 339 340 342 341 340 345 346 348 348 348 348 348 347 342 344 348 349 349 349 349 350 349 350 354 357 359 359 360 359 359 359
313 314 314 315 314 318 319 323 326 331 335 338 338 337 338 340 340 341 343 343 344 345 346 346 343 340 342 345 347 348 344 341 347 348 349 351 355 356 358 360 358 356 354 356
310 311 312 312 317 319 323 325 331 334 336 338 338 336 337 340 340 339 337 339 341 343 344 344 343 343 344 345 342 340 339 342 342 341 341 341 340 339 339 340 336 332 328 330
310 310 312 315 316 319 326 329 331 333 335 336 338 339 337 335 334 333 332 333 335 336 335 339 343 343 341 341 340 340 339 336 338 340 336 338 339 336 333 332 331 330 330 326
317 318 317 317 320 325 325 328 331 332 333 334 333 333 332 331 330 330 330 329 329 329 329 330 336 340 343 344 342 341 340 341 337 339 339 337 335 335 337 337 337 333 326 326
322 322 321 320 326 327 326 330 328 329 330 330 328 326 327 327 327 327 324 326 328 328 327 329 330 335 336 339 342 341 341 340 339 338 338 336 337 336 336 335 335 332 327 323
314 316 315 316 317 317 319 320 322 321 321 323 325 327 325 323 323 321 321 323 323 325 324 326 328 330 333 333 339 340 339 339 338 338 339 337 335 335 335 334 332 330 327 326
313 312 312 312 312 314 315 315 316 317 319 320 319 318 320 319 320 320 318 317 318 320 322 322 327 327 328 330 333 335 339 339 338 337 336 336 335 333 331 328 329 329 329 332
313 312 312 312 312 311 312 312 312 316 315 315 318 318 316 312 311 313 315 316 315 317 319 319 319 323 325 327 329 329 330 332 334 336 337 335 333 332 332 331 326 326 327 327
312 313 312 312 312 312 312 312 311 311 314 313 312 313 314 315 313 310 308 310 310 313 316 317 317 316 319 321 320 321 321 322 323 325 329 329 331 330 328 326 325 324 323 325
311 310 310 311 311 310 309 308 308 309 309 307 309 311 310 309 308 309 310 308 307 309 311 311 314 315 314 317 317 316 315 316 317 318 321 322 318 319 317 316 317 319 320 321
310 310 310 309 309 310 311 309 307 306 306 305 305 305 308 308 307 307 305 304 305 306 306 307 308 311 313 312 312 312 312 311 314 313 315 317 318 318 318 313 313 313 313 315
308 308 308 308 308 308 308 308 307 306 305 304 303 302 302 302 302 302 303 303 302 304 304 303 306 308 308 309 308 309 310 310 310 309 310 313 313 313 313 312 312 312 312 311
302 305 306 306 305 305 306 305 304 304 303 302 301 301 300 300 300 300 300 299 299 300 300 301 301 304 305 305 306 307 307 307 310 309 310 310 309 311 312 312 312 312 311 310
301 299 303 304 303 302 302 302 302 301 301 301 300 299 299 298 298 298 298 297 297 298 298 298 298 298 302 303 303 304 304 305 303 305 307 308 307 307 307 307 307 308 308 309

GFSNGP_925_thetae_033.txt.gz
Theta_e
332 333 332 331 330 329 330 331 332 332 333 333 333 333 333 334 335 336 337 338 339 342 346 349 354 356 357 355 356 356 358 359 361 363 364 364 364 364 364 364 364 364 363 363
333 332 331 331 332 330 330 330 331 332 333 333 333 332 332 332 332 333 333 333 334 336 342 347 351 356 356 358 356 356 359 359 361 363 365 366 366 365 366 365 365 365 365 364
334 332 331 332 331 332 332 331 331 333 333 333 333 333 333 333 333 333 333 333 333 334 336 344 345 348 352 358 358 355 358 361 361 363 366 367 367 367 366 367 366 366 365 365
328 331 335 331 330 330 330 331 331 332 333 333 333 332 332 332 332 333 333 333 333 333 335 337 337 342 349 351 359 359 359 360 361 362 366 367 368 368 368 367 367 367 367 366
326 330 330 329 328 330 330 331 330 331 331 330 330 330 332 331 331 332 333 333 333 333 333 335 335 338 342 350 354 360 362 361 361 364 365 367 368 368 368 368 367 367 367 367
324 327 332 328 327 325 329 331 330 330 330 330 332 335 335 341 341 337 333 333 334 332 333 334 335 336 336 341 349 360 360 362 362 364 365 367 368 368 368 368 367 366 366 366
319 323 325 325 327 328 330 344 335 332 333 336 338 342 345 342 343 345 345 344 340 339 338 337 337 337 345 344 347 352 357 360 363 364 366 366 366 368 369 369 366 367 366 366
318 320 323 321 321 327 331 333 333 336 338 341 341 341 341 341 344 346 348 346 342 342 346 347 340 341 352 355 351 354 356 359 362 364 364 364 366 368 370 369 368 367 367 367
316 317 319 319 320 320 320 323 324 326 327 329 332 338 340 342 346 349 349 346 338 341 350 342 343 345 352 354 357 357 360 363 363 365 366 364 367 369 368 368 366 367 366 368
314 315 316 316 317 317 318 319 320 321 322 322 324 332 339 343 348 349 349 350 352 353 352 348 353 356 354 354 357 358 363 364 365 366 367 365 363 365 365 364 365 365 364 365
315 314 316 316 316 316 317 318 318 318 320 322 323 327 337 345 351 349 352 355 353 356 357 358 360 362 362 363 360 360 360 360 361 361 363 365 365 360 362 362 361 362 363 361
316 316 316 317 317 317 317 316 316 318 319 325 326 331 340 343 349 353 351 351 353 353 353 353 352 353 353 353 360 363 362 362 361 359 360 362 362 364 362 361 360 360 360 359
316 315 315 315 316 317 317 317 317 319 322 324 328 332 341 342 347 347 350 349 352 353 352 352 351 348 348 352 353 354 355 356 354 352 352 353 357 358 359 359 360 359 359 359
312 313 316 315 315 316 317 317 317 318 319 322 327 335 339 340 341 346 347 347 348 350 349 347 347 349 350 352 353 350 346 346 349 350 351 352 354 355 356 356 357 358 348 350
309 310 312 314 315 316 316 317 317 320 321 325 329 338 339 341 343 344 344 345 345 345 346 346 346 346 346 344 343 344 346 345 344 344 344 344 345 345 345 345 342 338 339 339
316 310 310 312 314 315 315 316 321 324 322 328 335 338 338 339 340 341 341 339 341 344 342 343 344 344 344 345 344 343 340 339 342 342 340 340 341 342 342 340 340 338 337 335
314 313 312 313 314 315 317 319 320 325 329 331 334 335 336 336 335 336 335 335 335 336 338 340 341 343 345 345 343 343 342 342 339 340 339 340 340 340 338 339 338 337 334 329
316 319 318 319 320 320 320 322 326 328 330 329 330 329 331 330 332 334 332 331 330 332 332 333 337 339 340 341 341 341 341 341 340 341 338 337 338 337 338 338 337 335 335 331
316 316 316 317 318 318 318 320 319 318 318 319 320 322 321 321 323 324 325 327 327 328 329 330 331 334 335 334 340 339 339 339 340 341 340 338 338 337 335 334 333 332 332 333
315 316 315 315 314 315 316 315 314 315 316 314 312 312 312 317 319 319 320 321 322 322 322 324 328 328 330 330 332 335 338 339 338 337 336 337 337 336 332 329 330 331 332 333
314 315 314 314 313 312 312 314 314 314 312 312 314 314 312 310 309 311 314 315 315 319 319 318 319 323 323 325 327 328 330 333 333 333 335 333 331 331 330 329 327 326 326 327
314 313 315 313 311 311 311 311 310 310 312 311 311 311 310 312 310 309 308 309 310 314 315 316 316 318 319 321 321 322 324 325 327 328 328 328 325 323 320 318 318 319 320 321
312 312 311 312 313 312 310 309 308 307 308 308 310 310 309 309 308 308 309 307 307 307 309 310 312 314 315 316 316 315 316 318 320 322 323 322 322 321 318 315 314 314 314 317
310 310 310 310 309 310 312 309 307 306 306 304 304 304 305 305 304 304 304 303 304 306 305 306 308 310 312 311 312 312 312 313 314 315 317 318 319 319 317 314 312 311 311 312
304 308 308 308 309 309 308 307 307 306 305 304 304 303 303 303 303 302 301 302 301 303 303 302 305 307 308 310 310 309 310 311 312 313 314 315 316 316 316 315 314 313 311 309
303 304 306 306 306 306 306 306 306 305 305 305 304 303 302 301 301 301 301 301 301 301 301 301 300 304 305 306 307 307 307 307 309 309 309 310 311 311 312 312 312 312 311 311
304 303 305 305 304 304 303 303 303 302 301 302 302 301 300 300 299 299 299 299 299 299 300 300 299 299 301 302 303 304 305 306 305 306 307 307 308 307 304 302 302 302 303 302

GFSNGP_925_thetae_036.txt.gz
Theta_e
332 334 334 330 329 330 332 334 335 333 333 336 338 337 337 337 341 343 347 347 351 352 356 357 357 358 358 358 358 358 359 363 364 364 364 364 365 365 366 364 363 364 364 364
334 334 334 335 331 330 330 330 332 332 333 335 336 338 338 340 340 342 342 342 343 347 348 354 359 360 358 358 359 359 359 361 363 364 364 366 365 365 366 367 366 365 366 365
333 333 334 336 334 331 330 330 331 334 336 336 337 337 338 337 336 335 334 334 335 340 344 350 348 358 361 360 359 360 360 362 362 363 364 365 366 366 366 367 367 367 367 366
330 333 338 335 333 332 333 331 331 333 335 336 340 339 337 335 334 335 335 337 342 336 340 342 342 344 352 360 359 359 362 362 364 364 365 366 367 368 368 367 368 368 368 367
329 332 334 334 333 333 332 333 332 333 334 334 333 333 334 332 332 333 337 339 340 334 335 338 342 343 348 351 362 363 361 363 362 365 366 367 368 369 369 369 368 369 368 368
325 330 333 333 331 330 331 333 333 331 332 332 332 332 345 345 343 344 345 348 351 345 345 337 342 336 354 354 358 363 363 361 362 362 365 367 368 370 370 370 370 369 369 368
322 325 329 327 326 328 333 344 339 339 340 337 338 346 344 342 343 344 346 348 346 346 347 346 342 342 349 350 355 358 362 362 363 363 363 365 366 370 370 371 370 370 369 369
319 323 327 325 325 331 336 331 330 330 331 334 334 336 339 341 344 346 349 350 346 348 347 345 349 346 348 355 345 349 353 362 364 366 365 365 367 369 370 371 371 370 370 369
318 320 326 323 322 321 321 322 326 324 324 325 326 326 329 336 344 349 352 354 348 347 345 343 348 346 350 356 358 354 359 363 364 366 368 365 368 369 370 371 371 371 370 370
316 316 318 318 318 318 319 319 320 320 320 321 323 324 326 330 338 347 354 355 358 358 361 360 348 354 358 356 355 359 364 365 366 367 368 368 366 369 368 369 370 370 370 369
316 317 319 318 317 317 317 318 318 318 318 319 320 322 328 332 341 343 347 356 354 359 364 363 365 363 363 364 363 363 363 368 369 368 367 369 369 365 369 368 368 368 369 367
318 317 319 321 318 318 318 317 319 319 319 319 320 325 329 332 341 342 350 353 356 355 355 356 356 356 357 357 361 365 365 364 364 363 365 367 369 368 364 364 364 363 362 360
313 314 314 316 318 317 318 318 318 319 319 321 320 323 327 330 341 341 345 351 353 354 353 353 352 351 351 355 358 358 360 361 363 362 362 366 364 368 368 354 353 354 353 351
307 309 312 312 314 315 316 317 317 318 318 318 319 319 322 326 340 341 343 347 348 350 348 348 349 351 353 355 353 351 345 349 352 351 353 355 355 355 356 356 358 354 347 340
316 313 311 312 313 315 316 317 318 317 318 318 318 322 324 329 339 342 343 346 345 345 346 348 348 347 346 347 349 349 349 347 347 345 345 346 346 345 345 345 343 341 340 338
315 314 318 312 314 314 316 317 318 317 317 318 321 325 326 337 338 341 342 344 344 343 344 346 347 346 348 347 343 341 342 343 344 343 343 342 342 344 344 342 342 341 338 334
319 315 311 312 313 314 315 316 316 316 317 319 325 325 332 337 336 336 338 338 338 338 339 342 344 346 347 345 346 345 340 341 341 340 341 341 341 341 340 340 340 338 337 331
315 317 316 315 315 315 315 317 317 319 320 320 324 329 333 330 329 331 333 332 332 333 332 334 339 340 338 341 342 342 343 342 342 339 338 339 340 339 339 337 335 335 335 333
312 313 314 314 315 316 317 318 316 314 313 314 318 320 319 321 321 322 322 322 322 323 321 324 331 332 332 340 341 340 340 341 341 340 338 339 336 334 333 332 332 334 335 335
313 311 311 313 311 311 313 313 313 314 313 311 310 310 310 310 313 314 314 314 316 317 318 319 322 324 328 332 337 336 336 337 337 334 333 331 332 331 329 327 327 327 327 328
313 312 311 310 309 308 309 310 311 311 310 310 311 310 309 309 308 309 310 310 310 311 314 316 317 319 320 324 328 330 331 332 332 330 328 327 324 322 320 319 319 319 320 321
312 312 313 311 310 308 307 307 306 308 310 310 309 309 308 307 307 307 307 308 307 308 309 313 315 316 316 317 317 319 323 325 325 327 327 325 322 319 318 318 317 316 315 316
311 310 311 311 309 308 308 306 305 305 305 306 307 305 306 306 305 305 306 306 306 306 307 308 312 312 313 313 314 315 315 315 317 322 323 322 319 316 314 315 315 314 313 311
307 309 309 309 311 308 308 305 305 306 305 304 304 304 305 304 303 303 302 303 304 303 303 305 308 310 311 311 311 311 312 314 314 314 315 315 316 316 314 312 311 310 308 309
306 308 307 307 309 309 308 307 307 306 305 305 304 302 302 302 302 302 302 302 302 303 302 302 304 307 308 309 310 310 310 310 310 311 310 311 311 312 312 312 312 312 309 305
305 306 306 306 305 305 305 304 304 302 303 303 302 301 301 300 300 300 301 300 300 301 301 300 300 303 305 306 307 307 307 308 310 309 309 307 305 304 304 304 303 303 303 304
305 304 305 305 304 303 303 302 302 301 300 302 301 300 300 300 300 300 300 300 300 300 300 300 300 301 301 301 302 303 304 305 304 306 307 307 307 306 305 303 301 300 298 297

GFSNGP_925_thetae_039.txt.gz
Theta_e
329 330 330 332 327 327 326 326 328 326 332 333 336 337 338 337 337 340 342 345 348 351 352 353 353 352 352 352 353 356 361 363 363 363 362 362 362 362 361 356 361 361 361 362
331 331 333 334 333 328 327 327 327 328 327 333 334 336 336 337 336 334 336 341 341 346 351 353 354 354 354 354 354 355 359 362 363 363 363 361 362 362 363 363 359 360 363 361
331 332 333 336 334 332 328 328 327 329 329 333 335 337 334 335 333 332 332 333 333 333 339 349 355 355 356 356 356 356 356 360 362 363 363 363 362 363 363 364 364 362 360 363
328 330 337 332 332 333 330 330 327 327 334 334 337 340 339 335 331 333 335 335 334 332 334 336 350 357 356 356 358 357 357 358 360 362 363 363 363 363 364 364 364 365 365 363
328 333 333 334 331 331 333 341 337 340 336 334 340 344 344 342 343 344 344 345 345 345 344 345 341 341 358 358 358 360 358 359 359 363 363 364 364 364 364 364 365 365 366 366
323 333 338 330 326 325 330 342 332 335 342 336 343 350 347 342 342 344 345 345 346 345 344 343 347 345 357 360 359 360 361 362 361 362 363 363 364 364 365 365 365 365 365 366
320 325 330 323 323 331 340 339 327 326 328 329 330 332 334 341 342 343 346 347 348 346 347 347 342 343 349 351 361 359 359 360 362 363 364 364 364 365 366 366 367 367 367 366
319 323 331 318 322 325 331 326 324 322 323 324 324 325 326 328 339 345 343 349 352 348 347 344 342 350 347 345 351 358 361 360 359 359 362 365 366 367 368 368 368 368 368 368
318 319 317 316 317 318 318 319 320 320 319 319 321 322 325 328 333 340 340 341 352 357 358 361 353 347 350 359 358 360 356 359 361 361 361 362 365 366 369 369 369 369 369 369
314 315 314 316 317 318 318 318 317 316 317 318 318 320 323 326 328 337 339 341 350 354 358 363 362 361 362 364 360 354 357 368 364 364 366 366 363 366 368 370 369 369 369 368
314 313 315 317 314 316 316 316 318 318 318 318 318 322 323 324 326 338 338 341 345 349 355 358 356 357 357 358 361 365 355 366 368 366 367 368 366 368 369 368 368 369 368 368
312 311 311 312 312 312 313 314 316 317 320 321 319 321 323 321 322 337 338 340 344 347 352 353 355 354 353 353 356 360 365 366 370 367 367 368 368 366 365 368 368 367 367 367
309 309 309 309 310 310 311 312 315 316 317 318 318 320 319 318 319 323 339 340 343 346 348 351 350 350 349 352 355 357 356 364 363 365 366 367 368 368 349 344 348 348 348 348
314 309 310 309 310 312 313 313 315 315 316 317 318 318 318 320 319 325 338 340 342 345 349 349 349 350 351 354 354 352 347 351 355 354 357 360 360 359 355 346 345 340 337 336
316 315 310 312 312 313 313 312 313 316 316 316 318 317 318 321 321 328 339 341 342 346 347 347 347 346 345 346 348 347 352 346 345 346 346 346 345 345 345 343 340 339 335 330
316 315 312 312 316 314 313 314 313 315 317 316 316 316 317 323 323 334 336 340 343 343 344 345 345 345 347 348 342 342 343 344 342 344 345 345 344 342 341 341 339 335 332 331
312 314 316 313 313 313 314 313 314 316 316 316 316 320 321 322 325 334 337 338 332 325 326 331 337 343 340 343 346 342 342 342 341 341 341 342 341 340 338 336 336 334 333 333
309 310 311 311 313 316 317 316 315 317 317 320 321 320 320 322 327 322 321 323 323 320 321 323 324 334 340 341 343 343 341 341 340 337 335 334 334 333 334 334 335 334 333 334
309 309 310 309 309 311 314 314 313 312 314 313 313 313 313 314 313 313 313 314 317 318 317 319 320 331 337 339 339 338 336 335 334 335 331 330 329 329 330 329 328 329 330 330
310 308 308 309 308 308 308 310 311 311 310 310 310 309 309 309 310 310 310 309 309 313 315 316 317 318 326 333 334 334 333 330 328 326 325 325 323 322 321 322 322 322 322 322
311 309 308 308 307 307 306 306 307 307 307 307 307 307 307 307 307 308 308 308 307 310 313 313 314 315 317 320 321 324 329 328 326 323 321 320 319 319 318 317 316 315 315 315
311 311 309 307 306 305 306 305 305 306 305 305 305 305 304 304 305 306 306 305 305 308 311 311 312 313 313 314 315 315 317 325 324 321 319 317 318 317 316 315 314 312 311 310
308 311 308 308 308 306 305 305 304 304 304 305 303 303 304 304 304 304 304 304 304 304 307 311 311 311 312 311 311 313 313 313 314 319 316 313 313 312 310 310 309 308 309 308
308 308 310 307 306 305 306 306 306 305 304 303 303 303 302 302 302 302 303 303 302 305 305 308 310 311 309 310 310 310 311 313 311 309 311 314 313 312 310 308 306 303 302 301
308 307 306 306 307 306 305 302 301 303 303 303 301 300 300 300 301 302 301 302 301 302 303 304 306 307 308 309 309 309 309 309 308 308 309 309 308 307 305 304 303 304 302 300
305 307 307 304 303 303 303 301 301 300 302 301 301 300 300 300 300 300 300 300 301 300 300 301 302 302 303 304 304 304 303 304 308 307 306 305 304 303 302 301 300 299 298 297
303 303 302 302 303 302 301 300 300 300 300 299 299 299 300 300 300 299 300 300 300 300 300 300 300 301 301 302 301 301 301 301 302 302 304 304 304 304 302 301 300 299 298 297

GFSNGP_925_thetae_042.txt.gz
Theta_e
311 314 318 324 326 325 322 324 324 323 325 323 324 331 329 329 329 334 343 348 351 350 349 348 347 347 350 352 355 357 358 358 358 357 358 359 358 356 354 356 358 357 350 355
313 322 326 329 331 331 323 323 324 322 324 322 327 330 333 333 335 338 339 348 351 351 350 349 348 347 349 350 353 356 358 358 358 359 358 358 360 359 357 356 355 357 359 356
317 323 330 332 328 332 326 323 324 324 323 327 338 344 342 328 330 330 336 346 351 351 350 350 349 348 348 350 351 355 357 357 359 359 360 360 359 360 360 359 357 355 356 358
316 322 334 328 324 325 331 330 329 336 330 343 345 343 343 342 344 344 342 337 331 336 344 351 351 350 350 350 351 352 355 358 358 360 360 361 360 360 360 360 361 359 356 356
318 329 330 326 323 322 324 328 325 329 342 343 342 343 344 342 344 343 342 341 340 341 339 343 353 353 352 352 352 352 353 354 359 360 361 361 361 360 360 360 360 361 361 360
314 327 335 322 321 324 327 326 321 323 325 332 338 346 341 338 343 343 348 344 341 342 342 342 345 351 354 354 354 353 353 354 355 359 360 361 361 361 361 361 361 361 362 362
317 325 327 320 319 325 330 328 322 319 319 321 326 324 324 333 339 338 341 349 352 353 346 343 344 344 353 354 355 356 356 355 356 356 359 360 361 361 361 362 361 362 362 363
319 326 327 318 319 321 318 318 318 317 316 316 318 322 325 326 328 338 338 346 350 358 358 356 347 346 342 349 355 356 357 358 357 358 358 360 360 361 362 362 363 363 362 363
316 320 316 316 321 317 315 316 316 316 314 315 316 320 322 324 324 336 336 339 345 350 356 358 358 359 359 360 357 358 358 358 359 361 361 361 361 361 362 362 363 364 364 364
310 312 311 314 317 314 312 312 312 314 316 314 316 320 321 321 320 331 336 337 341 346 348 352 355 356 356 356 359 362 354 361 360 360 361 363 363 363 364 364 365 365 365 366
310 309 310 313 312 310 311 311 312 312 314 316 315 319 318 318 317 318 330 335 340 342 344 348 354 353 352 350 350 355 360 362 356 365 361 362 362 363 365 366 366 367 367 367
312 310 310 310 309 310 310 311 311 311 313 314 315 318 316 315 315 316 319 335 338 340 340 345 350 349 349 348 352 354 356 358 364 367 365 364 361 356 362 365 367 367 367 368
314 314 313 309 309 310 309 310 311 311 311 313 316 317 316 314 317 319 322 328 338 340 343 347 348 348 348 350 353 353 352 349 356 367 366 366 362 356 341 343 349 354 360 364
310 314 313 311 310 310 311 312 313 313 313 313 315 315 316 317 320 320 323 335 337 339 345 346 348 346 345 347 348 349 348 349 353 360 364 365 365 352 344 340 335 334 334 334
310 310 312 311 310 310 310 311 313 313 312 314 315 314 314 316 319 320 322 333 337 341 343 345 346 345 345 345 345 344 349 347 349 350 353 358 359 356 347 343 334 331 329 331
309 310 310 311 312 313 313 312 312 312 311 314 314 315 319 320 321 326 332 335 333 324 325 329 336 342 345 345 345 346 342 344 344 344 344 345 346 342 339 336 331 330 330 330
309 310 310 310 311 316 315 311 311 310 311 313 316 320 322 324 322 321 322 323 320 320 320 322 324 336 339 342 345 344 342 341 341 340 339 338 336 336 335 332 330 331 332 333
308 308 307 308 309 312 313 313 313 314 315 315 315 315 314 314 315 313 315 318 318 317 317 320 322 332 339 341 343 343 338 335 334 332 331 332 332 332 332 331 331 330 330 330
308 308 307 307 307 307 308 308 309 310 311 311 311 311 311 311 311 310 311 311 312 314 314 317 321 330 336 337 341 340 336 333 331 330 329 328 327 326 325 325 324 324 325 325
308 307 307 306 305 305 306 306 305 305 306 306 307 308 308 309 309 309 309 308 307 308 313 314 316 320 327 332 331 331 329 327 326 324 323 323 321 320 319 320 319 318 318 319
308 306 305 305 304 304 304 304 304 304 304 304 305 305 305 306 306 306 307 308 307 309 312 312 313 315 318 322 328 326 325 323 322 321 320 318 317 316 315 313 313 313 313 312
308 307 306 305 305 304 303 302 302 302 302 302 302 302 303 304 304 304 304 304 306 310 310 311 311 311 312 314 320 323 321 320 319 318 317 316 315 313 312 311 310 309 309 309
308 307 307 307 305 305 305 303 302 302 302 301 302 301 301 301 302 303 303 303 306 308 309 310 310 313 313 311 311 311 313 314 313 312 311 310 310 309 308 307 306 306 306 306
306 307 306 306 306 306 305 305 304 303 301 300 300 301 301 301 301 301 301 304 305 307 307 307 309 309 309 310 311 310 309 309 310 311 310 309 307 305 302 301 300 299 298 298
306 304 304 304 305 303 301 300 303 303 301 299 299 300 300 300 300 301 300 302 302 304 306 307 306 304 303 303 306 307 308 309 309 309 308 306 305 304 303 301 299 297 296 295
302 300 300 301 301 300 300 300 299 299 299 298 299 300 299 300 300 300 300 300 301 301 302 302 304 305 304 303 302 303 306 305 304 303 302 301 301 300 299 298 298 297 297 296
301 300 300 300 300 299 299 300 299 298 298 297 297 297 298 299 298 299 300 300 300 300 301 301 301 300 300 300 300 300 300 300 300 299 300 301 301 300 300 299 299 298 297 296

GFSNGP_925_thetae_045.txt.gz
Theta_e
311 312 312 312 313 314 320 321 322 322 319 320 319 322 328 329 322 322 336 344 346 346 345 345 346 346 348 349 351 351 351 352 352 353 353 353 352 351 351 352 352 352 354 353
313 312 312 314 315 319 321 325 319 320 320 319 338 341 343 341 328 326 342 345 347 346 345 346 345 345 347 349 352 352 352 352 352 353 354 354 354 353 352 352 353 353 352 352
312 313 315 324 323 325 328 324 325 321 324 334 344 346 346 346 341 332 338 344 347 346 345 345 345 345 346 350 351 354 354 354 354 354 354 355 355 355 354 353 352 354 354 353
311 313 332 323 321 321 322 320 321 324 333 344 347 345 343 343 346 347 340 341 345 346 346 346 346 345 346 349 350 354 355 355 356 356 355 355 356 357 357 355 354 354 354 355
313 318 327 324 321 322 322 320 318 320 324 335 345 345 344 334 340 345 349 338 337 344 346 347 347 346 346 348 350 351 353 355 356 356 357 357 356 356 357 358 357 356 355 354
316 322 334 323 318 319 323 322 319 317 319 327 338 347 334 329 336 341 349 350 341 339 346 349 348 347 347 348 348 349 352 354 355 356 357 357 358 358 358 358 358 359 359 358
318 321 325 320 317 320 326 323 317 316 316 318 324 324 325 327 335 336 341 348 355 351 341 341 348 349 348 348 349 349 349 351 354 356 357 358 358 359 358 358 358 358 358 359
320 326 331 315 320 322 316 315 314 313 314 315 319 323 323 321 329 335 336 342 348 354 353 345 342 349 349 350 351 352 352 351 352 353 357 358 359 359 359 359 358 359 359 360
315 319 315 313 318 314 312 312 312 311 312 315 318 321 321 320 317 322 334 337 342 345 351 353 355 355 354 357 356 356 354 354 353 353 353 356 358 359 359 359 359 359 359 360
311 310 310 312 313 311 312 312 311 311 311 312 314 318 317 318 317 316 322 334 338 341 343 348 350 349 348 349 355 358 357 357 356 357 356 356 357 358 358 359 359 359 360 361
311 310 311 313 312 313 313 312 313 312 312 312 312 315 314 316 318 319 321 328 336 337 339 344 348 346 348 349 348 351 357 358 359 358 358 359 359 359 359 359 360 360 360 361
313 311 312 312 312 312 312 312 312 312 312 312 311 315 315 314 316 318 324 330 334 336 338 343 347 347 349 350 352 352 352 353 354 359 363 359 358 350 356 361 362 363 363 363
312 311 313 313 314 313 311 312 312 312 312 312 312 314 315 315 317 318 320 325 332 334 338 342 345 346 347 348 348 349 347 349 352 352 361 361 353 345 340 344 358 364 365 366
309 310 311 313 313 311 312 312 312 313 313 313 313 313 315 315 317 317 319 326 333 337 340 342 344 344 343 343 343 343 345 348 348 350 357 362 358 350 344 342 339 338 347 350
309 308 309 309 310 311 312 312 311 312 313 313 313 313 314 317 317 318 325 328 334 335 333 334 338 344 344 344 345 343 343 345 346 350 353 358 360 350 343 339 332 330 331 333
307 308 308 308 309 312 313 312 313 312 312 312 312 312 316 320 320 324 326 328 327 321 322 323 326 329 337 340 341 345 342 343 344 347 346 350 347 342 336 331 329 330 331 332
307 308 308 308 308 308 309 312 314 314 312 311 311 315 320 322 319 320 321 322 322 321 321 321 322 327 332 338 338 342 341 341 340 340 339 337 337 333 331 330 329 329 329 332
306 306 305 306 306 307 306 307 308 309 312 313 314 314 314 314 315 313 312 314 317 317 318 321 323 326 333 336 338 340 341 339 338 335 334 333 331 330 330 330 329 327 326 327
306 305 305 304 305 305 305 305 305 305 306 307 309 310 309 310 311 310 309 309 309 311 313 316 320 325 331 335 339 339 337 335 333 331 330 330 327 326 325 324 323 323 322 320
306 305 304 304 303 303 303 302 302 302 302 303 304 305 305 305 306 308 309 307 306 307 312 313 316 321 325 332 335 333 331 329 327 325 325 323 322 321 321 321 320 319 317 315
306 305 304 304 303 303 303 302 302 302 302 301 301 301 302 303 304 304 305 307 307 309 311 312 313 317 322 327 329 328 325 323 322 320 319 317 316 315 314 314 313 312 311 310
306 305 304 304 304 303 302 302 301 300 301 300 300 300 301 301 302 304 305 304 305 308 310 310 311 312 314 322 322 322 320 319 318 317 316 314 313 311 310 309 308 307 307 307
307 306 305 305 304 304 305 303 302 300 300 300 300 300 301 300 301 302 304 304 305 306 306 306 307 310 311 311 312 312 311 310 309 308 307 306 306 305 304 304 304 304 305 305
305 306 306 305 305 305 303 303 304 301 300 300 300 300 300 300 300 301 301 300 303 305 305 306 306 307 307 308 308 307 307 306 306 306 304 303 301 300 299 298 298 297 297 297
302 303 305 305 304 301 298 301 301 302 300 299 299 300 300 300 300 300 300 301 301 302 304 304 306 305 306 305 305 305 304 304 304 304 302 301 299 297 297 296 296 296 295 295
299 298 299 300 299 298 298 298 297 297 297 297 298 298 299 299 299 299 300 300 300 301 302 302 303 304 303 303 302 303 304 304 303 302 301 300 299 299 298 298 296 295 294 294
299 299 299 298 298 298 298 297 296 296 296 297 297 298 298 298 300 299 299 300 300 300 300 300 301 301 302 301 302 301 302 302 301 301 300 300 300 299 298 298 298 297 297 297

GFSNGP_925_thetae_048.txt.gz
Theta_e
311 312 312 313 314 314 314 315 319 324 320 319 321 320 322 328 328 326 325 324 339 343 342 343 346 345 347 348 347 347 347 349 349 349 349 349 349 349 349 349 348 348 348 348
312 312 313 314 314 315 315 316 317 320 320 321 334 340 346 346 346 346 335 324 329 342 343 344 345 345 346 348 348 347 347 348 349 349 349 349 349 349 350 351 351 351 350 350
312 310 312 318 317 321 321 319 323 322 324 327 344 345 341 340 342 346 347 332 326 340 343 344 345 345 346 348 349 349 348 348 348 350 351 351 350 349 349 349 350 351 351 351
310 312 323 322 321 321 319 319 319 320 324 343 346 341 337 333 334 342 348 344 339 342 344 344 345 345 345 347 349 350 349 349 349 350 351 352 352 352 351 350 350 351 352 351
314 315 317 324 320 320 322 319 318 318 318 325 332 338 340 331 331 338 344 349 337 342 343 344 344 345 345 348 349 351 350 350 351 351 351 352 353 353 353 353 352 351 351 352
317 319 333 323 317 316 320 321 316 315 316 318 337 347 337 324 329 337 341 349 345 343 343 344 344 344 346 348 350 352 352 352 353 353 353 353 352 353 354 355 354 353 353 352
312 318 321 316 313 318 328 321 315 313 313 318 324 325 322 319 321 328 337 344 350 343 343 345 345 344 346 347 349 350 352 353 353 354 354 354 354 354 354 355 356 356 356 355
314 321 329 312 317 320 315 312 312 312 312 313 316 319 320 320 321 324 332 339 343 351 350 342 345 345 346 347 347 348 350 351 353 354 355 355 356 356 356 356 356 357 357 357
315 316 312 311 313 311 312 312 312 312 313 313 313 317 318 322 324 326 329 335 338 344 347 348 350 348 351 354 350 348 348 349 351 353 354 355 356 356 357 357 357 357 357 357
311 311 312 313 313 312 313 313 313 313 313 313 313 314 317 319 321 326 330 332 335 338 341 344 345 349 351 355 354 354 352 350 349 350 352 355 356 357 357 357 357 358 357 358
310 312 313 314 313 312 314 313 313 314 313 313 313 312 316 318 320 320 324 330 332 335 338 341 344 348 350 349 351 355 355 356 356 353 352 352 354 356 357 357 357 357 358 358
313 312 313 313 313 314 314 313 313 314 314 314 313 313 314 316 318 317 319 325 331 335 337 341 344 345 349 349 348 348 349 351 352 357 356 355 353 350 355 356 357 358 358 358
311 310 311 311 311 311 312 313 313 313 313 314 314 313 313 315 316 317 317 321 329 334 334 338 342 342 342 342 342 342 344 346 348 349 357 355 350 346 342 345 352 358 359 360
308 309 310 310 311 311 311 312 312 312 312 312 313 313 313 314 316 316 318 323 328 328 326 332 334 338 336 341 343 341 344 347 346 347 349 357 353 347 346 343 343 346 355 361
307 308 308 308 307 308 309 312 313 313 313 312 313 313 312 314 317 318 321 323 324 321 322 326 328 331 333 334 336 341 341 344 346 348 350 355 355 348 343 341 337 333 334 335
307 306 307 306 307 307 307 308 311 312 313 312 313 312 312 314 320 322 321 321 320 321 321 322 323 324 328 330 334 337 341 342 345 346 348 349 347 342 336 333 331 331 331 331
305 306 306 306 306 306 306 305 306 307 309 313 314 315 316 316 318 314 313 314 316 317 316 316 318 321 323 329 332 336 339 340 342 344 344 343 339 335 331 330 329 328 329 331
304 304 304 305 305 305 304 304 303 303 305 306 309 309 309 310 311 311 310 311 312 314 314 314 315 317 321 326 332 335 338 338 338 339 338 336 333 332 331 329 327 324 323 327
304 303 303 303 302 303 303 303 303 302 302 302 303 305 305 306 306 308 309 308 307 308 310 312 314 316 319 325 330 336 337 337 334 333 331 329 328 328 326 325 323 321 320 320
304 303 303 302 302 302 301 302 302 302 301 301 302 302 303 304 305 305 306 308 306 307 309 312 313 316 318 323 329 334 334 333 331 327 327 325 324 323 321 320 319 316 315 314
305 304 303 303 302 302 301 301 301 301 300 301 301 301 301 301 303 304 304 306 306 306 307 307 310 312 317 321 326 329 329 327 323 322 321 319 318 317 315 314 312 311 310 309
305 304 303 303 303 303 303 301 301 300 300 301 300 301 301 301 301 302 302 303 305 305 305 305 307 310 312 321 321 323 322 320 319 317 315 313 311 310 308 307 306 305 305 306
306 305 304 303 303 303 304 304 302 300 300 300 300 300 300 301 301 301 301 301 302 304 304 305 304 306 307 309 310 310 310 308 307 307 305 304 304 302 301 300 300 300 300 301
305 305 305 304 304 303 301 302 301 303 300 299 300 300 300 300 300 300 301 301 301 301 302 303 303 303 303 304 304 304 304 304 303 301 300 300 299 298 297 296 296 296 295 295
301 303 303 303 302 299 296 298 299 298 297 299 298 299 299 298 299 299 300 301 300 300 301 302 304 305 302 302 302 301 301 300 300 299 298 298 298 297 297 297 296 296 295 295
297 297 298 299 297 296 297 296 296 296 296 296 297 298 299 299 299 300 299 301 300 300 300 301 302 302 303 302 302 301 301 300 300 299 299 299 298 297 296 296 296 294 293 293
297 298 298 297 297 297 296 296 296 296 297 297 297 298 298 298 299 300 300 299 300 300 301 301 299 298 299 300 301 300 300 300 300 299 299 299 298 297 296 295 295 295 295 293

GFSNGP_925_thetae_054.txt.gz
Theta_e
310 310 309 312 314 317 320 325 330 330 334 334 332 330 331 333 334 336 335 335 341 346 350 354 354 356 355 352 352 350 352 352 353 354 353 353 354 354 354 354 355 356 355 354
310 309 308 308 311 315 317 319 322 327 329 331 333 336 340 337 342 344 342 345 342 341 348 351 352 355 356 356 353 353 354 354 354 356 355 356 356 356 356 355 355 356 356 355
310 309 308 312 313 317 318 319 321 326 328 331 334 337 344 345 345 345 346 347 348 349 347 344 349 352 355 358 355 354 356 356 356 357 358 357 357 357 357 357 356 357 357 356
310 309 309 308 310 316 319 320 321 324 326 330 334 340 347 342 343 343 344 344 348 349 349 349 343 347 351 355 357 357 358 358 357 358 359 359 359 359 359 357 358 358 358 358
310 310 308 313 324 325 325 324 324 327 328 330 333 342 349 340 340 342 343 344 346 347 349 350 351 342 348 352 355 358 359 359 359 359 359 359 359 359 358 358 359 358 358 358
311 311 314 320 316 316 322 332 322 323 327 330 336 343 340 338 339 342 343 345 347 349 351 352 352 342 346 351 354 359 359 359 359 359 360 359 360 360 359 359 359 359 359 359
313 312 313 314 312 312 329 328 318 320 323 329 338 334 332 328 331 334 339 346 350 354 354 350 348 342 350 353 355 357 356 356 357 359 360 360 360 360 360 359 358 358 358 358
314 315 317 313 310 319 319 319 318 318 319 320 323 323 322 322 323 326 337 349 353 354 352 348 347 348 355 358 355 356 356 356 358 359 358 359 361 361 360 360 360 361 360 359
314 315 314 312 311 312 317 318 319 318 317 317 317 318 319 321 323 323 333 340 352 355 355 353 351 351 354 357 356 357 357 358 358 359 359 358 360 361 361 361 361 361 361 360
314 315 313 312 311 312 315 317 318 316 316 317 317 317 318 319 323 325 329 327 335 351 354 357 357 355 356 357 357 358 359 359 359 360 360 359 360 361 360 360 360 360 360 360
311 312 310 311 311 312 315 316 316 316 315 316 317 318 317 319 323 325 327 329 328 332 347 348 349 350 353 358 357 358 359 360 361 361 360 361 361 360 361 360 359 361 360 361
312 308 311 311 311 311 314 315 317 316 316 316 316 317 317 318 320 324 327 326 328 330 332 338 339 343 346 351 354 359 358 358 358 358 361 361 362 357 355 356 358 360 360 360
308 308 309 309 309 310 311 314 314 315 317 316 316 316 316 317 320 325 325 325 327 328 327 330 331 333 337 343 350 352 355 360 360 357 359 360 359 359 354 353 355 358 359 359
306 307 309 308 308 308 309 311 311 310 312 316 315 316 316 317 322 323 322 323 323 324 324 325 325 327 329 336 343 349 349 350 356 353 344 343 342 347 337 340 357 355 355 357
306 305 307 307 307 307 308 309 309 309 308 311 312 316 318 321 321 318 318 320 321 322 323 322 323 324 324 328 336 344 347 349 352 352 348 346 343 343 345 351 358 358 346 343
305 305 304 305 306 306 306 307 308 308 307 308 309 311 313 316 318 318 317 317 319 321 321 320 320 320 322 324 329 337 342 343 346 352 352 352 349 350 356 357 358 356 351 347
307 306 305 305 305 305 305 305 306 307 307 307 308 309 310 311 312 313 314 315 316 318 317 317 318 318 321 323 325 328 334 341 342 347 350 350 349 348 350 354 356 356 353 340
307 306 305 305 304 304 305 304 303 304 304 305 306 306 306 307 309 309 309 310 312 312 312 313 314 314 319 321 322 324 327 334 341 344 347 347 346 343 342 349 344 335 329 332
307 307 306 305 305 304 304 304 304 303 303 303 304 304 304 305 305 306 308 307 307 308 308 310 310 314 317 319 318 322 326 329 334 340 344 342 344 342 340 339 339 336 335 335
309 308 307 306 305 305 305 304 304 303 302 302 303 303 303 304 304 305 306 307 306 306 306 307 309 312 314 316 316 320 325 330 335 338 338 340 342 340 336 332 331 329 327 326
309 309 307 306 306 305 305 305 304 304 305 304 303 303 303 303 302 302 305 306 305 305 305 305 306 307 311 313 316 322 326 329 330 330 331 330 330 331 330 328 325 322 321 321
307 307 308 306 305 304 304 304 304 304 304 304 304 304 304 304 304 304 303 303 304 304 303 303 303 304 304 305 306 308 310 313 314 312 312 313 314 313 313 315 316 315 315 314
307 306 306 305 305 304 303 302 303 303 303 303 304 304 305 304 304 304 303 302 302 302 303 302 302 301 301 301 301 300 300 300 300 300 300 300 300 301 300 299 301 303 304 306
306 306 306 305 304 303 303 303 302 302 302 302 303 303 303 303 303 303 303 300 301 301 301 301 300 300 299 299 298 298 298 298 298 297 296 296 296 295 295 295 295 295 295 296
305 305 306 304 303 303 302 302 302 302 302 302 302 303 303 302 303 302 302 301 300 300 300 299 299 299 298 298 298 297 297 296 296 296 296 295 294 294 294 293 293 293 292 292
305 305 304 303 302 302 302 302 302 301 302 302 302 302 302 302 302 302 302 301 300 300 299 299 298 297 297 297 296 296 296 296 296 295 295 295 295 294 293 293 293 293 294 293
304 302 304 303 302 301 301 301 301 301 301 301 301 302 302 302 301 302 301 301 301 300 300 300 299 299 299 299 299 299 297 296 295 295 295 295 295 294 294 294 293 292 293 292

GFSNGP_925_thetae_057.txt.gz
Theta_e
313 313 313 314 318 321 325 328 333 332 332 334 333 333 334 334 334 336 337 340 344 346 355 361 357 358 357 354 354 352 353 353 354 357 357 357 356 358 357 358 359 359 359 359
313 312 312 312 313 314 319 322 324 326 329 330 331 335 336 333 336 337 338 338 338 344 348 351 353 359 359 357 356 354 355 354 354 357 358 358 357 358 359 359 360 360 360 360
315 312 312 312 311 311 313 316 319 324 327 328 331 333 337 338 339 341 343 343 345 345 343 346 349 353 357 359 357 357 357 357 356 357 359 358 358 359 360 360 360 361 361 360
319 314 314 312 312 312 313 314 318 320 323 325 327 332 335 346 345 345 345 345 346 347 347 346 346 349 351 356 359 359 359 360 358 360 360 360 360 361 361 362 361 362 362 361
318 316 314 311 316 323 321 322 321 321 322 323 325 327 332 337 343 346 347 348 347 346 346 347 349 346 347 353 361 360 362 360 361 360 363 363 363 363 363 363 363 362 362 363
316 315 315 312 319 316 320 325 323 328 323 323 326 331 332 339 340 341 343 346 349 350 350 351 351 351 350 348 356 363 362 362 362 362 364 365 365 365 364 364 364 361 362 363
316 316 313 318 316 314 324 325 318 324 327 328 331 335 333 330 332 334 338 344 346 353 354 354 355 353 354 349 354 359 362 362 364 363 364 365 366 365 366 365 362 364 363 363
317 316 315 317 315 315 317 312 312 321 322 325 326 325 325 326 326 328 334 332 338 354 357 355 355 356 359 358 352 358 360 362 364 365 363 364 366 366 366 366 365 366 365 366
314 314 317 315 315 315 312 311 312 320 319 320 322 321 320 321 324 326 328 328 333 346 361 359 355 350 358 355 357 360 362 363 364 365 365 363 366 367 366 366 363 363 363 362
315 315 313 312 312 311 310 310 313 318 318 317 320 320 319 321 323 327 327 327 330 338 346 355 355 359 361 360 359 362 364 364 364 365 365 364 365 365 364 363 363 362 361 360
312 311 309 311 311 310 310 313 317 318 317 317 317 320 318 319 322 327 327 327 328 330 333 336 340 343 348 357 360 361 363 363 363 363 362 364 363 363 362 361 361 361 358 356
312 309 309 309 309 309 310 315 315 316 317 316 317 319 319 320 321 327 326 327 326 326 328 329 331 332 336 345 357 361 363 363 362 361 362 363 362 357 358 357 357 358 357 358
308 307 308 308 308 308 310 313 313 312 313 317 316 318 318 321 324 324 324 324 326 326 326 326 327 328 330 336 346 359 361 362 362 361 362 364 363 361 359 355 358 359 360 359
306 305 307 307 308 307 309 310 310 309 311 313 314 318 319 321 321 321 321 322 324 325 324 324 324 324 327 330 335 348 356 360 360 360 362 363 363 362 361 359 356 357 357 356
307 306 306 307 306 307 307 308 309 309 309 310 311 313 316 320 320 320 319 319 322 323 322 322 323 323 325 327 329 341 346 350 354 355 360 358 353 350 348 347 348 348 353 352
307 306 306 306 307 306 306 306 307 308 308 308 310 311 312 314 314 315 315 316 320 321 319 319 320 320 324 325 326 331 339 344 348 351 348 349 348 349 347 346 343 336 336 342
308 308 306 307 306 307 306 306 306 306 306 307 308 308 309 309 310 310 310 312 314 315 315 315 315 315 321 324 323 324 328 339 344 349 352 349 350 349 351 352 354 354 350 348
307 307 307 307 307 307 307 305 304 305 305 305 306 306 307 308 308 309 308 309 309 310 309 311 311 313 318 322 320 322 325 331 338 347 348 350 351 351 351 352 354 351 344 341
308 308 307 307 306 306 306 306 304 303 304 305 306 306 306 305 306 307 308 307 307 308 307 309 309 313 315 318 317 320 323 327 332 341 344 345 346 347 346 347 349 348 344 341
310 308 307 307 306 306 306 305 306 306 305 306 307 308 308 307 307 307 306 306 306 306 306 306 307 310 312 313 315 320 324 328 333 338 340 340 338 340 337 334 333 336 335 340
310 309 308 307 306 306 306 306 305 305 305 305 306 306 305 305 305 304 304 304 304 305 304 304 305 306 307 308 311 314 322 330 326 323 326 333 333 327 327 326 323 322 323 323
308 308 308 306 306 305 305 305 305 305 305 305 305 306 306 305 305 304 302 302 303 303 302 302 302 302 302 302 302 303 304 306 307 306 307 308 308 309 309 312 312 313 314 316
308 308 307 307 306 305 305 304 304 305 305 305 305 305 305 305 304 304 303 301 301 301 301 301 300 300 299 298 298 298 299 299 298 298 298 298 299 299 299 300 304 307 309 308
308 308 307 307 305 305 305 305 304 304 304 304 305 305 304 304 304 303 302 301 300 300 300 300 300 300 299 298 297 297 297 297 296 296 296 296 295 295 295 296 297 297 298 301
309 307 307 306 306 304 304 304 304 304 304 304 304 304 304 304 304 303 303 302 300 299 299 300 300 300 300 298 297 297 297 296 296 295 295 295 295 294 294 293 293 293 293 293
309 307 306 305 304 304 304 303 303 303 304 304 303 304 304 304 303 303 302 302 302 302 302 302 301 301 301 301 301 299 298 297 296 296 295 295 294 294 294 295 294 294 294 294
307 303 306 305 304 303 302 302 303 303 301 302 304 304 304 303 303 303 302 302 302 302 301 301 301 300 300 300 301 301 301 299 298 298 296 295 295 295 295 294 293 293 293 295

GFSNGP_925_thetae_060.txt.gz
Theta_e
314 314 314 315 316 317 319 323 327 326 328 331 335 337 337 338 340 338 339 344 343 350 353 357 357 356 355 355 354 354 355 357 359 359 358 358 356 356 351 355 358 358 358 359
315 315 315 315 315 315 317 320 323 325 329 330 331 335 335 338 342 349 341 338 344 348 353 355 359 359 357 356 356 355 355 357 357 359 359 358 357 357 357 356 357 359 361 360
319 316 317 316 314 314 315 316 320 324 326 327 327 331 336 337 338 348 351 347 351 352 352 348 343 349 360 358 356 356 356 356 357 359 360 359 359 357 360 359 360 360 361 361
320 317 322 319 316 314 314 315 315 316 318 320 323 326 329 331 338 341 349 350 351 347 349 348 344 344 359 360 359 359 357 359 358 358 359 360 360 361 359 361 361 361 362 362
317 318 316 315 316 320 323 317 316 325 324 326 322 322 326 337 341 341 337 341 348 347 347 350 351 350 353 360 360 359 362 359 361 358 360 360 361 361 361 361 362 362 362 363
317 315 314 314 318 317 317 319 323 323 323 325 329 330 331 333 334 335 336 337 344 347 349 351 351 351 352 353 364 361 359 362 360 361 360 362 361 361 361 361 362 363 362 363
317 318 315 317 316 316 318 317 319 319 320 319 326 330 329 328 328 328 331 334 335 339 346 351 358 355 354 354 355 364 361 360 363 363 361 363 363 362 363 363 363 364 364 363
318 317 318 317 316 316 319 318 317 316 317 317 320 323 325 324 326 327 329 328 330 335 345 357 362 362 358 359 355 356 364 363 363 363 365 363 365 365 365 365 365 365 365 365
315 315 318 316 315 315 314 315 315 314 315 315 316 321 322 322 324 326 327 328 328 331 336 340 343 355 365 362 360 357 360 365 364 366 365 364 366 367 367 367 367 366 366 367
313 315 312 313 313 312 311 312 313 313 313 312 317 319 320 321 322 323 327 328 326 328 329 332 333 340 347 351 363 363 356 367 365 367 367 366 366 367 368 368 368 367 366 367
312 311 309 312 309 309 310 309 311 311 315 317 318 319 319 320 322 322 326 326 326 326 326 326 328 334 338 340 349 363 364 367 367 367 367 367 365 367 367 367 367 367 366 364
312 309 308 308 309 308 307 308 309 314 315 317 317 318 319 320 320 324 325 324 326 325 324 325 325 326 329 333 337 352 368 368 367 367 367 367 365 361 366 367 366 365 363 364
307 305 307 308 307 306 307 309 311 311 313 317 317 317 318 320 321 321 322 322 323 325 324 324 324 324 326 329 333 340 353 364 365 364 365 365 365 363 358 352 356 358 361 358
307 306 307 308 307 307 307 307 309 309 310 312 313 314 314 319 320 320 320 320 321 322 321 321 322 321 321 326 327 332 344 354 361 363 362 364 365 365 361 358 356 354 358 358
308 308 307 306 306 306 305 306 307 307 308 309 312 312 313 314 314 315 315 316 319 318 317 317 317 316 320 322 325 328 331 337 347 356 359 361 363 364 363 362 361 360 354 353
308 307 307 308 307 306 305 305 306 306 307 308 309 311 311 311 310 310 310 311 314 314 313 313 314 313 317 323 323 324 326 329 343 349 349 344 353 352 356 357 356 355 353 352
309 309 308 308 309 307 305 305 305 306 306 307 307 308 309 309 310 309 309 308 310 310 309 311 311 311 316 319 320 321 324 327 333 347 346 348 351 349 349 349 347 346 344 341
309 310 308 308 307 308 306 304 304 304 305 306 307 307 306 307 308 308 307 307 307 307 307 307 308 311 315 317 316 318 322 326 339 347 348 350 351 351 350 347 348 346 344 343
310 308 308 308 307 307 308 307 306 306 306 307 308 307 307 307 306 306 306 305 305 305 305 305 307 309 311 312 314 318 323 326 337 335 342 344 342 338 335 336 339 339 343 346
311 310 309 308 307 307 307 307 307 307 306 307 306 306 307 305 305 304 304 304 304 304 303 303 303 305 306 309 311 316 323 325 326 327 329 332 336 335 330 328 330 330 332 332
311 311 310 309 307 306 306 307 307 307 306 306 307 307 306 305 303 303 303 303 302 302 302 302 302 302 302 303 305 307 308 309 307 310 310 315 316 318 324 325 321 320 321 322
310 310 309 308 307 306 306 306 306 306 306 306 307 307 306 305 304 303 301 301 301 301 301 301 300 300 300 300 299 300 300 300 300 300 301 300 301 302 303 304 305 305 310 314
311 310 309 308 307 306 306 306 306 305 306 306 307 307 305 304 304 303 302 300 301 301 301 300 300 300 299 297 297 297 297 297 297 297 297 297 297 297 297 297 299 300 300 302
311 310 309 308 307 307 306 306 306 306 306 307 306 305 305 305 304 303 301 300 301 301 302 301 301 301 299 298 297 297 297 296 296 296 296 295 295 296 296 296 296 296 296 297
309 310 309 308 307 307 305 305 305 306 305 306 305 306 305 304 304 304 303 302 302 303 303 302 302 302 302 300 299 298 297 296 296 295 295 295 295 295 294 294 294 294 295 294
310 308 308 307 306 305 304 304 305 303 303 305 305 305 305 304 303 303 303 303 303 302 302 302 303 303 303 302 301 300 300 298 297 296 295 295 294 294 294 294 294 294 293 293
309 306 308 307 305 305 303 303 304 304 302 303 305 305 305 304 303 303 303 302 302 302 302 302 302 301 301 300 301 301 300 300 299 298 298 297 297 296 295 295 294 294 294 294

GFSNGP_925_thetae_063.txt.gz
Theta_e
310 312 313 313 313 313 314 315 317 318 320 325 327 327 330 333 341 346 348 348 345 342 340 348 344 350 351 351 351 354 358 359 358 357 356 355 351 350 343 351 347 354 353 355
316 313 313 314 315 316 314 314 315 316 318 322 323 323 327 329 335 343 346 341 346 345 342 347 344 343 348 351 353 352 356 359 359 358 357 357 356 354 352 346 356 349 356 356
317 316 316 317 316 315 315 314 313 314 315 321 327 323 326 342 343 343 340 339 339 346 345 345 346 346 344 351 353 354 353 357 358 358 358 357 357 356 356 353 351 359 355 355
315 316 318 315 315 317 317 318 318 316 324 323 324 327 329 331 335 337 337 338 339 340 339 343 342 347 350 351 353 352 354 354 357 358 358 358 357 357 356 356 353 352 357 358
316 315 313 313 313 319 318 321 321 322 322 322 323 327 328 326 328 329 330 332 334 334 336 339 345 343 348 348 353 351 354 356 357 357 359 359 358 358 357 357 357 355 356 358
317 316 315 314 316 315 315 318 318 317 318 321 322 328 325 322 325 326 328 329 329 331 333 336 343 348 348 341 344 349 356 357 357 357 358 359 359 357 359 357 357 359 358 359
317 317 315 315 316 315 318 318 317 316 315 316 319 319 319 321 321 324 327 328 328 329 330 335 340 340 358 354 353 354 356 360 359 358 357 359 359 359 358 360 359 358 360 360
318 317 317 314 317 318 316 314 314 314 314 313 315 316 318 319 321 322 323 327 326 327 329 331 333 335 341 349 350 356 354 359 361 361 359 359 359 360 360 359 360 360 360 361
316 316 312 310 312 311 310 310 311 310 311 312 313 314 316 318 319 321 323 326 326 326 326 327 327 329 335 336 339 344 354 357 361 362 362 360 361 361 361 361 361 361 361 361
310 313 310 308 309 309 308 309 308 308 310 310 313 314 317 317 318 321 323 325 326 325 324 325 325 326 327 331 333 337 347 361 361 362 364 362 363 362 362 362 362 362 362 362
310 310 307 309 307 308 308 307 306 308 309 312 315 317 316 317 318 321 320 325 325 326 325 324 324 324 324 325 329 333 341 360 363 363 365 365 363 365 364 364 363 363 363 363
310 307 307 306 306 307 308 307 307 308 311 311 313 314 316 318 319 319 323 322 322 325 323 322 322 321 321 322 325 329 334 349 363 364 365 365 364 363 366 366 365 365 364 365
308 306 306 307 307 306 306 307 307 308 309 310 311 315 317 318 318 320 321 319 320 322 320 319 320 317 318 320 323 326 329 335 345 365 366 366 365 363 358 363 366 366 366 365
308 307 308 307 306 305 305 305 305 307 306 309 309 312 314 315 317 315 314 315 317 317 315 314 314 314 314 317 321 324 326 330 336 347 363 365 366 365 362 357 355 355 364 366
308 308 307 307 307 306 305 304 305 305 305 307 308 311 312 311 310 310 310 311 313 312 310 310 311 311 312 315 320 321 324 326 330 342 354 361 363 364 362 356 356 352 351 357
308 308 308 308 308 306 305 304 304 305 305 306 308 308 308 309 308 308 307 307 309 308 308 308 307 308 310 315 317 317 320 325 326 337 347 354 359 360 362 358 358 350 348 351
309 309 308 308 308 307 305 305 304 305 306 306 306 307 307 307 308 307 306 306 306 306 305 305 306 307 309 311 313 315 319 322 326 343 346 348 351 351 353 356 352 349 347 346
309 308 308 308 308 307 306 305 306 306 306 307 305 305 305 306 306 305 305 304 304 304 303 303 305 306 306 308 311 315 319 325 332 339 346 347 348 347 347 348 347 344 342 342
310 309 309 309 308 308 307 306 306 306 306 305 306 306 305 305 304 304 304 303 303 303 302 302 303 303 303 306 310 312 313 317 320 324 335 332 330 332 335 337 339 343 343 341
312 311 310 308 308 309 308 307 307 307 306 306 307 306 305 304 303 303 302 302 302 302 301 301 301 301 302 302 305 305 306 308 307 309 313 315 326 324 322 324 327 327 329 330
312 311 311 308 307 308 307 306 307 307 307 306 307 306 305 303 302 301 302 302 301 301 301 301 301 300 300 300 300 300 300 301 301 302 302 303 306 306 310 314 312 313 319 321
310 311 310 309 307 307 307 307 307 306 307 307 306 305 304 304 303 301 301 301 301 302 301 301 300 300 299 298 298 298 298 298 298 298 298 298 298 298 299 300 303 311 312 311
310 307 310 308 309 306 306 306 306 307 307 306 306 305 305 304 303 301 301 301 301 302 301 302 301 300 299 297 297 297 297 297 296 296 296 296 296 296 296 296 296 297 299 301
312 311 308 309 307 306 307 307 306 308 306 306 306 305 304 304 302 302 301 302 303 303 302 302 302 301 300 298 297 296 296 296 296 296 295 295 295 295 295 295 295 296 297 298
310 310 309 309 309 307 305 305 305 307 305 306 306 305 304 303 304 303 304 303 303 303 303 303 303 302 301 300 299 298 297 296 295 295 295 295 295 294 294 294 295 295 295 295
311 310 307 308 308 305 305 305 303 304 306 305 305 305 304 303 303 303 303 302 303 302 302 302 302 302 301 300 300 299 299 298 297 296 295 295 295 295 295 295 294 293 293 293
305 305 306 308 307 304 304 304 304 303 305 305 305 305 305 304 304 303 303 303 303 303 302 301 301 300 300 301 301 300 299 298 298 298 297 297 296 296 296 295 294 294 294 294

GFSNGP_925_thetae_066.txt.gz
Theta_e
309 311 311 311 312 313 313 312 311 313 314 317 323 333 342 341 342 344 343 344 345 346 345 344 340 342 343 346 349 352 351 352 351 352 352 350 345 344 346 344 344 345 346 350
314 314 314 315 314 315 314 314 314 312 313 322 325 332 336 338 338 339 340 340 340 339 339 341 343 345 345 347 348 353 353 353 353 352 353 353 351 346 344 343 342 344 345 345
315 313 314 314 313 314 315 318 321 314 321 321 323 328 331 330 331 332 335 339 339 337 336 337 341 343 345 345 348 350 355 355 355 356 354 354 354 352 348 346 344 344 348 348
312 312 315 310 310 312 319 320 320 321 321 320 320 322 321 324 327 329 330 330 330 332 334 336 339 345 346 346 344 351 351 356 357 357 356 356 355 354 352 351 348 345 349 349
313 313 312 313 311 315 316 319 317 317 316 319 317 323 322 318 323 325 327 328 328 329 331 334 339 340 348 348 342 341 344 351 354 358 357 356 356 355 355 354 352 349 348 352
314 315 316 312 315 315 313 317 316 315 315 315 317 320 321 315 318 322 325 327 327 327 330 332 334 335 342 348 344 339 343 346 348 354 357 357 357 356 356 355 355 354 351 350
313 314 316 314 313 314 317 314 312 312 312 312 314 315 314 313 315 319 323 326 326 325 328 329 329 332 336 339 343 343 345 351 354 353 355 356 357 357 356 356 355 355 355 353
316 315 315 311 313 316 313 309 309 309 308 309 309 311 311 312 313 315 322 324 325 325 324 325 326 328 329 331 333 334 337 343 350 356 356 356 357 357 357 356 356 355 356 357
311 316 312 308 308 308 307 306 307 306 307 307 309 309 310 312 313 314 320 322 324 325 323 323 323 325 326 326 328 330 333 341 344 350 358 356 356 357 357 356 357 357 355 355
306 309 309 306 307 305 306 307 307 307 306 306 308 309 312 313 314 314 318 320 323 324 325 324 322 322 323 323 327 330 330 332 339 344 357 358 356 357 357 358 357 357 358 358
305 305 305 307 306 305 306 307 307 306 306 306 310 310 311 311 313 315 318 319 323 322 324 322 320 321 319 320 323 324 327 328 333 343 358 360 358 358 357 358 358 358 357 358
304 304 305 306 306 305 306 305 306 307 307 307 309 309 310 311 315 316 318 321 320 321 320 317 316 316 316 316 318 322 323 326 329 332 342 360 361 360 360 359 359 359 358 359
305 304 304 304 305 306 305 306 305 306 306 308 307 309 310 312 315 317 318 318 317 317 314 312 312 313 312 314 315 319 320 322 324 328 336 354 361 361 358 359 361 360 360 360
304 305 306 306 306 306 306 305 305 305 304 305 307 309 311 312 315 313 312 312 314 312 310 309 309 309 309 312 314 317 318 319 322 326 330 339 358 363 360 359 358 359 363 362
306 305 304 305 305 306 305 304 305 305 304 306 307 308 308 310 309 309 308 309 308 307 307 306 306 307 308 310 313 313 315 317 319 321 326 331 342 358 363 360 358 360 357 362
307 307 306 306 306 305 304 304 305 305 305 304 305 306 306 308 308 306 306 306 306 305 304 304 304 305 307 307 309 311 315 317 318 321 325 331 340 350 358 360 358 356 351 355
306 306 306 306 306 305 304 304 304 305 307 305 305 304 305 306 305 305 304 304 304 304 302 302 303 305 305 306 308 311 312 315 318 325 330 338 342 348 355 357 356 353 349 349
306 306 305 305 305 305 304 304 305 305 306 306 305 304 305 304 304 304 303 302 302 303 301 302 303 304 304 305 308 310 311 312 313 313 321 335 339 345 350 354 352 346 341 342
309 307 307 307 307 306 305 305 305 305 306 305 306 305 304 303 303 302 302 302 302 302 301 302 303 301 302 304 305 308 311 307 307 311 308 317 327 331 331 343 341 340 339 339
310 310 310 308 308 307 307 306 307 307 307 306 306 305 303 302 302 301 302 301 302 302 301 301 301 300 300 301 302 305 307 302 303 306 304 304 307 308 313 322 330 332 332 332
311 311 311 310 307 307 307 306 306 306 306 306 306 305 303 301 301 301 301 301 301 302 300 300 301 299 300 299 299 301 300 299 299 299 300 300 301 303 302 304 307 308 312 321
309 309 308 309 308 305 306 306 306 306 306 306 306 305 304 303 301 301 301 301 301 301 301 300 300 300 299 297 297 297 298 297 297 297 297 297 297 298 299 298 299 302 302 305
309 308 308 308 308 307 305 306 306 306 306 306 305 304 302 302 302 301 301 302 302 302 302 301 300 299 298 296 296 296 296 296 296 296 296 296 296 296 296 298 297 298 297 296
307 307 308 308 308 306 304 305 307 306 306 306 305 304 303 302 302 302 303 303 303 303 302 302 301 299 298 297 296 296 296 296 296 296 296 296 295 295 295 295 295 295 296 296
309 307 306 306 307 304 304 306 306 305 305 305 305 305 304 303 303 303 303 302 302 303 303 302 301 300 299 298 297 297 296 296 295 296 295 295 295 295 295 295 295 295 295 295
306 307 306 306 306 305 305 304 305 305 305 304 304 304 304 303 303 303 303 303 302 302 301 301 302 300 299 299 298 298 297 297 297 296 295 295 295 295 294 294 295 295 294 294
305 306 306 305 304 304 303 305 305 304 304 305 305 304 304 304 303 304 303 302 301 301 301 300 301 301 300 300 299 298 298 298 297 297 296 296 296 296 295 295 295 294 294 294

GFSNGP_925_thetae_069.txt.gz
Theta_e
310 312 313 313 313 313 313 311 312 311 312 322 323 333 333 331 333 337 339 338 337 337 337 340 343 343 342 344 346 347 346 348 348 348 347 345 344 342 338 339 341 342 345 346
313 313 312 313 312 312 313 313 313 316 315 319 321 327 328 327 329 332 332 332 333 335 336 337 338 343 344 343 343 348 348 347 348 348 349 347 345 345 343 341 338 341 342 344
314 311 311 311 312 312 318 321 320 316 320 319 320 323 322 325 325 328 330 329 330 330 333 335 337 341 344 346 345 346 350 349 349 349 349 350 349 347 346 344 343 342 341 341
311 310 311 308 309 312 319 318 317 317 316 317 317 316 317 315 317 324 327 327 328 328 329 331 335 336 341 346 346 346 350 351 350 351 349 350 351 350 349 346 345 345 344 342
311 311 310 312 312 313 316 318 316 315 315 314 314 316 319 313 313 315 321 325 326 325 327 330 331 332 339 345 347 339 342 349 352 352 353 352 352 352 352 350 348 347 346 345
310 312 315 310 314 313 313 317 314 313 313 312 312 317 321 311 311 312 314 320 326 325 325 327 327 328 334 337 338 337 341 345 347 347 355 355 354 353 353 352 352 350 349 348
309 309 312 313 310 312 316 313 311 311 310 309 310 310 309 309 309 310 312 315 323 325 325 323 325 325 329 331 331 331 333 336 342 346 349 351 353 356 355 354 354 353 352 351
313 312 312 309 310 315 311 307 307 308 307 307 307 307 307 308 308 310 311 313 320 324 325 323 323 323 325 327 325 327 331 333 335 338 341 346 355 354 355 355 354 354 354 353
310 310 309 308 307 306 306 306 305 305 304 305 306 306 307 307 307 311 312 313 316 322 324 324 322 321 322 323 322 323 327 331 332 335 337 342 352 355 355 355 355 355 354 354
305 305 307 307 305 305 304 305 305 305 305 305 306 305 305 308 310 310 311 313 315 319 323 324 322 320 319 319 320 319 322 326 329 333 335 340 349 356 355 355 355 355 355 354
302 302 304 306 306 305 304 305 305 305 305 306 305 304 305 307 307 309 310 312 315 319 321 322 320 318 316 316 316 317 319 323 327 330 330 332 337 352 356 355 356 355 355 355
302 301 302 302 304 304 305 306 304 306 306 306 306 306 307 307 308 309 309 312 315 319 320 318 317 315 314 313 313 314 316 319 323 324 326 328 334 340 356 357 356 356 356 356
303 301 302 302 303 304 305 306 305 305 305 306 305 306 306 308 309 311 313 313 318 319 317 314 313 312 311 310 312 314 314 317 318 318 324 327 329 334 346 358 357 357 356 356
302 303 305 304 304 304 305 306 304 304 304 304 305 306 308 310 310 309 311 313 315 314 311 310 309 309 308 308 309 311 314 313 315 317 321 323 324 328 336 350 358 356 358 357
305 303 304 303 304 303 305 305 304 305 305 305 304 305 305 307 307 307 306 306 307 307 305 305 305 305 307 307 307 308 309 311 314 316 319 321 323 325 331 339 355 359 358 358
306 305 304 304 304 304 303 303 303 304 306 305 304 304 304 305 305 305 304 304 304 305 303 303 303 303 304 305 306 306 308 311 313 316 319 322 324 327 331 338 349 357 357 357
307 307 305 305 304 304 304 303 302 304 305 305 304 304 304 304 304 303 303 302 302 303 303 302 302 303 304 303 304 304 308 311 312 313 316 316 319 331 335 339 344 353 356 356
305 304 304 303 303 303 303 304 304 304 304 306 306 305 303 303 303 302 302 302 302 302 302 301 302 304 302 303 304 305 306 308 309 310 311 312 313 319 329 338 344 348 353 352
307 307 306 305 306 305 304 304 305 305 305 305 305 305 302 302 302 301 301 301 301 301 301 301 303 301 301 301 305 303 304 305 305 306 306 308 310 311 314 320 337 347 346 342
310 309 308 308 308 307 306 306 306 305 306 305 305 304 302 301 301 301 301 301 301 301 300 301 300 299 300 300 301 300 300 301 301 302 302 302 303 304 305 309 318 329 334 332
310 310 310 310 309 309 307 306 305 305 306 306 305 304 302 301 300 300 301 301 301 301 300 300 300 300 299 298 297 298 298 298 298 298 301 299 299 301 301 302 305 311 313 312
308 309 310 309 308 308 307 306 305 305 305 306 305 304 303 302 301 301 301 301 301 301 301 299 300 300 299 297 296 296 297 296 296 297 296 296 297 297 298 298 298 299 302 302
307 309 309 306 307 307 307 304 305 305 305 306 305 303 302 302 302 301 300 302 301 301 301 300 299 299 298 296 296 296 296 296 296 296 296 295 295 296 296 296 297 297 296 298
306 306 306 307 306 306 304 305 306 305 306 305 305 304 302 302 302 302 302 303 303 302 301 300 300 298 297 297 296 296 296 296 295 296 296 295 295 295 295 295 295 295 294 295
308 307 308 306 306 305 303 304 305 305 305 305 304 304 304 304 303 303 303 303 301 302 302 299 299 298 298 297 296 296 296 295 295 295 295 295 295 295 295 294 294 294 294 293
306 306 307 306 304 303 303 304 304 304 305 305 304 304 304 304 303 303 302 301 301 300 301 302 300 298 298 298 297 296 295 295 295 295 295 295 295 295 295 295 294 294 293 293
304 304 303 303 303 302 301 303 304 304 304 304 304 303 303 303 303 302 301 300 301 300 300 301 301 300 299 299 298 297 297 296 295 295 294 293 293 295 295 295 294 294 294 295

GFSNGP_925_thetae_072.txt.gz
Theta_e
311 312 312 312 313 313 312 311 311 309 317 322 324 328 326 325 326 329 331 331 332 334 335 336 339 342 343 343 343 343 346 346 346 345 344 344 344 343 343 342 341 341 344 344
313 312 311 312 312 312 312 312 310 312 319 318 320 321 321 320 322 325 328 329 329 330 331 333 336 339 341 343 343 344 344 345 346 346 346 345 344 344 344 343 342 341 341 342
311 310 310 313 311 312 319 320 320 318 319 317 316 321 317 315 315 317 319 323 326 327 327 329 332 334 335 340 345 344 346 345 345 347 347 347 346 345 344 344 344 343 341 340
310 307 307 305 308 310 318 318 317 316 315 315 314 313 314 312 312 312 313 314 318 324 325 326 329 328 333 341 345 345 345 347 347 346 347 347 347 347 346 345 344 343 343 343
310 308 307 311 314 316 317 316 315 315 314 313 311 312 316 311 310 310 310 311 313 317 324 325 324 325 330 335 338 341 341 344 348 347 347 348 348 349 349 346 345 345 344 344
307 311 312 308 313 311 312 314 313 313 311 310 309 314 319 308 307 308 308 309 311 313 320 323 324 323 325 330 331 331 333 336 341 347 349 350 349 349 350 349 349 347 346 346
309 307 310 312 310 311 314 312 310 310 309 308 308 308 307 307 306 307 307 308 311 312 316 321 323 323 322 325 326 327 330 333 337 340 344 348 352 352 350 351 351 351 350 349
308 309 312 309 309 314 309 307 307 306 307 306 306 306 306 306 305 306 306 308 311 312 313 317 321 323 322 322 322 322 326 330 332 336 338 342 344 346 351 354 353 352 352 351
307 307 307 307 307 305 305 305 305 305 304 304 305 305 305 305 305 305 305 308 310 310 312 315 319 322 321 321 319 318 320 325 328 330 332 336 340 341 347 352 354 354 354 353
304 303 304 306 305 304 304 304 304 303 303 304 305 305 305 304 304 304 305 307 308 308 311 314 317 320 322 318 316 315 316 318 323 327 328 330 332 336 341 352 354 354 355 354
301 301 301 303 305 305 304 304 304 304 305 305 306 306 306 305 304 304 306 306 307 308 309 312 317 319 320 316 314 311 313 315 319 323 324 325 328 332 337 345 352 354 355 355
304 301 302 302 303 303 304 304 304 306 306 305 305 306 305 305 306 307 307 307 308 308 309 311 317 318 317 316 312 309 311 314 316 318 319 321 326 330 332 336 347 354 354 355
303 299 301 303 303 303 303 303 306 306 305 305 304 305 305 306 307 306 307 309 311 312 311 313 317 315 314 314 312 308 308 310 314 314 315 319 323 325 328 331 337 348 354 355
301 302 305 303 305 304 303 305 306 306 305 305 305 305 305 305 306 307 306 306 306 307 310 309 308 308 309 308 308 307 307 308 309 311 313 316 320 322 325 328 331 335 344 353
303 302 304 302 303 303 304 304 305 304 305 306 305 304 304 305 305 306 305 304 304 304 305 304 304 304 304 304 304 305 305 306 308 309 312 315 317 320 322 326 329 334 340 348
304 304 303 304 304 303 303 303 303 303 304 306 305 303 303 303 304 304 303 303 303 303 303 303 302 302 302 303 304 303 305 305 307 309 312 314 317 320 323 327 330 333 339 346
306 306 305 305 305 305 304 303 302 303 304 304 306 305 304 302 302 302 302 302 302 302 301 301 302 302 302 304 303 302 303 305 306 307 310 312 314 315 319 327 332 334 338 343
306 305 305 304 304 304 303 303 303 304 303 304 304 305 303 301 302 302 301 300 301 301 300 300 301 303 303 301 301 302 304 304 304 306 309 310 310 310 312 317 321 325 333 339
307 306 305 304 304 303 303 304 304 305 304 304 304 304 302 301 300 300 300 300 300 300 299 299 301 300 300 300 303 303 302 301 303 304 305 305 305 306 307 309 313 317 321 335
310 308 307 307 306 305 305 306 306 305 305 304 304 304 301 300 300 300 300 301 301 301 302 299 299 299 299 299 300 299 299 299 300 300 301 301 301 302 302 304 306 311 318 327
309 308 309 309 309 309 308 307 306 305 305 305 305 304 302 300 300 301 300 301 300 301 300 299 299 298 298 299 297 297 297 297 297 298 298 298 298 299 300 300 301 303 303 305
306 306 309 309 308 308 308 306 306 305 304 305 305 305 303 302 301 301 301 301 301 300 299 299 299 298 297 296 296 296 296 296 296 296 296 296 297 297 297 297 298 298 298 298
307 307 307 306 306 305 305 306 304 304 304 305 305 304 303 302 302 301 301 302 302 302 300 299 299 298 296 294 294 295 296 295 296 295 296 295 295 295 295 295 295 296 295 295
307 307 307 307 307 306 304 305 303 305 305 305 305 303 301 301 302 303 302 302 302 302 300 300 298 298 296 295 293 293 294 294 295 295 295 295 295 294 294 294 294 294 294 294
307 307 307 306 307 307 306 305 303 304 304 305 304 304 303 303 303 303 302 301 301 301 301 300 298 298 297 296 295 293 293 293 294 295 295 295 295 294 294 294 293 293 293 293
304 304 305 305 306 305 304 302 303 304 304 303 303 303 303 303 303 302 300 301 301 301 302 301 300 298 298 297 296 295 294 294 293 293 293 294 294 294 294 294 293 293 293 293
303 302 302 303 302 300 301 303 303 303 304 303 303 303 303 303 302 301 300 300 301 300 300 300 300 299 299 298 297 296 295 295 294 294 292 292 293 293 293 293 292 292 293 292

GFSNGP_925_thetae_075.txt.gz
Theta_e
315 314 314 314 314 313 314 315 319 318 322 330 330 329 327 326 326 326 326 327 329 329 330 332 335 338 343 345 346 346 347 347 347 347 344 344 345 347 347 347 345 344 348 349
315 313 313 313 313 313 313 313 314 315 323 324 325 326 324 321 321 321 320 321 323 326 327 327 330 332 334 338 343 345 345 347 348 348 348 347 346 346 346 347 348 347 348 347
316 314 313 312 313 313 315 320 317 317 321 321 321 323 319 315 314 314 315 316 319 320 323 326 326 328 328 332 342 346 346 346 347 348 349 349 348 348 348 347 348 348 348 348
315 312 313 313 313 312 317 320 321 321 321 318 317 316 316 315 316 314 313 313 314 316 318 321 324 325 325 330 335 343 348 347 348 348 348 350 350 350 349 348 348 348 349 348
317 313 312 312 313 316 315 316 318 319 318 316 315 316 318 315 313 312 312 311 311 312 315 318 321 324 326 327 331 331 336 341 344 347 350 350 350 351 351 350 349 348 348 349
317 314 313 313 315 314 316 315 316 317 316 315 315 318 322 313 311 310 309 310 310 311 313 315 318 321 325 326 328 330 328 328 333 340 343 351 351 351 352 352 351 350 349 349
316 316 313 313 314 314 316 317 314 313 313 313 314 314 312 310 310 309 308 308 308 310 313 313 315 319 323 325 325 324 324 325 328 334 337 341 347 352 353 353 353 353 353 352
317 318 317 313 313 316 314 312 311 310 309 310 310 309 309 309 309 308 308 307 308 309 311 311 312 316 320 322 324 323 322 321 324 328 332 335 339 342 346 352 353 353 354 355
317 316 313 311 311 310 309 309 309 309 307 307 308 308 308 308 308 307 307 307 307 308 309 310 310 313 317 320 322 322 319 318 320 322 327 330 333 338 344 346 349 353 355 355
311 311 313 313 310 308 308 309 308 307 307 307 307 307 307 308 307 307 307 307 306 307 308 309 310 311 313 318 321 319 319 317 318 319 323 326 328 332 335 340 345 348 353 356
312 309 308 309 308 308 308 308 307 307 307 306 307 307 306 307 306 307 308 308 308 308 308 309 309 310 312 315 319 317 317 316 317 318 320 322 325 325 331 335 337 345 350 354
316 312 310 309 309 309 308 308 308 307 306 307 306 307 306 306 306 306 307 309 309 309 310 310 312 313 313 315 317 315 315 316 316 315 316 319 317 321 325 327 328 330 336 340
311 309 309 309 309 308 308 308 307 307 307 307 307 306 306 306 306 306 306 306 306 306 306 308 307 310 313 312 310 311 313 313 313 313 315 315 317 320 322 325 326 328 331 336
307 306 308 308 310 307 307 308 307 308 308 307 307 306 305 305 305 305 305 305 305 304 304 305 305 305 306 306 307 308 309 308 308 311 313 314 315 317 319 322 326 327 330 331
307 308 309 310 309 308 307 308 309 310 308 308 307 306 305 305 305 304 304 303 303 303 303 303 303 304 303 304 305 306 307 306 306 307 309 310 312 315 317 320 322 326 328 332
307 307 307 309 310 310 309 309 309 310 308 307 307 306 306 305 304 303 303 302 302 302 301 301 301 301 302 303 304 305 306 305 305 306 307 308 310 313 315 319 322 324 327 331
308 308 308 309 310 310 310 309 309 309 308 308 307 307 307 306 304 303 302 301 301 301 300 301 300 301 303 303 303 304 304 305 305 306 306 306 308 311 313 315 317 320 326 330
310 309 309 310 311 310 310 308 308 308 308 308 308 307 307 305 304 302 302 301 301 301 301 301 301 300 300 301 302 301 302 303 304 305 305 306 308 309 310 311 312 315 318 323
311 309 309 308 308 308 308 308 308 308 308 307 307 307 307 305 303 301 301 301 302 302 302 301 301 299 298 299 301 301 302 303 303 304 305 306 306 307 307 308 309 310 311 313
312 312 311 310 309 308 308 308 308 308 308 307 307 307 306 305 303 302 303 302 302 302 301 300 300 299 297 298 299 298 298 299 300 301 302 302 303 303 303 303 303 304 305 310
312 311 311 312 312 311 309 309 309 309 308 307 307 308 307 304 303 303 303 304 303 301 301 300 300 299 297 297 295 296 297 297 298 298 298 299 299 300 299 301 300 300 301 302
311 310 310 310 311 312 311 310 309 308 307 307 308 308 306 305 304 303 303 303 303 303 302 301 299 299 297 295 293 293 294 295 296 296 296 296 297 297 297 297 297 297 297 298
309 310 310 311 310 310 308 308 307 306 307 308 308 307 305 304 304 303 304 304 304 303 301 302 299 298 297 295 293 292 291 293 294 294 295 295 295 295 295 295 295 295 295 295
309 309 308 308 307 307 309 308 306 304 306 307 308 307 305 304 304 304 304 303 302 302 301 301 299 298 297 296 294 293 291 291 291 292 293 294 294 294 294 294 294 294 294 294
305 307 308 308 308 308 306 305 304 304 305 307 307 306 304 305 304 304 304 303 301 301 302 300 300 298 298 297 296 294 293 292 291 291 292 292 293 292 293 293 294 293 293 293
306 306 306 306 303 305 305 304 304 305 305 306 306 305 305 305 305 304 302 301 302 301 302 302 300 300 300 298 297 296 294 292 292 292 292 291 292 292 292 291 292 292 292 293
305 305 305 304 303 302 304 305 305 304 304 305 305 304 304 304 304 303 302 301 301 301 301 301 301 300 300 299 298 298 297 296 293 292 291 291 291 291 291 291 291 291 291 291

GFSNGP_925_thetae_078.txt.gz
Theta_e
319 318 319 318 318 318 322 324 328 328 337 336 335 333 332 331 330 329 328 328 329 330 329 329 330 332 335 340 344 350 349 349 350 351 351 350 349 350 351 353 353 353 351 351
320 317 317 317 317 317 316 318 322 326 332 331 331 329 326 325 324 324 323 323 324 325 326 328 328 328 328 330 336 346 349 350 351 350 351 352 351 348 351 352 353 353 353 351
319 316 315 315 316 316 317 318 319 323 328 327 329 327 324 322 322 320 319 319 319 319 320 322 325 326 328 328 333 336 347 351 349 350 352 352 353 353 352 352 353 353 353 353
319 316 315 318 317 316 317 320 320 324 324 324 323 322 321 322 322 321 320 318 317 316 317 318 320 322 326 329 330 332 331 335 340 348 351 351 352 353 353 354 353 353 353 354
318 316 316 315 315 316 319 321 320 322 321 321 320 320 322 319 318 318 317 316 316 315 316 317 318 318 322 326 330 331 330 329 330 335 341 349 352 352 352 354 353 354 353 354
316 318 317 319 318 317 317 322 320 320 320 319 319 319 326 318 315 315 314 314 314 314 314 316 316 316 319 322 325 329 329 328 327 331 333 337 344 350 351 353 354 355 354 354
318 319 316 317 317 316 315 323 319 319 319 318 318 319 317 315 315 314 313 313 312 313 314 315 315 315 317 320 322 325 326 326 326 326 328 333 336 340 347 353 353 353 354 354
320 320 321 317 316 317 320 318 316 315 315 315 315 314 314 314 314 313 312 312 312 312 312 313 314 314 316 317 320 323 324 324 325 326 325 328 334 336 337 345 349 354 355 355
318 320 319 317 318 316 315 315 314 313 312 312 312 312 312 313 312 312 312 312 312 311 311 312 313 313 314 315 316 319 322 323 323 324 325 325 328 333 335 339 345 349 351 352
316 315 317 316 315 314 312 312 312 311 311 310 311 311 312 312 311 311 311 311 312 313 312 312 312 313 313 314 314 316 320 321 321 321 322 324 325 327 332 334 337 341 346 350
316 315 312 314 314 312 311 311 310 310 309 309 310 311 311 311 311 310 310 310 310 311 310 309 309 310 312 315 316 316 318 320 319 319 320 321 322 324 324 324 328 331 335 338
316 314 314 313 313 312 312 311 310 310 310 309 309 310 309 308 307 307 308 309 309 308 309 309 309 309 310 311 312 317 318 317 317 318 318 318 319 321 321 321 321 321 324 325
315 314 313 312 312 311 311 311 309 309 309 309 309 309 308 308 307 306 306 307 307 307 306 306 306 307 308 309 309 309 311 315 315 316 317 317 318 319 320 321 321 321 322 326
313 312 313 312 312 311 310 310 309 309 309 308 308 308 308 307 306 305 305 305 305 305 305 304 304 304 304 306 307 308 308 309 312 314 314 315 316 318 318 319 320 321 321 323
310 311 311 312 311 311 310 310 311 311 310 309 309 309 308 308 308 306 304 305 304 304 303 304 304 304 303 303 304 305 307 308 310 312 313 313 313 314 315 316 317 319 321 322
311 310 310 312 312 311 311 311 311 311 310 309 309 309 308 308 308 306 305 304 304 304 304 303 303 302 303 303 302 303 304 305 306 308 310 311 312 313 314 315 315 318 320 322
311 310 311 311 311 312 311 310 310 310 309 309 309 309 309 309 308 306 305 304 303 303 304 304 303 303 303 301 300 300 301 303 304 306 309 310 311 310 311 312 314 315 317 319
310 311 310 310 310 311 312 311 310 310 309 309 309 309 310 309 307 306 305 304 305 304 303 303 302 302 301 300 300 300 301 301 302 303 304 306 308 309 310 310 312 313 315 317
310 311 312 311 311 311 311 311 310 310 309 310 309 310 309 309 307 306 305 304 305 304 304 302 302 301 301 300 299 299 299 299 300 301 303 304 305 306 308 309 310 312 313 314
314 313 312 312 312 312 311 311 310 310 309 310 309 309 310 309 307 306 306 306 305 304 304 304 302 302 300 299 297 296 295 296 297 298 299 301 302 304 306 307 307 308 309 309
314 313 313 313 313 313 312 312 311 311 310 310 309 309 309 309 306 306 306 306 305 305 304 303 302 301 300 298 295 294 293 293 295 296 297 298 299 300 301 302 303 304 304 303
313 313 313 312 312 312 312 312 312 311 311 309 309 309 309 308 307 306 306 306 305 304 304 304 302 299 298 297 296 294 293 292 292 293 294 296 296 297 298 298 299 300 299 299
312 311 311 312 312 311 311 312 312 312 310 309 309 309 309 307 306 306 306 306 304 304 303 303 301 299 298 299 296 295 294 293 292 291 291 293 294 295 295 295 296 296 295 295
309 309 309 310 310 309 308 308 309 310 309 309 310 309 308 306 305 305 305 305 303 302 302 303 301 299 299 300 298 296 294 294 293 291 290 291 291 291 292 294 294 294 294 294
308 308 308 309 309 307 305 305 305 307 308 308 308 308 307 305 305 305 305 304 303 301 303 303 301 301 301 301 300 297 295 294 293 292 290 290 290 290 290 291 291 293 293 293
307 308 307 307 307 305 306 305 305 305 307 307 307 306 306 306 306 305 304 303 303 302 302 302 302 302 302 301 301 299 297 296 294 293 291 291 291 291 290 290 291 290 290 291
306 305 306 306 306 306 305 304 304 304 305 306 306 306 305 305 305 304 303 303 302 302 301 301 301 300 300 300 301 300 299 299 296 294 292 291 291 290 290 290 290 290 290 290

GFSNGP_925_thetae_081.txt.gz
Theta_e
323 323 324 325 325 324 327 329 331 343 344 342 340 339 339 338 335 333 334 332 330 332 331 331 332 331 332 338 343 347 352 353 354 354 354 354 355 355 354 354 355 356 355 352
322 320 321 321 321 321 324 325 328 337 341 338 336 334 333 332 331 330 329 328 328 329 329 328 329 330 331 332 337 340 343 347 350 352 353 356 355 355 354 354 355 356 356 355
321 321 318 319 320 320 321 322 327 336 338 335 333 330 329 328 327 326 325 324 324 324 324 325 325 326 329 332 333 333 334 335 340 345 350 352 354 356 356 355 355 356 357 357
321 322 320 322 320 319 320 321 324 332 333 332 331 327 327 326 326 325 324 324 322 320 321 322 321 322 325 329 334 332 331 330 330 335 342 346 351 353 353 356 356 355 356 357
321 322 320 319 319 318 319 323 323 328 327 327 326 325 326 322 322 322 321 320 320 319 319 321 320 320 322 325 327 333 332 332 330 330 334 338 343 344 351 353 352 354 355 356
321 321 321 322 320 320 319 325 322 324 324 323 322 325 328 321 319 319 318 318 317 317 318 319 319 319 320 321 324 326 327 329 331 331 330 333 335 340 341 348 354 355 355 352
320 321 321 322 320 318 320 326 322 322 322 321 321 325 321 319 318 317 317 316 316 316 317 317 318 318 320 320 322 322 324 326 327 328 330 329 330 335 336 340 347 354 356 355
321 322 322 320 318 319 325 322 321 321 319 319 319 318 317 317 316 316 316 316 315 315 316 316 316 317 318 319 320 320 320 323 326 326 326 328 330 331 336 338 341 346 351 352
321 327 323 320 321 322 321 320 318 318 317 316 315 316 316 316 316 316 315 316 315 316 316 316 317 317 317 318 318 319 319 320 322 325 325 325 325 329 331 335 339 339 345 347
319 320 321 319 319 318 317 317 317 316 315 314 315 315 315 315 315 315 315 314 313 314 314 314 313 313 314 314 315 317 320 320 320 322 323 322 324 324 326 329 332 334 337 338
317 318 316 318 318 317 315 314 314 314 313 312 312 313 314 314 314 313 312 312 311 311 311 311 311 311 311 313 313 314 315 317 320 321 321 321 322 321 323 324 326 325 325 326
319 318 318 316 317 316 314 313 313 313 312 311 312 314 312 312 311 311 311 310 311 310 310 309 308 308 309 310 310 311 313 313 316 317 318 319 320 320 320 320 320 320 321 321
319 318 317 315 315 314 314 314 313 312 312 312 312 311 311 311 310 308 309 309 309 309 308 307 307 306 306 306 307 308 309 310 312 313 315 316 317 318 319 319 319 320 320 321
318 317 317 315 315 314 313 313 311 311 311 311 311 311 311 310 309 309 308 308 307 307 306 306 306 306 305 305 305 306 307 307 308 311 312 313 315 316 317 318 319 319 320 320
318 316 316 314 315 314 313 312 313 312 312 311 311 310 310 310 309 308 308 307 307 306 306 305 305 305 305 305 305 304 304 305 305 307 308 310 312 314 315 316 316 317 317 318
316 316 317 314 314 314 314 313 313 313 312 311 310 310 309 310 310 308 308 306 306 306 306 305 305 305 304 304 303 303 303 303 303 303 305 307 308 311 313 315 315 316 317 318
317 316 315 314 312 313 313 313 312 312 311 311 311 310 309 309 309 309 308 307 306 306 305 305 305 304 304 303 302 302 302 302 302 303 304 304 305 307 309 312 314 315 315 316
314 313 312 311 312 313 313 312 311 310 311 310 310 310 310 310 310 309 308 307 307 306 306 305 305 304 303 303 302 301 301 300 300 301 301 302 303 304 304 305 308 311 312 313
313 313 312 312 311 312 311 311 311 311 311 311 310 310 310 310 310 309 308 307 307 307 306 305 304 304 303 302 300 299 298 298 297 297 298 299 299 301 302 303 305 307 308 310
314 314 313 313 312 312 312 312 312 312 311 311 311 310 310 309 309 309 308 307 307 307 307 306 305 304 302 301 299 298 297 296 295 295 295 296 297 298 299 300 302 304 306 307
314 314 314 314 314 313 313 314 313 312 312 311 311 311 311 310 310 309 308 308 307 307 306 304 305 303 302 300 299 298 297 296 295 294 293 293 295 296 297 298 299 300 301 303
314 314 314 313 313 313 312 313 314 313 313 312 311 311 311 310 310 308 307 307 307 306 305 305 304 302 300 299 301 299 297 296 295 294 293 292 292 293 295 296 297 298 299 299
312 312 311 311 311 311 312 312 313 313 314 314 313 311 311 310 309 308 308 307 307 305 304 304 304 301 300 301 302 301 299 298 296 294 292 292 291 291 291 292 294 295 295 296
309 309 309 309 310 310 311 310 309 309 311 311 313 311 310 310 308 307 306 306 305 304 304 303 303 301 300 302 303 301 299 298 297 294 292 292 291 291 290 290 291 293 294 294
308 308 309 309 310 310 309 309 309 309 308 306 309 310 310 309 307 306 307 306 305 304 304 304 303 302 302 303 304 303 301 299 297 296 293 292 291 290 290 289 289 290 291 291
307 308 308 308 308 308 308 306 306 306 308 308 308 308 308 306 306 306 306 305 306 304 304 304 303 304 303 302 302 303 302 300 298 298 295 293 291 290 290 289 289 289 290 290
307 306 307 307 308 307 307 306 304 304 304 303 306 306 307 306 306 305 305 306 305 304 304 303 302 302 301 301 302 302 301 301 299 298 297 294 293 291 291 290 290 290 289 289

GFSNGP_925_thetae_084.txt.gz
Theta_e
329 324 326 326 326 327 329 330 348 348 347 347 346 344 341 338 337 336 334 334 334 333 332 333 334 333 334 337 338 342 346 348 349 353 357 357 357 355 357 357 357 357 357 355
324 322 324 325 325 326 326 328 335 339 345 340 339 339 338 336 334 333 332 331 331 332 330 330 331 332 333 334 333 336 338 339 344 349 351 353 353 354 355 356 357 358 358 358
326 322 321 324 324 323 324 325 341 347 342 338 337 335 333 331 330 329 328 327 327 327 327 326 327 329 332 334 332 332 332 333 336 341 345 347 351 353 354 354 354 356 358 359
324 324 324 323 322 321 322 323 333 340 339 335 333 331 330 329 328 328 326 325 324 324 324 323 323 325 328 332 334 333 333 332 331 331 337 341 344 345 350 352 353 354 355 357
323 323 323 322 321 320 321 322 330 337 336 332 329 329 327 326 324 324 323 322 321 321 323 323 322 322 323 325 329 329 330 333 334 333 331 334 338 339 341 343 349 353 354 355
323 322 323 324 321 321 319 323 325 330 332 331 329 331 327 323 322 321 320 320 319 319 320 321 321 321 322 323 325 325 325 328 329 330 332 333 332 334 337 339 341 344 349 353
322 322 324 323 320 319 320 325 325 327 327 326 327 327 324 322 320 319 319 318 318 318 319 319 319 320 321 322 323 322 322 323 326 328 328 328 331 333 333 337 339 341 344 347
320 322 325 322 319 320 328 325 323 325 324 325 324 323 321 320 319 318 318 318 317 318 318 318 319 319 320 321 321 321 322 322 322 324 327 327 327 329 328 334 338 341 341 344
325 330 324 323 326 324 323 323 322 322 320 320 319 318 318 318 318 317 318 317 317 317 319 319 317 316 317 317 317 317 318 319 323 323 323 326 326 324 328 329 332 340 342 342
322 325 324 322 322 321 321 320 319 319 317 316 317 317 317 317 317 317 317 316 315 315 315 315 315 314 314 313 314 314 315 317 317 318 322 322 323 324 325 324 327 331 331 330
319 320 319 319 319 319 317 317 317 316 316 316 316 315 316 316 317 315 315 314 313 313 313 313 312 311 311 311 312 311 312 313 315 316 317 319 321 323 323 322 321 322 323 323
320 319 321 320 319 319 317 315 315 315 314 313 313 316 314 314 313 313 313 312 312 312 312 311 310 310 309 308 308 309 309 310 311 312 313 315 316 318 318 319 320 319 319 320
321 320 319 318 317 317 316 315 314 314 314 314 313 314 313 313 312 309 311 310 310 310 310 309 309 307 307 307 307 307 307 307 308 309 310 312 314 316 317 317 317 317 318 319
319 320 319 317 316 316 315 314 313 313 313 313 313 313 313 313 309 311 310 309 310 309 308 308 307 307 306 306 306 306 307 306 307 307 307 308 310 311 312 314 317 319 319 318
318 317 318 316 316 317 314 314 315 313 313 313 312 312 312 312 312 311 310 309 309 308 307 307 307 307 306 305 305 305 305 305 304 305 305 306 305 307 309 311 313 315 317 318
316 316 317 317 318 315 315 315 315 314 313 313 313 312 311 311 311 311 310 309 308 308 307 307 307 306 306 306 305 304 303 303 303 303 304 304 305 306 306 306 308 310 313 315
317 318 318 317 317 317 315 315 314 314 314 313 313 312 311 311 311 311 310 309 308 307 307 306 306 306 305 305 304 302 302 302 302 302 302 302 302 302 303 303 305 307 307 308
315 316 315 315 316 316 315 314 313 313 313 312 312 312 312 311 312 311 311 309 308 307 307 307 306 306 305 304 303 301 301 300 299 299 299 298 298 298 299 300 301 302 303 305
315 315 315 314 314 314 313 313 313 312 311 312 312 312 313 312 312 311 310 309 308 308 308 307 306 305 305 303 302 301 300 299 298 297 297 296 297 297 297 298 298 299 300 302
315 315 315 314 313 313 314 313 313 313 312 312 313 312 312 313 312 310 310 309 308 308 308 307 306 306 305 304 301 301 300 299 298 297 296 295 295 294 294 295 296 296 298 299
315 316 315 314 314 314 313 313 313 313 312 313 313 313 313 313 312 311 309 309 309 308 308 308 307 305 305 303 301 301 301 300 299 298 296 295 294 293 292 293 294 294 295 296
313 314 314 314 314 315 313 312 313 314 314 312 314 313 314 312 312 311 310 310 309 308 308 307 307 306 305 302 301 302 302 300 300 299 296 294 293 292 292 291 291 292 292 294
310 309 309 310 310 311 310 312 313 313 313 313 313 314 314 313 311 312 311 309 308 307 307 307 306 305 304 301 303 303 303 302 301 299 297 295 293 292 291 291 291 291 291 291
309 308 309 309 309 309 311 312 311 311 311 310 311 314 314 312 309 309 310 309 308 308 307 305 304 304 302 303 304 305 304 302 301 299 297 294 293 292 291 291 290 290 290 290
308 309 309 309 309 309 310 310 309 308 309 310 310 311 312 311 310 307 308 308 307 306 306 306 305 303 303 304 305 304 304 304 302 300 298 295 294 292 291 290 290 289 289 289
309 308 308 309 309 309 309 308 307 307 308 309 309 309 309 309 308 306 307 307 307 306 306 305 305 305 305 304 304 302 304 304 302 300 299 297 295 293 292 291 290 289 289 288
308 307 308 308 308 307 308 306 306 306 305 305 305 306 305 305 306 307 306 306 307 306 305 305 304 303 303 302 302 303 303 303 302 301 299 299 297 294 293 293 292 291 290 289

GFSNGP_925_thetae_087.txt.gz
Theta_e
328 329 328 325 325 326 327 343 350 349 352 349 344 340 338 336 336 337 334 333 333 334 334 335 335 337 337 340 342 344 342 342 339 340 349 353 354 358 357 356 357 355 354 354
330 328 323 323 325 326 326 340 344 345 349 343 340 338 338 336 334 334 334 332 330 331 331 332 334 335 334 336 339 337 341 343 345 340 349 351 353 354 355 355 354 357 356 356
328 323 322 325 324 323 327 340 343 347 345 342 340 335 333 330 328 328 328 327 326 326 327 328 332 334 334 332 333 334 332 333 336 344 342 344 346 350 352 352 354 355 355 355
326 324 327 323 320 321 323 341 340 340 339 338 332 329 327 326 325 325 324 323 323 323 323 323 323 329 334 334 333 333 332 333 333 332 335 338 340 341 342 346 350 352 352 353
324 322 323 323 322 321 330 342 339 339 335 331 329 327 325 324 323 322 320 321 323 323 321 322 322 323 326 325 324 324 324 328 330 330 331 332 331 332 335 339 341 344 349 351
325 326 326 324 320 318 321 342 336 331 330 329 327 328 325 320 320 320 319 319 319 321 320 319 320 322 323 323 322 322 322 322 323 328 328 329 332 332 331 331 335 338 339 343
322 325 326 322 319 318 323 331 332 329 328 327 325 324 320 319 319 319 318 318 318 319 319 320 320 321 322 320 319 320 321 323 322 322 324 327 326 326 326 325 332 333 339 339
321 325 329 327 325 329 328 322 324 325 324 322 321 321 320 318 317 318 318 318 319 320 318 317 317 317 317 317 317 317 317 318 319 321 323 322 324 326 323 324 328 329 336 341
330 328 325 324 324 322 320 322 320 319 320 320 319 319 318 316 316 318 317 316 317 317 316 315 314 314 313 314 313 314 313 314 315 315 318 319 321 323 323 325 324 328 328 328
326 326 324 323 321 321 320 319 319 316 315 315 316 316 316 315 316 317 315 314 315 314 314 313 312 311 311 310 310 310 310 311 312 312 313 315 316 316 318 319 321 321 320 321
320 323 321 322 321 319 317 319 317 317 315 316 315 316 315 315 315 315 314 314 313 313 313 310 310 309 308 308 308 308 309 309 309 309 309 311 312 314 315 315 316 317 317 318
322 322 321 322 319 318 317 316 316 315 314 313 316 314 315 313 314 314 313 313 312 312 311 310 309 307 307 307 306 306 307 307 307 307 308 309 310 310 311 312 314 316 318 318
322 320 319 319 318 319 318 315 315 314 313 312 315 314 314 313 312 311 311 311 311 310 309 308 308 307 306 306 306 306 306 305 306 306 305 306 306 306 306 306 308 310 312 314
318 319 320 319 318 316 316 315 314 314 314 313 314 313 314 312 310 311 310 310 309 309 308 308 307 307 306 305 305 305 305 304 304 304 304 305 305 306 306 306 306 307 308 309
318 317 317 317 315 315 317 316 314 314 314 313 314 313 314 310 310 312 310 309 308 308 307 307 307 307 306 306 305 304 303 303 303 303 303 303 304 304 303 303 304 304 305 306
316 316 316 317 317 317 314 315 315 313 313 314 313 313 313 312 312 311 310 309 308 307 307 307 307 306 306 305 304 302 302 302 301 301 301 300 300 301 301 301 301 301 301 302
317 318 317 317 316 316 316 314 315 315 313 313 314 313 312 312 312 311 310 309 308 308 307 306 307 306 304 304 304 301 301 300 300 298 298 298 298 297 297 298 298 299 299 299
315 315 315 315 315 315 315 314 313 314 313 313 315 313 311 312 311 311 311 310 308 307 307 306 306 306 305 305 304 301 300 300 299 298 297 296 296 296 296 296 296 296 296 297
316 316 315 315 314 314 314 315 314 313 313 313 313 313 312 312 312 312 311 311 308 307 307 307 307 307 305 305 304 301 300 300 299 298 298 296 295 295 294 294 293 293 294 294
317 316 315 315 315 314 314 314 313 313 312 312 312 312 313 313 312 312 313 311 309 308 308 308 307 307 306 305 304 301 301 300 300 299 298 297 296 294 293 293 292 292 292 293
315 315 315 315 315 314 314 314 314 314 314 313 313 313 312 312 313 312 313 311 309 308 309 308 307 306 307 305 304 301 301 301 300 300 299 298 296 295 293 292 292 292 291 291
312 311 310 311 312 313 313 313 313 313 313 313 312 309 311 312 313 313 312 311 310 308 308 308 308 307 306 305 303 302 302 302 302 301 300 299 297 295 293 292 291 291 290 290
310 310 309 310 311 310 310 311 312 312 313 312 312 310 311 311 310 312 312 311 310 310 309 308 308 307 306 306 304 302 303 303 302 302 301 299 297 295 293 292 291 291 289 289
309 309 311 310 309 309 311 310 310 310 310 310 310 310 311 312 312 312 311 311 310 310 308 307 307 307 307 306 304 302 304 305 304 303 301 300 297 295 293 292 291 291 290 288
309 310 310 309 309 310 310 309 308 308 308 310 309 309 310 311 312 310 308 308 308 308 308 307 306 305 304 303 303 303 304 305 304 304 302 300 298 296 294 292 292 291 290 289
308 309 309 309 308 308 308 306 307 306 306 308 307 307 307 308 308 308 307 307 306 307 306 307 307 305 303 304 304 305 305 304 304 303 302 300 299 298 297 294 293 293 292 290
307 308 307 308 308 307 307 307 307 306 305 306 305 305 305 305 305 307 306 306 307 306 306 306 305 305 305 304 304 303 302 303 303 302 301 300 300 299 298 296 295 294 294 292

GFSNGP_925_thetae_090.txt.gz
Theta_e
322 324 326 326 325 322 328 334 341 351 349 348 343 341 341 339 338 336 336 337 336 336 336 337 339 340 342 344 346 343 342 344 341 344 349 350 351 352 354 353 353 353 354 353
324 325 322 321 321 322 335 343 348 347 348 341 337 337 337 338 335 333 333 332 332 333 333 334 336 338 340 341 342 342 342 342 342 343 346 346 350 352 352 353 354 354 355 355
327 324 320 320 320 325 338 343 347 349 345 338 339 337 336 334 333 332 328 326 326 327 331 333 334 335 336 336 336 338 339 340 342 343 342 342 344 345 348 349 352 352 352 353
326 322 326 320 319 333 342 343 342 343 341 339 336 331 327 324 326 326 325 322 321 321 322 328 333 333 333 333 333 333 333 333 333 335 339 339 337 337 340 340 343 347 350 352
328 325 319 321 320 320 334 342 342 341 335 330 327 325 324 321 319 318 319 320 320 320 321 324 329 325 323 322 322 322 323 324 328 328 329 333 332 331 330 332 335 338 340 343
323 328 328 322 319 318 329 342 335 331 329 327 326 328 324 319 317 316 319 320 319 319 320 321 322 321 321 319 319 319 321 322 323 323 325 326 326 327 327 324 328 331 336 339
321 322 326 324 325 323 328 331 328 329 327 326 324 322 319 317 317 317 318 318 319 319 318 319 318 319 317 316 316 317 317 319 320 320 321 321 323 325 325 323 326 331 334 340
319 322 324 323 324 327 323 321 325 322 320 322 320 318 317 316 314 316 317 318 317 316 315 315 315 315 313 313 313 314 314 314 315 316 316 318 320 322 322 323 324 322 328 329
324 324 320 318 319 319 318 321 320 321 319 320 319 317 315 315 314 314 316 316 315 314 313 312 312 312 310 310 311 311 311 311 312 313 313 314 315 315 316 316 316 316 317 318
322 322 320 318 316 317 317 315 315 317 318 315 315 314 315 314 313 312 313 314 314 312 311 310 310 310 308 308 308 308 308 308 308 308 309 310 312 312 312 312 311 312 313 313
318 319 319 319 316 315 317 316 314 313 314 313 314 313 314 312 312 312 313 313 313 311 310 309 309 308 307 307 306 306 306 306 307 307 307 306 306 306 307 306 308 309 310 311
317 316 315 316 317 315 315 315 313 312 312 314 314 312 312 311 312 313 312 312 312 310 309 309 307 306 306 305 305 305 305 305 304 304 304 305 305 305 305 305 305 306 305 306
317 316 316 316 317 315 314 313 312 310 312 312 313 312 312 311 311 312 312 311 310 310 309 308 307 306 306 305 304 304 304 304 303 303 303 303 304 303 303 302 301 301 301 301
315 315 316 315 314 313 314 313 314 312 311 313 313 312 312 311 310 310 310 310 310 309 308 307 307 306 305 305 305 303 303 303 302 302 302 302 301 300 300 300 300 300 299 299
314 314 314 315 315 313 313 313 311 311 311 311 313 312 311 309 309 310 310 310 309 308 307 307 306 306 306 306 304 302 303 301 300 299 298 297 297 297 297 297 297 297 297 298
314 313 313 315 315 314 314 313 311 310 310 311 312 311 311 311 310 310 309 309 308 307 307 306 307 306 305 305 303 302 301 299 298 297 297 296 296 295 295 295 296 296 296 296
314 314 314 315 314 314 314 314 313 312 311 311 311 312 312 311 309 310 309 309 308 307 307 306 306 306 305 305 304 301 300 299 299 298 297 297 296 295 294 294 294 294 294 294
312 311 312 312 312 312 311 314 314 313 314 313 313 312 312 310 310 309 309 308 308 308 307 306 306 305 305 304 304 301 300 300 299 299 299 298 297 296 295 293 293 293 293 293
313 313 313 313 313 312 311 312 314 313 312 313 313 313 311 311 311 310 310 308 308 307 307 306 305 306 306 305 304 302 300 300 300 300 299 299 298 297 296 294 292 292 292 292
315 315 314 314 314 314 313 313 313 313 313 312 312 312 312 312 310 310 310 309 309 309 308 307 306 306 306 306 306 304 301 300 300 300 300 299 299 298 296 294 292 292 291 291
313 313 314 314 314 314 313 314 313 313 313 312 312 312 312 312 311 311 310 309 310 309 309 308 307 307 307 306 305 305 301 301 300 300 301 301 300 299 296 295 293 292 291 291
309 309 310 310 310 309 311 311 311 312 313 313 312 312 311 311 311 311 312 311 311 311 309 308 308 308 307 306 306 305 303 301 301 301 301 301 301 299 297 295 293 291 291 290
308 308 308 308 308 308 310 309 309 310 310 311 311 311 311 311 309 309 310 311 311 310 309 308 308 308 307 306 306 306 303 301 302 302 302 302 302 300 297 296 293 292 291 291
308 309 308 308 309 309 308 308 309 308 308 309 309 309 310 310 310 310 307 309 310 311 309 309 308 308 308 307 306 305 304 303 302 304 304 303 303 301 299 297 295 292 291 291
309 308 308 307 307 307 308 307 306 305 306 308 307 307 307 308 310 310 310 309 310 309 308 308 308 308 308 308 307 306 305 304 303 304 304 304 303 301 299 298 296 295 293 292
308 308 308 307 307 307 306 306 305 306 308 307 306 306 306 307 308 309 309 309 309 309 309 307 306 306 306 306 305 304 304 303 303 304 305 303 301 300 300 299 298 297 295 294
307 307 307 307 307 306 306 306 305 305 306 305 305 304 304 305 306 306 306 306 305 306 305 304 305 306 306 306 305 304 303 304 303 302 302 302 301 300 300 299 299 298 296 295

GFSNGP_925_thetae_093.txt.gz
Theta_e
321 321 322 324 325 320 321 325 337 344 349 348 344 343 344 342 340 340 340 339 339 339 339 340 341 342 345 345 345 344 343 343 342 342 345 346 348 349 347 349 352 351 351 352
325 325 322 321 320 321 336 345 345 345 348 343 339 340 341 337 336 338 337 337 337 336 337 338 338 339 342 342 343 343 343 342 342 342 342 342 343 345 347 348 348 350 351 352
327 324 322 319 319 318 335 344 344 346 342 338 340 340 338 334 332 333 332 332 333 334 335 334 335 336 336 338 340 340 340 340 341 342 341 340 341 341 341 341 342 346 349 350
327 324 326 319 320 323 345 344 341 340 339 339 338 336 333 330 328 327 326 323 322 323 330 332 333 333 332 332 331 332 333 333 334 336 339 339 338 339 339 339 338 338 342 345
329 327 323 321 320 322 322 345 340 339 337 333 327 326 324 325 324 323 321 320 319 322 325 324 323 322 322 322 323 323 323 323 326 330 332 329 331 331 326 327 332 332 334 339
328 331 332 324 323 323 329 345 339 337 330 327 327 329 324 320 320 320 318 318 320 321 321 321 320 320 319 318 319 318 319 319 321 323 323 323 325 325 323 324 328 330 333 342
326 327 328 324 323 321 327 333 331 330 328 327 326 322 318 315 318 317 317 318 319 320 318 318 318 319 316 315 314 314 315 317 318 318 318 320 322 323 323 324 334 336 332 328
316 321 326 321 322 321 320 323 328 327 326 323 321 319 316 314 316 317 316 315 316 314 314 315 316 316 313 312 311 312 312 313 313 314 315 316 317 317 318 318 318 317 318 317
321 322 319 318 318 317 319 320 321 322 323 321 320 317 315 316 317 316 314 313 313 313 312 311 312 313 311 309 309 309 310 310 310 311 312 313 314 314 314 313 313 313 313 314
319 320 319 317 316 315 319 318 319 320 321 320 319 318 316 313 313 314 313 312 312 311 310 308 309 309 308 308 308 307 306 307 307 307 307 308 309 308 308 309 309 309 309 310
316 318 318 317 315 315 314 315 317 317 319 319 317 316 314 312 312 312 312 312 311 310 309 307 307 307 306 306 306 306 306 305 304 304 304 304 305 305 305 305 305 304 304 305
317 315 313 315 315 315 314 314 313 314 313 313 314 312 312 310 311 311 311 311 309 309 308 307 306 306 305 305 305 304 303 302 302 303 303 303 302 301 300 301 301 300 299 300
315 315 314 314 312 313 313 312 311 312 313 313 313 312 312 310 311 311 311 311 310 310 309 307 306 306 305 304 304 304 302 302 302 302 301 299 299 298 297 297 297 297 297 297
314 314 315 314 314 312 313 313 312 312 314 314 313 312 312 311 311 311 311 311 310 309 308 307 306 305 305 305 302 302 301 300 300 298 297 297 296 296 296 296 296 296 296 296
313 312 312 313 314 314 313 312 310 309 311 311 312 312 312 310 310 311 311 310 309 308 308 307 306 305 305 304 302 302 300 298 297 297 297 296 296 295 295 294 294 294 295 295
312 312 313 314 314 313 314 313 310 308 309 311 311 310 311 312 311 311 310 309 308 307 307 307 306 305 305 304 301 301 299 298 297 298 298 297 296 296 294 294 293 293 293 293
313 312 313 313 312 313 313 312 312 312 310 311 310 311 310 309 309 309 309 309 309 308 308 306 306 306 305 304 302 300 300 299 299 299 299 298 297 296 295 294 293 293 292 292
310 310 310 310 310 310 310 311 312 313 312 311 311 310 310 307 308 308 309 309 309 308 307 305 305 306 305 304 304 303 301 300 299 299 299 299 299 298 296 295 294 293 292 292
311 311 311 312 312 311 310 310 312 312 313 312 312 311 311 311 310 308 308 307 307 306 307 307 305 306 305 305 304 304 302 301 300 300 300 300 300 299 298 296 294 293 292 292
314 313 313 312 312 312 311 312 312 312 312 312 312 312 311 311 310 310 309 307 308 309 309 308 306 305 306 305 305 304 303 302 301 300 300 300 300 300 299 297 295 294 293 292
311 313 313 313 312 312 312 312 312 312 312 312 311 311 312 312 311 311 309 307 307 307 307 309 307 305 306 306 306 306 304 303 301 301 300 300 300 300 300 299 296 295 293 291
308 308 309 309 309 309 309 309 309 309 310 311 312 311 311 311 312 311 311 311 311 310 308 306 308 306 305 305 306 306 306 305 303 301 300 300 300 300 300 300 298 296 294 292
307 307 307 307 306 306 309 308 308 309 308 308 309 310 310 311 311 310 310 311 311 311 311 309 307 308 307 306 306 306 306 305 305 302 301 301 301 300 301 301 300 297 296 294
306 307 307 307 308 307 306 307 306 306 306 307 308 308 308 308 309 309 310 310 309 308 309 311 308 311 309 307 307 307 306 306 305 304 301 302 302 302 302 302 301 299 297 296
307 307 306 306 306 306 306 305 305 305 306 307 306 306 306 306 307 307 308 308 309 308 310 310 309 309 308 308 307 307 307 306 306 304 302 302 303 303 303 303 301 300 299 298
307 307 306 306 306 305 305 304 305 306 305 305 305 305 305 305 304 307 307 308 309 309 309 309 309 308 308 308 307 306 307 306 305 304 304 303 303 303 304 303 300 299 299 299
307 306 306 305 305 305 306 305 304 305 304 304 304 304 305 304 304 306 306 306 307 308 308 307 308 307 305 304 304 306 306 306 306 304 303 303 303 302 303 301 300 300 299 299

GFSNGP_925_thetae_096.txt.gz
Theta_e
321 321 321 322 320 319 318 319 330 332 343 345 345 344 345 343 341 342 343 342 342 344 343 343 345 346 345 345 345 342 343 341 341 341 342 343 345 345 346 348 349 350 351 351
325 323 323 320 320 324 324 339 344 341 346 339 341 342 342 340 340 340 341 340 339 340 340 341 342 344 345 344 344 343 342 342 341 341 340 341 341 342 343 344 345 346 348 350
326 322 320 318 321 321 322 339 341 344 339 341 343 342 338 335 337 338 338 338 338 337 336 335 337 338 338 340 341 341 340 340 341 341 340 339 340 340 339 340 340 340 341 342
325 322 324 317 319 322 335 342 340 339 341 341 340 334 333 331 331 332 330 328 330 333 332 326 326 328 329 333 334 333 331 333 335 336 336 336 337 337 337 337 338 337 336 339
326 324 322 321 322 324 324 341 339 339 340 333 331 329 329 326 324 323 323 324 325 324 322 322 322 324 325 324 323 324 324 325 326 327 328 330 331 332 334 335 335 336 336 342
324 329 330 321 322 322 327 338 338 336 332 331 333 334 328 322 321 320 322 324 322 321 320 320 318 321 321 318 318 317 318 319 320 321 322 323 325 324 325 328 331 334 337 330
325 326 325 323 320 321 327 327 333 331 329 330 328 325 319 320 319 320 321 320 320 319 317 316 317 318 315 314 313 313 315 317 317 318 319 320 321 322 325 333 335 330 324 319
316 321 326 320 321 325 320 321 327 327 327 325 321 318 317 316 318 316 316 315 316 315 314 315 315 316 312 311 311 312 312 313 315 316 316 317 317 317 317 319 319 316 315 314
317 319 317 317 318 318 319 323 324 323 324 323 320 318 317 317 316 314 313 312 313 314 312 312 312 313 311 309 309 309 310 310 310 312 313 314 315 314 314 314 313 312 312 311
318 318 318 317 316 317 319 321 322 322 322 321 320 317 318 317 315 313 311 311 311 311 310 309 309 309 308 308 307 307 307 306 307 308 309 309 309 309 310 309 308 307 306 306
317 317 317 316 315 314 317 319 320 321 321 320 318 317 316 315 314 312 311 311 311 310 309 308 307 306 306 306 306 306 305 304 304 304 305 305 305 305 305 303 303 302 301 302
319 314 314 314 314 314 316 316 317 317 318 319 317 315 315 314 313 312 311 311 309 308 307 306 305 305 305 305 305 304 302 302 302 303 302 301 301 300 300 299 298 298 298 297
315 314 312 313 312 312 313 313 313 314 314 314 314 314 313 311 311 312 311 311 311 310 309 307 305 304 304 304 304 302 301 301 301 299 298 297 297 297 297 297 296 296 296 295
313 313 315 314 314 311 312 312 311 312 314 314 313 312 311 311 311 311 310 310 310 309 307 306 305 305 304 304 303 301 300 300 298 297 296 296 296 295 295 295 295 294 294 294
313 311 311 312 313 313 312 311 311 311 312 312 312 312 312 310 310 311 311 310 309 308 307 306 305 304 304 302 302 300 299 297 297 297 296 296 295 295 294 294 294 294 294 294
311 311 311 312 312 312 313 312 311 310 309 311 311 311 312 313 312 312 311 310 308 307 308 307 305 304 304 302 301 299 297 297 298 297 297 296 296 295 294 294 294 293 293 293
312 313 311 311 311 312 312 311 311 311 310 310 311 311 310 311 310 310 310 310 310 309 308 307 306 305 305 303 301 299 297 297 298 298 297 297 297 296 295 294 294 293 293 292
309 310 308 308 309 310 310 310 310 311 311 311 310 311 310 308 309 310 310 309 308 308 308 308 306 305 305 304 302 300 299 298 298 299 299 299 298 297 296 295 294 294 293 293
312 311 310 310 311 310 309 310 310 311 311 311 311 311 310 310 310 310 310 307 306 306 308 307 306 305 305 304 303 302 301 299 299 299 299 299 299 299 299 297 296 295 294 293
312 312 311 311 311 311 311 311 311 311 311 311 311 310 310 310 310 309 308 309 308 309 309 309 306 305 306 305 304 303 302 301 300 299 300 300 300 300 300 300 299 297 295 294
311 312 312 311 312 311 311 311 311 311 310 311 310 310 310 311 311 310 308 307 309 311 308 308 307 306 305 305 305 305 303 302 301 301 300 300 300 300 300 300 300 299 297 295
308 309 309 309 308 308 308 308 308 307 307 308 308 310 311 311 310 310 310 309 310 311 310 310 309 308 306 305 305 305 305 304 303 303 302 302 300 300 300 300 300 301 299 297
306 307 306 306 306 306 307 307 307 307 307 307 307 307 307 308 308 309 310 311 311 310 309 308 308 309 309 306 305 305 305 305 305 304 304 303 303 301 300 301 301 301 301 299
306 306 306 306 307 306 305 305 305 305 304 304 306 306 306 305 305 306 306 307 308 309 310 311 311 310 310 309 307 306 305 305 305 305 305 305 304 302 301 301 301 302 302 300
306 306 306 306 305 305 304 304 304 305 306 305 305 305 305 304 305 305 305 306 306 307 308 309 309 309 309 309 308 306 306 305 306 306 306 305 305 304 302 302 303 303 303 301
306 305 305 305 305 304 304 304 304 304 304 304 304 304 304 304 305 305 306 308 308 307 307 307 308 309 308 308 308 307 307 307 306 306 305 305 305 303 302 302 302 303 303 302
305 305 305 304 304 305 305 304 304 304 304 304 304 304 304 304 304 304 305 305 305 306 307 308 307 308 308 308 306 305 305 305 306 305 304 305 305 304 303 302 301 302 301 301

GFSNGP_925_thetae_099.txt.gz
Theta_e
325 325 324 324 322 329 324 329 331 330 343 348 350 348 347 345 346 348 348 347 348 349 348 348 348 347 346 344 345 343 341 341 343 344 346 346 347 347 347 348 348 348 349 351
328 325 325 323 323 328 332 326 328 341 340 343 346 345 345 345 345 346 346 345 346 346 345 345 346 346 346 345 344 344 342 341 341 341 342 343 343 344 344 345 346 346 347 348
329 326 324 326 324 326 332 335 339 344 344 346 346 346 345 343 342 343 343 342 342 341 339 341 343 344 344 344 343 343 342 342 340 339 339 339 339 339 339 339 340 342 344 345
333 327 331 324 325 328 335 344 344 344 343 344 344 342 340 339 339 339 338 337 336 330 328 330 334 336 337 340 340 340 339 339 338 338 338 337 337 337 337 337 337 340 344 339
334 330 327 323 325 326 328 337 342 342 341 340 337 334 333 335 336 334 331 329 327 325 324 324 326 328 328 328 331 332 332 333 334 333 334 334 334 334 333 334 336 341 338 331
332 333 331 325 324 323 326 341 340 338 338 336 336 343 335 328 329 329 326 325 322 322 321 322 321 321 322 320 320 321 321 322 323 324 326 326 329 328 330 332 335 333 329 325
330 331 328 324 324 323 334 332 338 338 334 337 339 336 330 329 328 327 324 321 320 319 317 317 318 318 318 319 317 316 316 317 318 320 321 321 322 326 329 332 330 324 319 318
324 327 327 324 325 328 326 327 333 332 329 327 327 328 326 326 325 321 319 317 316 315 315 314 315 315 314 313 313 313 314 315 315 316 316 317 320 323 327 323 318 318 317 315
325 327 323 322 323 322 323 326 330 330 326 325 326 325 324 322 322 320 318 318 317 315 314 314 314 315 314 312 311 311 312 312 313 313 314 314 315 315 316 315 315 313 314 314
325 322 322 322 321 322 323 325 326 326 324 323 324 322 320 320 321 320 319 317 316 315 314 313 312 311 311 310 310 310 310 310 310 311 310 310 311 311 311 311 312 312 310 309
324 321 320 319 319 318 324 325 325 324 322 321 320 320 319 317 316 317 316 315 315 315 313 311 310 309 308 308 309 309 308 308 308 308 308 307 306 307 304 302 305 306 305 303
326 320 321 320 318 316 322 324 324 323 321 320 318 318 318 317 315 314 313 313 313 313 312 310 308 307 307 307 307 307 307 306 306 305 305 305 303 300 298 298 298 298 298 299
321 318 317 317 317 316 316 318 320 321 321 320 319 320 319 317 316 315 313 312 312 311 311 309 308 307 307 306 305 305 305 304 303 303 302 302 302 302 300 296 295 295 295 295
316 318 319 318 318 316 315 315 315 317 318 319 318 319 319 317 314 314 313 314 312 310 308 307 307 306 305 305 305 304 303 301 301 300 300 300 300 300 300 300 300 298 295 295
317 316 316 316 316 317 316 315 315 316 317 317 316 316 315 314 314 314 313 312 311 311 309 308 308 307 306 305 304 303 302 300 299 299 299 299 299 298 298 298 298 298 298 296
315 315 314 314 316 316 316 317 317 316 314 316 316 316 316 316 316 315 313 311 311 311 310 308 308 307 305 304 303 302 300 299 299 299 298 299 298 298 298 298 298 298 297 297
316 316 313 314 314 315 316 316 316 316 316 315 314 315 314 314 314 314 313 312 312 312 310 309 308 307 305 303 303 301 299 299 299 300 299 299 299 298 298 298 298 297 297 294
315 315 314 313 314 314 314 314 314 314 315 315 315 314 314 313 313 313 314 312 311 311 311 309 309 307 305 304 303 301 300 300 300 300 300 300 300 299 299 298 298 298 297 295
315 317 315 314 314 314 314 314 314 314 314 314 314 315 315 314 314 314 314 312 311 311 311 309 308 307 306 305 304 302 301 301 301 301 301 301 300 301 301 300 299 298 297 296
316 316 315 314 314 314 314 314 314 314 314 314 314 314 314 314 314 312 312 313 312 311 310 310 309 308 307 306 304 303 302 301 300 301 301 301 302 302 302 301 301 300 298 297
316 316 316 315 314 314 314 314 314 313 312 311 313 313 314 314 313 313 313 311 312 311 310 310 309 309 307 306 306 304 303 302 302 301 301 301 302 302 302 302 302 302 301 299
315 315 315 314 314 312 310 310 310 310 310 310 310 310 311 312 313 313 313 313 313 312 310 309 308 309 308 307 305 306 304 303 303 302 302 302 302 302 302 302 302 302 302 301
312 312 311 310 309 309 309 309 308 309 309 309 309 309 309 309 309 309 310 311 312 313 311 311 310 308 308 306 306 306 306 305 304 303 303 303 303 303 303 303 302 302 302 302
310 309 309 308 308 309 309 308 307 306 306 306 308 307 306 306 306 306 307 307 306 306 308 310 311 309 308 308 308 306 306 306 305 305 304 304 304 304 304 304 303 303 303 302
310 309 308 309 309 308 307 306 306 307 307 307 307 306 306 306 306 306 307 307 307 306 306 307 308 309 309 308 308 308 307 307 305 305 305 306 306 305 305 305 304 303 303 303
309 308 308 308 307 306 307 306 307 306 306 307 307 306 306 306 306 307 307 306 307 306 307 308 307 308 309 309 309 308 307 307 308 306 305 304 305 306 305 305 304 303 302 302
308 307 307 306 306 305 305 306 306 306 306 307 307 306 306 306 306 306 306 307 306 307 306 305 304 304 307 309 309 308 308 307 307 305 306 306 306 306 305 305 304 303 302 301

GFSNGP_925_thetae_102.txt.gz
Theta_e
326 326 326 329 329 328 330 329 329 328 331 333 348 353 355 353 351 352 352 352 352 351 351 351 350 349 347 344 345 344 345 345 349 351 351 351 351 352 353 353 350 352 352 354
327 328 328 328 327 328 330 330 328 330 332 341 347 350 353 352 350 351 352 351 352 351 350 350 350 349 348 347 346 344 342 342 343 341 344 350 351 352 352 353 354 354 355 355
326 328 329 330 328 328 330 334 334 331 334 345 350 351 351 351 350 350 349 349 350 351 350 350 350 349 349 347 345 344 341 342 341 342 343 345 346 348 350 350 351 351 352 352
327 330 331 329 329 330 330 334 341 342 344 346 348 347 347 346 347 346 345 342 339 337 336 337 343 346 347 345 346 345 344 342 342 340 340 340 340 340 343 345 346 348 345 341
329 329 328 327 328 329 330 336 341 345 344 344 345 343 342 340 340 341 339 335 331 331 328 329 333 336 341 340 340 339 339 339 338 338 338 338 337 337 339 342 343 345 340 334
328 328 331 330 326 326 327 338 337 341 342 343 340 348 344 338 338 334 331 328 326 323 323 323 324 327 328 327 330 329 330 332 333 335 339 340 339 335 335 340 340 334 328 322
325 325 327 329 326 326 333 335 335 338 339 340 342 340 339 336 334 328 325 323 322 320 319 320 320 320 320 320 320 322 323 326 326 327 329 330 330 333 336 335 333 324 320 320
326 326 328 329 328 332 333 329 333 336 333 332 333 335 336 330 326 322 319 318 317 317 316 317 318 319 319 318 319 320 323 324 324 324 323 326 329 330 327 326 323 322 320 317
329 331 328 328 330 330 330 330 333 335 329 331 333 333 332 325 322 319 318 316 315 315 315 316 317 316 316 316 319 319 320 321 321 321 321 323 326 323 323 325 325 324 323 320
328 326 326 325 326 330 331 331 331 331 328 328 331 329 329 323 321 319 318 317 317 316 315 315 315 315 316 316 316 317 318 318 318 318 318 319 319 320 322 322 322 321 320 318
328 325 324 324 324 327 330 330 330 329 328 324 326 324 321 320 320 321 319 319 318 317 315 314 313 312 313 314 315 315 315 315 315 315 315 314 310 311 310 305 311 316 314 312
328 326 327 325 322 323 327 329 329 328 326 320 320 319 318 319 316 317 317 318 318 317 315 313 312 312 312 312 313 313 313 313 312 313 312 311 308 303 299 299 301 302 304 305
326 323 324 322 321 320 323 325 326 327 326 325 322 320 320 318 318 320 317 316 316 317 316 314 313 312 311 311 311 311 311 310 309 309 310 310 308 306 302 296 296 296 297 298
322 322 323 322 322 320 319 319 320 323 325 325 324 323 323 321 320 321 320 319 318 315 315 314 313 312 311 310 310 309 309 306 307 306 306 306 307 307 305 304 304 300 296 296
320 320 321 320 320 320 319 319 320 322 323 324 324 324 324 323 323 322 320 318 317 315 313 311 311 310 309 308 308 308 306 304 304 304 304 304 304 304 304 304 304 303 301 298
320 318 317 318 318 318 318 318 320 320 318 321 322 322 322 321 322 322 320 316 315 315 315 312 311 311 308 307 307 307 306 303 303 304 302 303 303 303 303 303 303 303 303 302
319 319 316 315 315 316 316 316 317 318 319 319 318 319 320 320 320 321 319 317 316 316 315 315 313 312 309 307 307 305 304 302 302 303 303 303 303 303 303 303 303 302 301 297
316 315 314 315 315 315 316 315 315 315 316 317 318 318 318 318 319 320 320 319 318 317 317 315 313 312 311 308 307 305 303 303 302 303 304 303 303 303 303 303 302 302 301 296
316 315 314 314 314 315 315 315 315 316 316 315 315 316 317 318 319 318 318 318 318 318 317 316 313 311 311 309 307 306 304 303 303 303 304 303 302 303 303 303 303 302 301 301
316 316 316 316 317 316 316 317 317 317 317 316 315 314 314 316 317 317 318 318 317 317 316 316 314 312 311 310 307 306 305 304 304 304 303 304 303 304 304 304 304 303 302 301
317 317 318 318 318 318 317 317 317 317 316 313 313 313 313 314 315 316 317 317 316 316 316 314 313 313 312 310 308 306 306 306 305 304 304 303 304 304 305 305 304 304 303 302
317 318 318 317 317 316 317 316 314 312 311 311 311 311 311 311 312 312 313 315 315 314 314 314 314 313 311 309 309 307 305 306 306 305 304 304 303 304 304 305 305 305 304 303
318 318 317 316 315 314 313 312 311 311 310 311 311 311 311 310 310 310 310 310 310 310 310 312 313 312 310 310 309 307 307 307 307 306 305 304 304 304 304 305 305 305 304 304
318 316 315 313 312 311 312 311 309 310 310 310 310 310 309 309 309 309 309 309 308 308 308 308 309 311 311 311 311 311 309 307 307 306 306 305 304 304 305 305 305 305 305 304
316 315 313 312 311 311 311 310 309 310 310 310 309 309 309 308 309 309 309 308 308 308 309 309 307 307 309 311 309 309 308 308 306 307 305 306 305 304 305 305 306 305 305 305
315 314 312 311 310 309 308 308 308 308 308 309 308 308 308 308 307 308 308 307 308 307 307 307 305 307 309 309 309 309 309 308 308 307 307 306 306 306 306 306 306 306 306 305
314 310 310 310 308 308 307 307 308 307 307 308 309 308 308 307 307 307 307 307 307 307 307 307 306 306 305 306 308 309 310 309 308 308 307 306 307 306 306 306 305 305 304 305

GFSNGP_925_thetae_105.txt.gz
Theta_e
329 329 329 330 328 327 330 330 331 331 331 333 347 351 356 357 357 359 358 355 354 355 355 352 352 351 349 348 347 344 344 348 349 351 352 352 352 353 349 350 350 351 351 352
332 327 328 328 330 331 329 329 329 329 330 336 349 352 356 356 354 355 355 355 355 354 353 353 353 352 351 350 349 346 346 347 349 350 353 353 352 353 352 352 351 351 352 353
330 325 327 328 328 328 328 328 329 330 330 343 347 350 354 355 352 353 355 353 354 352 352 352 352 352 351 350 348 348 347 346 346 346 343 344 349 351 352 352 352 353 352 353
330 327 331 329 329 330 331 331 333 337 334 345 346 350 351 350 350 350 349 351 350 348 348 348 351 351 351 350 350 348 348 345 345 342 341 342 343 345 348 349 350 350 349 346
331 327 331 330 330 331 331 336 343 342 340 342 350 349 347 345 345 347 344 340 337 336 337 334 339 346 349 349 348 348 347 347 346 345 343 341 341 341 342 344 345 343 342 338
331 334 330 335 331 328 329 331 335 337 344 345 346 349 348 343 340 339 334 332 329 327 326 325 327 332 336 335 337 337 340 340 340 341 339 339 339 338 338 340 340 340 333 328
326 330 331 331 328 326 332 336 334 339 341 341 345 344 344 340 336 331 327 325 323 320 321 322 323 326 323 324 325 328 330 333 334 334 336 337 337 339 336 337 334 330 326 323
328 333 336 329 330 335 335 332 333 337 338 338 336 338 334 330 327 324 321 320 319 319 319 319 320 320 320 321 322 324 327 328 328 327 328 331 335 332 332 329 329 327 324 322
331 334 331 330 331 332 331 331 333 336 335 335 335 332 329 324 322 319 317 317 317 318 319 318 316 318 318 319 320 323 324 326 327 327 329 331 332 331 329 328 328 328 328 325
328 328 328 328 330 332 332 331 332 333 332 331 328 325 323 323 320 319 318 317 315 316 316 316 316 316 316 317 318 320 321 322 324 324 325 327 329 329 329 329 329 329 328 326
328 326 326 326 327 330 332 332 331 331 330 326 322 321 320 321 321 320 319 318 318 316 315 314 315 315 314 316 317 318 318 318 319 319 322 318 314 315 315 314 314 314 323 321
330 330 328 327 325 326 328 331 330 329 328 324 321 321 319 318 318 317 319 318 317 315 316 314 314 312 313 314 314 314 315 316 316 317 317 315 313 307 305 305 309 310 311 309
328 326 326 325 323 323 324 326 328 329 326 323 321 320 320 319 319 318 316 316 318 318 315 314 314 313 312 312 312 313 313 312 312 313 314 314 312 311 307 298 297 298 300 302
324 325 325 324 324 322 322 322 323 327 327 325 323 322 319 320 322 322 320 319 318 317 316 315 314 314 313 312 312 312 312 310 311 310 311 311 312 311 309 307 307 303 297 297
324 324 324 324 323 323 322 321 323 324 325 325 325 324 323 321 322 320 321 321 321 320 318 317 315 314 313 312 311 311 310 308 308 309 309 308 309 309 309 309 309 307 301 298
323 322 321 321 321 321 321 321 321 322 323 323 324 324 324 324 323 322 323 322 321 321 319 317 316 315 312 310 311 310 309 306 306 306 306 306 307 306 307 307 307 307 307 307
323 321 320 319 318 318 318 319 320 321 321 321 321 322 323 323 323 323 324 323 321 321 320 318 317 315 313 311 310 308 307 306 303 304 305 305 306 305 306 306 306 306 306 304
319 319 318 317 317 317 317 316 316 317 317 319 320 321 321 322 322 322 322 322 321 320 320 319 318 316 314 311 310 308 307 305 303 304 305 305 305 305 305 305 305 305 304 300
317 317 315 316 316 316 316 316 316 317 316 316 316 316 318 319 319 320 320 321 320 320 320 319 318 315 315 313 311 310 308 306 305 304 305 305 305 305 305 305 305 305 304 303
317 316 316 316 316 316 317 317 317 317 317 317 316 315 315 315 316 317 318 320 320 319 319 319 319 317 315 315 311 310 310 308 307 306 306 306 305 305 305 305 306 305 305 304
318 317 317 317 317 317 317 316 317 317 317 317 314 314 314 315 315 315 316 317 317 318 319 318 318 317 317 315 314 312 310 310 308 307 307 306 306 306 306 306 306 306 306 305
318 318 318 318 318 318 317 316 316 316 316 314 312 312 312 313 313 313 313 314 314 314 316 316 316 316 316 315 314 313 312 310 309 308 307 307 307 306 306 307 307 306 306 306
318 318 318 318 318 317 317 315 314 313 313 312 312 313 313 313 312 311 312 312 312 311 311 311 312 313 313 313 313 313 312 311 310 307 307 308 307 306 306 306 306 306 306 306
319 318 319 319 318 316 316 313 312 312 311 313 312 312 311 310 311 310 311 310 309 308 310 310 309 308 309 311 313 313 312 312 311 308 307 307 307 306 306 306 306 306 306 306
320 320 320 318 316 314 313 313 312 311 311 312 311 311 310 309 310 309 309 309 308 309 310 308 307 308 308 309 310 311 312 312 310 309 308 309 308 306 306 306 306 306 306 306
321 319 317 316 314 311 312 312 310 310 311 310 310 309 309 309 309 309 309 308 308 308 308 308 307 308 309 310 311 310 311 311 310 309 309 309 307 306 306 307 306 306 306 306
319 316 315 313 311 310 310 309 310 310 309 309 310 309 309 308 308 307 307 307 307 307 307 307 307 307 307 307 308 309 311 310 310 309 309 308 308 306 306 307 306 306 307 306

GFSNGP_925_thetae_108.txt.gz
Theta_e
330 330 330 332 332 331 328 329 330 331 335 350 350 351 351 356 358 360 359 357 355 353 354 356 350 350 355 353 351 352 351 352 352 352 353 351 351 349 349 352 352 351 352 352
330 330 330 330 329 332 329 328 329 331 332 344 353 356 355 358 362 360 357 355 357 357 355 355 355 353 351 350 350 350 346 344 342 344 346 350 350 351 352 352 350 350 350 351
329 328 327 330 329 330 331 330 329 329 340 336 349 356 352 355 357 359 358 358 358 355 354 355 354 354 352 353 351 350 349 347 347 347 346 348 347 351 352 349 348 350 351 353
331 330 334 331 332 333 330 330 337 342 343 346 354 342 332 350 353 354 355 351 350 351 353 353 351 352 352 352 351 349 349 349 348 347 345 344 344 345 345 347 347 350 348 344
329 328 329 333 334 333 332 336 339 340 338 336 344 344 349 347 346 346 340 337 335 334 334 337 340 351 351 351 350 350 349 347 347 346 343 342 343 343 344 344 344 345 343 340
334 329 335 336 332 329 329 334 337 340 342 337 344 350 350 345 339 334 331 329 329 328 327 330 333 342 345 346 347 347 347 346 345 345 344 342 340 341 341 342 342 341 338 336
329 332 337 333 331 328 331 339 337 338 340 344 348 343 335 332 329 326 326 324 322 323 323 323 327 331 328 329 330 334 340 342 342 341 341 339 339 340 338 338 336 334 332 330
333 336 338 329 334 334 335 335 334 338 336 339 341 337 331 328 325 323 321 321 321 320 320 321 323 325 324 325 327 329 330 332 333 335 336 336 336 337 336 334 331 330 329 324
332 334 333 333 335 332 329 331 335 336 337 333 327 327 325 323 320 319 318 319 319 319 318 319 320 321 321 323 325 326 327 328 327 331 332 333 332 331 331 331 330 328 327 325
333 330 328 329 329 331 331 334 334 334 330 326 324 322 321 320 319 318 317 317 317 317 317 316 316 317 318 320 321 322 323 324 326 327 325 329 326 328 328 322 327 329 331 327
328 331 330 327 329 330 332 331 333 331 327 325 322 322 321 320 320 320 319 318 314 314 315 316 315 315 316 317 319 319 319 320 320 323 322 318 314 313 313 314 315 317 317 320
331 327 332 328 326 327 332 332 331 330 328 325 323 321 319 319 318 319 319 318 316 316 314 314 311 312 314 315 316 316 317 317 318 320 318 316 315 310 308 308 310 313 313 314
331 328 328 327 324 324 325 331 329 328 327 325 322 321 320 319 318 318 318 318 317 315 313 313 314 311 311 312 313 314 314 312 312 313 318 315 314 312 309 302 300 302 306 308
326 325 326 323 324 323 323 324 328 327 324 323 322 322 321 320 318 318 317 317 317 316 315 315 314 313 311 309 311 312 311 311 311 311 311 312 314 313 311 308 307 304 298 299
323 323 323 323 324 323 322 322 324 328 326 325 323 322 322 323 322 322 322 321 318 319 318 316 316 314 313 312 311 312 312 309 308 310 309 309 309 310 311 310 311 306 300 298
323 323 322 323 322 322 322 322 322 326 327 325 325 324 324 323 322 322 323 323 322 321 321 320 318 316 314 313 312 312 311 308 307 307 308 307 308 308 308 308 309 309 307 307
323 323 321 320 320 320 320 320 320 321 321 326 326 325 325 325 325 324 324 323 322 322 322 320 319 317 315 311 311 311 310 308 305 305 307 306 306 307 307 307 307 307 307 306
323 322 321 319 318 318 318 318 318 319 320 320 321 321 321 323 323 323 323 323 323 323 323 322 320 318 316 313 312 310 308 308 306 304 306 306 306 306 306 306 307 307 305 304
320 319 319 317 317 317 318 317 317 318 318 317 317 317 317 319 320 321 321 322 321 322 322 321 321 319 317 315 312 311 310 309 308 306 305 306 306 306 306 306 305 306 306 304
318 318 316 316 316 317 317 317 317 318 317 317 316 317 316 316 316 319 318 317 319 320 321 320 320 320 318 317 316 313 313 311 308 307 307 307 307 306 306 306 306 306 306 304
318 317 316 317 317 317 317 317 318 317 317 318 317 316 315 316 316 316 316 316 318 318 320 320 319 320 318 318 316 315 313 312 312 310 309 308 307 307 307 306 307 306 307 306
319 318 317 317 318 318 318 318 317 317 317 318 316 314 313 314 313 313 314 314 314 313 314 316 317 317 317 317 317 316 315 314 312 312 311 310 309 308 307 307 307 307 306 307
320 319 319 319 319 319 318 318 316 316 317 316 314 314 314 314 314 313 315 312 313 311 312 312 310 310 311 313 315 316 315 314 314 313 311 310 309 308 308 308 307 307 308 307
322 322 321 319 319 319 319 317 315 315 314 313 313 314 313 312 312 311 311 309 308 310 311 308 306 307 308 309 311 313 314 314 313 313 312 309 307 308 309 309 307 307 307 307
324 323 321 321 321 320 318 316 314 313 313 313 313 313 311 310 311 310 311 310 309 310 311 308 307 309 310 310 311 310 311 311 312 312 312 312 311 309 307 307 307 306 306 306
326 322 322 321 319 317 315 314 314 313 312 312 312 311 310 310 310 309 311 310 309 308 309 310 309 308 308 308 309 310 311 312 312 311 311 312 311 310 308 309 308 306 306 306
325 323 321 320 318 314 312 313 313 312 311 312 311 311 310 309 310 309 308 309 308 308 308 308 308 308 307 308 309 309 309 310 310 309 307 307 309 310 310 310 309 307 306 306

GFSNGP_925_thetae_111.txt.gz
Theta_e
328 330 330 329 330 330 330 328 328 337 351 351 347 347 348 343 347 351 348 348 350 349 347 345 342 341 342 341 342 344 351 352 351 348 350 352 350 350 350 349 351 350 352 352
328 328 329 330 331 330 330 331 327 344 351 344 346 351 349 347 355 355 353 352 351 350 349 342 341 342 342 337 339 348 349 348 349 347 348 349 349 351 350 350 350 349 350 351
330 329 329 329 333 332 332 338 344 354 353 348 342 341 345 340 348 351 350 348 352 351 353 352 344 339 347 344 345 350 348 348 346 343 344 346 346 347 349 347 346 346 349 349
330 330 333 334 330 331 339 341 340 344 351 342 339 337 341 346 347 342 339 336 337 339 340 346 353 348 350 348 349 349 347 347 347 345 346 345 346 346 346 346 346 347 346 346
331 329 330 334 332 331 335 341 338 343 338 344 342 343 343 339 334 334 333 331 331 330 331 335 341 351 350 349 350 349 348 349 348 347 345 343 342 342 344 344 345 346 344 339
332 336 334 335 331 329 327 342 339 341 343 344 342 345 347 335 330 328 325 324 325 326 327 330 333 342 348 349 349 349 348 347 346 344 343 342 342 342 343 343 343 341 338 336
333 334 337 332 331 331 331 340 339 336 340 338 338 336 331 327 324 323 322 322 322 322 323 325 329 336 333 332 334 342 347 346 346 344 342 340 339 339 341 340 339 338 337 332
331 334 334 329 332 337 333 330 337 337 337 335 331 328 324 323 321 320 320 320 320 320 321 323 325 328 327 328 331 334 338 339 340 341 339 339 340 339 338 338 335 332 330 324
332 333 329 329 330 327 327 335 335 331 328 325 325 324 321 320 319 318 318 318 318 318 318 321 322 324 324 325 327 327 328 331 332 335 334 334 336 336 333 331 331 329 325 323
331 330 330 328 331 330 332 332 330 328 325 323 323 321 320 318 317 317 317 317 316 315 316 316 318 320 321 322 324 326 327 326 325 324 326 326 329 329 329 328 326 327 328 323
330 326 326 329 331 332 333 330 329 326 324 322 321 320 319 317 319 319 317 314 315 315 316 316 316 316 318 318 317 320 321 322 322 322 319 317 318 314 312 314 316 315 317 324
331 326 329 328 328 332 332 331 328 326 324 322 320 318 319 318 318 317 316 315 314 314 311 311 314 315 316 316 317 317 317 319 321 319 316 315 316 314 312 307 312 311 311 312
329 328 325 325 325 330 331 330 328 325 324 322 321 319 318 318 318 318 317 314 313 313 313 313 310 310 313 314 314 314 313 315 315 314 317 314 313 311 308 302 303 305 309 310
328 327 328 326 324 325 330 329 328 326 324 322 321 320 319 319 318 318 318 317 315 315 315 314 314 311 309 311 312 312 310 310 310 311 315 315 314 313 311 309 307 306 304 301
326 324 324 324 324 323 323 328 327 325 324 323 322 322 321 319 318 318 317 317 317 316 316 315 314 312 311 310 310 311 310 309 308 311 308 308 310 310 311 309 309 308 304 300
324 323 324 324 323 323 323 324 327 326 325 324 324 321 322 322 321 320 320 320 319 319 320 317 316 314 312 312 310 310 309 308 307 307 308 308 308 308 308 309 309 308 304 303
324 323 322 321 322 322 320 320 321 327 326 324 324 323 323 324 323 323 323 323 323 322 321 321 320 318 317 314 311 312 311 310 307 305 307 306 306 307 307 307 307 308 308 308
325 324 320 320 319 318 318 318 318 321 323 322 325 326 325 325 323 323 323 323 323 323 322 322 322 320 318 317 313 310 311 309 308 306 304 306 306 306 306 306 306 306 306 306
324 323 322 320 319 319 318 317 317 318 317 317 317 318 319 318 320 324 324 323 323 322 321 321 322 321 319 318 316 312 312 309 308 307 305 304 306 305 305 306 306 306 305 305
322 320 318 318 317 319 319 317 318 318 317 316 317 317 317 317 318 317 317 318 319 321 320 319 320 321 320 319 318 314 311 310 310 308 307 306 305 306 306 306 306 306 306 306
321 319 317 319 317 317 318 318 318 318 319 318 317 317 316 315 316 315 316 318 316 318 319 321 321 320 320 320 318 317 315 314 313 310 308 307 307 307 307 306 306 306 306 306
320 319 318 318 319 319 317 317 317 317 319 318 317 314 314 314 314 313 315 316 313 313 314 315 316 316 317 318 318 317 317 316 314 313 312 310 308 307 307 307 307 306 306 306
321 320 319 318 319 319 318 319 317 317 319 317 315 314 313 313 314 315 313 312 312 310 311 310 308 306 307 310 312 314 316 316 315 315 314 313 311 310 309 308 307 308 307 308
322 322 320 319 318 321 320 318 317 316 316 315 314 313 314 314 313 313 312 307 306 311 310 307 307 308 308 309 310 310 311 312 313 314 313 313 312 311 308 308 308 308 308 307
324 323 322 322 322 321 319 317 315 315 314 313 313 313 313 312 312 311 311 309 308 310 310 308 308 308 308 308 308 309 311 311 311 311 310 311 312 311 310 309 308 308 308 307
328 326 324 322 322 321 318 316 315 314 313 313 313 313 312 311 310 311 311 310 309 309 312 310 309 308 308 308 308 306 307 310 311 311 310 310 310 310 310 310 310 310 308 307
330 327 325 322 320 318 316 315 314 314 313 312 313 312 311 310 309 309 310 310 309 309 308 309 309 308 307 308 308 308 306 305 304 304 304 303 302 303 304 305 308 310 309 308

GFSNGP_925_thetae_114.txt.gz
Theta_e
327 325 329 329 329 329 327 331 326 332 350 349 353 346 343 345 343 346 347 344 347 346 346 346 346 348 349 350 349 348 350 351 352 350 349 349 350 350 349 349 350 351 350 351
326 325 326 330 333 343 343 343 349 351 353 346 345 343 343 347 345 342 342 341 349 346 346 343 344 344 345 349 349 348 345 348 351 349 350 349 349 348 349 349 347 348 349 350
326 327 325 332 337 343 343 348 349 351 347 341 341 346 348 347 344 341 341 339 338 345 344 343 343 343 342 343 341 340 347 348 349 348 348 347 349 347 347 347 347 348 347 348
326 325 331 332 331 339 343 343 343 346 338 337 343 342 339 338 337 339 339 336 334 333 335 337 342 342 342 342 340 344 346 345 346 347 347 346 346 346 347 347 347 346 345 345
326 326 331 334 331 332 336 343 342 344 343 338 338 339 335 332 330 329 330 329 330 330 333 334 338 343 343 344 343 345 344 345 347 346 346 344 343 345 345 345 346 345 345 343
329 334 330 333 330 330 330 340 338 340 339 339 338 342 338 328 325 325 323 323 324 326 330 335 336 344 347 347 348 347 347 347 347 346 344 344 343 342 344 344 344 344 340 332
332 333 334 331 328 328 332 335 336 338 336 334 336 334 328 323 322 321 321 321 322 324 324 327 332 335 335 337 336 342 347 347 346 344 343 342 341 342 343 342 338 332 330 328
330 332 330 327 329 333 330 328 335 335 332 332 328 324 323 321 321 320 319 319 321 321 322 326 330 331 328 329 333 338 342 343 342 342 341 340 340 340 340 338 335 330 327 324
326 328 324 325 327 325 325 332 330 331 327 325 323 322 320 320 319 318 318 317 318 319 320 323 325 326 326 327 332 334 334 335 334 337 338 338 338 336 335 334 332 329 326 320
326 327 326 327 324 331 328 330 327 325 323 320 322 320 319 318 318 317 316 316 316 316 317 317 320 322 324 326 328 328 327 327 330 330 329 329 331 330 329 329 329 327 325 322
324 326 325 326 328 331 330 326 324 322 320 318 319 319 318 318 318 316 315 315 315 315 316 316 317 318 318 321 323 324 323 322 322 324 325 324 321 319 320 319 318 320 326 322
324 321 322 324 326 330 329 326 323 321 320 319 317 316 318 318 317 316 314 313 312 313 314 314 315 316 317 317 317 319 321 320 317 316 317 318 320 318 318 318 317 313 315 321
325 320 323 325 330 330 328 325 323 321 320 318 318 317 317 316 316 316 315 315 314 314 313 311 312 313 314 314 315 314 315 314 316 318 315 312 310 309 308 304 307 311 314 313
323 322 324 321 328 328 327 326 323 322 320 319 318 318 317 316 317 316 315 314 314 314 314 313 311 308 309 312 312 312 311 309 310 314 318 315 313 311 309 305 303 302 301 300
324 322 320 319 327 328 328 325 324 322 320 320 319 318 317 317 316 317 317 316 315 315 315 315 313 312 311 310 310 311 309 308 309 309 308 311 313 313 313 309 308 306 301 299
321 319 320 321 322 326 327 326 325 323 321 321 320 319 318 318 317 317 317 317 317 317 317 317 316 314 312 311 309 309 309 308 307 307 307 307 307 307 307 309 309 307 304 302
319 319 320 321 321 321 320 325 325 323 322 321 321 321 320 320 319 318 318 318 319 319 319 318 317 317 316 315 312 310 311 310 308 306 306 307 305 306 307 306 307 308 306 306
318 316 314 315 315 314 315 320 324 323 323 323 322 321 320 321 320 321 321 321 321 322 322 321 320 320 319 318 317 313 310 310 309 308 306 305 306 305 306 306 306 306 307 307
322 320 316 317 315 315 314 318 321 322 323 322 323 323 322 322 322 322 322 322 322 322 322 322 322 322 322 321 318 316 311 311 309 308 308 305 304 304 305 305 305 305 305 306
321 319 318 317 317 316 314 317 317 317 317 316 317 318 316 318 320 321 321 321 321 321 321 320 320 321 321 321 319 318 316 312 311 309 308 307 307 305 306 306 306 305 306 305
317 317 316 316 317 317 316 316 317 316 316 316 316 315 317 318 316 316 317 316 316 318 317 319 320 320 320 320 320 319 317 315 312 311 312 311 308 307 306 306 306 306 305 305
316 314 315 315 316 317 317 317 318 318 318 317 315 315 314 314 313 314 315 314 314 316 316 316 316 316 317 318 319 319 318 318 316 315 314 313 312 308 307 307 307 307 306 306
316 315 315 315 315 315 316 316 316 317 318 317 314 313 313 313 313 313 311 311 312 312 312 309 306 305 305 306 309 312 313 315 315 315 314 314 314 312 310 307 308 307 307 307
317 316 316 316 316 316 315 317 317 317 318 316 315 314 313 313 313 313 313 311 308 309 308 307 307 306 306 306 307 309 309 309 310 310 311 313 312 312 312 310 308 308 308 308
318 319 317 316 315 315 316 317 317 318 316 315 314 313 313 313 312 310 308 307 307 308 308 308 307 307 308 307 305 305 308 310 310 311 311 311 311 311 311 311 311 310 309 308
321 319 319 318 317 316 318 316 315 314 313 313 313 313 313 312 311 310 308 308 308 308 309 309 308 308 308 308 307 305 305 309 309 309 308 309 309 305 303 303 304 304 305 308
326 324 320 319 318 319 317 315 314 312 313 313 312 313 312 311 311 311 310 309 310 309 309 309 309 308 308 308 307 307 306 304 305 304 305 305 305 305 304 304 304 304 305 306

GFSNGP_925_thetae_117.txt.gz
Theta_e
327 326 325 328 339 341 338 338 328 343 352 349 349 344 345 341 343 344 345 345 346 342 345 347 348 349 351 352 351 350 350 349 349 349 351 350 350 351 349 349 349 347 347 349
324 326 329 341 341 341 344 347 349 350 349 340 345 344 345 344 341 340 342 344 344 344 345 346 347 347 350 350 350 351 351 350 349 350 352 351 350 350 350 349 347 348 348 350
325 324 329 332 338 342 343 346 345 342 341 340 344 341 340 340 341 340 340 339 340 341 340 342 342 342 343 346 348 348 349 349 349 350 349 348 347 348 348 347 345 347 346 347
324 323 331 332 332 340 343 342 342 339 340 341 340 335 333 332 332 333 329 334 334 335 337 341 342 342 342 342 343 344 346 346 347 348 348 347 346 347 347 346 345 346 346 345
326 326 329 334 331 332 334 343 339 342 337 338 338 335 333 328 328 327 327 326 328 329 330 333 339 343 344 343 343 341 344 345 347 347 347 347 346 346 345 346 346 346 345 344
325 330 332 331 330 328 330 343 335 338 340 340 338 340 336 327 325 324 323 323 323 326 328 331 337 340 343 344 345 345 344 344 345 345 346 345 343 342 342 344 344 344 343 342
327 328 329 330 328 329 333 331 334 336 334 333 334 331 327 324 322 321 321 321 323 324 325 327 331 338 339 341 343 336 341 345 345 345 344 343 343 342 343 342 341 339 336 329
325 328 327 326 328 331 328 327 334 334 331 330 328 325 323 322 321 320 320 320 322 322 323 326 329 331 330 330 333 339 341 343 342 342 342 341 341 341 340 338 333 328 324 321
323 324 322 324 326 324 325 332 333 330 326 326 325 322 320 320 319 318 318 318 319 322 322 324 326 329 329 328 330 331 336 336 335 339 340 339 339 337 334 332 330 324 321 319
324 324 325 325 325 328 329 329 327 324 321 321 321 320 320 318 318 316 316 316 317 317 318 319 321 324 326 327 327 330 330 328 329 331 329 331 332 331 330 330 329 326 323 320
322 323 324 324 326 329 326 324 322 320 319 319 319 319 318 318 316 316 315 315 315 316 316 316 317 318 320 323 324 323 323 324 325 325 326 325 325 323 322 321 322 323 322 320
324 321 321 323 325 326 325 324 320 319 318 317 315 314 315 314 315 314 314 313 313 313 313 314 314 315 316 317 320 320 317 316 317 319 321 321 320 319 321 321 318 321 322 320
321 319 320 322 327 327 325 322 320 319 318 316 315 316 315 315 316 314 314 312 312 311 310 312 313 313 313 314 314 315 313 313 318 314 312 310 310 311 311 313 317 318 318 315
320 321 324 328 328 327 325 323 321 320 318 317 316 316 315 315 315 314 313 313 313 312 313 311 309 310 311 312 312 310 309 310 312 317 316 314 312 311 307 305 303 302 304 304
320 320 320 322 326 325 324 322 321 320 318 317 317 316 315 314 314 314 314 314 314 315 315 314 312 311 311 309 310 309 308 308 308 308 310 313 313 312 312 310 308 306 304 302
322 321 319 325 326 325 323 322 321 320 319 318 317 317 316 316 315 315 316 316 315 316 316 316 315 313 312 311 309 309 309 307 307 307 307 306 306 307 306 308 309 307 305 303
321 320 319 326 325 325 325 323 322 320 320 319 319 318 317 317 317 316 316 317 316 317 317 317 317 317 315 314 313 310 310 310 308 307 305 306 305 305 306 305 306 307 307 305
317 316 316 320 321 323 322 324 323 322 321 321 320 319 319 318 318 318 318 317 318 318 319 320 321 319 319 318 317 316 313 310 309 308 307 304 305 305 305 305 306 306 306 306
318 315 316 317 317 316 318 319 323 324 323 322 321 320 320 320 320 321 321 320 320 320 321 321 321 322 321 321 321 319 317 313 310 309 308 307 305 304 304 304 304 305 305 305
319 318 316 315 314 315 316 320 322 323 323 322 322 321 320 321 321 320 321 321 320 322 322 322 322 320 320 321 321 320 318 316 312 311 309 308 308 307 306 305 305 305 305 305
318 317 315 315 314 315 317 319 320 319 320 319 321 321 322 321 320 319 318 316 317 317 317 317 318 319 319 320 320 320 319 317 315 314 311 310 312 311 309 307 306 306 306 306
316 315 315 315 315 314 315 317 317 317 315 314 315 316 316 316 315 315 316 316 316 317 317 318 318 317 317 318 319 319 319 318 317 316 314 313 313 313 313 311 309 307 307 306
315 314 314 314 314 316 315 315 316 316 315 315 314 314 316 315 313 313 312 313 315 315 313 310 307 305 305 305 308 311 313 314 315 315 315 315 314 314 313 314 311 308 307 307
314 314 313 314 315 314 312 315 316 317 317 317 316 315 314 312 312 312 313 312 313 311 309 305 305 304 304 304 304 304 307 309 309 310 310 310 312 312 312 311 310 311 310 308
315 315 314 312 311 311 313 315 315 315 316 316 316 314 313 313 313 312 313 313 311 309 307 306 306 306 306 305 304 304 306 308 310 310 310 310 310 310 309 305 303 303 304 306
315 315 315 315 313 313 313 313 313 314 314 312 312 312 313 313 312 312 312 308 308 307 308 308 307 307 307 307 306 304 304 304 305 306 306 307 306 303 303 303 303 304 305 305
322 319 317 316 316 315 314 314 314 313 314 313 312 313 312 311 311 312 308 307 308 308 307 308 308 308 308 307 307 307 305 305 305 305 305 305 305 305 305 304 303 303 306 306

GFSNGP_925_thetae_120.txt.gz
Theta_e
325 327 324 327 338 342 343 339 327 341 350 347 346 345 345 341 340 344 346 346 343 343 343 344 345 345 345 346 348 348 347 346 345 345 346 346 348 348 348 348 348 347 346 344
322 325 333 341 339 340 345 348 346 346 345 341 342 341 341 343 341 341 342 343 346 344 345 346 347 347 349 350 349 349 348 348 348 348 347 347 349 350 349 349 349 348 348 346
321 322 330 331 336 342 342 342 341 342 342 343 341 340 339 337 335 336 336 337 341 342 342 342 343 345 345 347 349 349 349 349 349 349 349 348 347 350 349 350 349 346 344 345
324 323 332 329 332 338 341 341 338 340 341 341 337 334 332 331 331 331 331 332 331 331 332 338 341 342 343 344 346 346 346 347 347 348 349 347 346 346 347 347 347 344 344 344
323 324 327 333 332 334 337 342 338 339 338 337 335 333 333 329 327 327 326 325 325 326 329 332 335 340 342 342 343 344 343 343 344 343 344 345 346 345 346 346 345 346 345 344
324 327 335 329 329 329 332 339 337 339 337 337 339 337 335 327 325 324 323 323 324 326 327 328 332 338 342 343 344 344 344 342 342 341 345 345 345 345 345 344 343 343 343 343
324 325 326 326 327 328 337 333 335 334 333 332 333 331 326 324 323 321 321 322 324 325 325 327 331 339 342 342 340 342 339 337 343 344 344 344 343 342 342 343 342 341 340 337
322 326 327 325 328 331 325 327 335 332 328 328 327 325 323 322 321 319 319 319 321 322 323 327 329 330 330 330 332 336 337 342 342 342 342 342 342 341 340 338 336 331 323 318
320 321 318 321 324 323 324 330 332 327 325 326 324 323 321 321 319 317 317 318 319 319 319 323 326 328 327 326 329 334 336 336 338 340 339 339 339 338 337 333 330 322 318 317
323 320 324 323 325 326 329 330 325 323 324 323 322 321 320 319 317 316 316 316 317 317 317 317 321 323 324 326 326 327 326 325 325 326 331 330 331 332 329 327 325 322 319 316
320 320 322 322 322 328 326 324 322 320 319 319 319 320 319 318 316 314 314 315 315 314 314 314 316 319 322 323 324 323 323 321 322 321 323 322 322 322 323 321 323 322 320 317
322 319 319 320 324 326 325 324 321 319 318 317 316 315 315 314 314 314 313 313 313 313 314 314 314 315 316 320 318 317 315 315 317 318 320 320 320 318 319 320 321 323 322 318
320 318 319 322 326 325 324 322 320 318 317 315 315 315 313 313 313 313 311 311 310 310 311 312 312 312 312 313 314 312 313 316 313 311 310 308 308 310 312 311 315 316 320 320
317 320 325 327 327 324 323 322 320 318 317 316 315 314 313 313 314 312 311 311 311 312 311 309 309 310 311 311 310 309 310 313 316 316 314 312 311 308 307 305 303 302 304 304
319 319 319 323 325 324 322 321 319 318 316 315 315 315 314 313 312 312 312 313 314 315 315 314 311 311 310 309 309 308 308 308 308 309 311 313 311 310 310 309 307 305 302 300
318 319 323 326 326 324 322 321 319 318 317 316 315 315 314 314 313 314 314 314 314 314 316 315 315 313 311 310 308 308 308 307 307 307 307 307 306 306 306 307 308 307 305 303
320 320 322 324 325 324 323 321 320 319 318 317 316 316 315 315 314 314 315 316 316 316 316 317 317 316 315 314 312 309 310 308 307 306 305 305 305 305 306 305 306 306 307 306
319 319 318 323 324 324 322 322 321 319 319 319 318 317 316 315 315 316 316 316 316 316 317 318 319 320 318 318 316 316 313 309 309 307 307 304 305 305 304 304 305 305 305 306
317 317 317 320 323 324 323 323 322 322 321 320 319 318 318 317 318 317 318 318 318 318 321 320 320 320 321 321 320 320 317 315 311 309 308 307 305 304 304 304 304 304 304 305
316 317 317 317 319 322 321 323 323 323 323 321 320 319 319 319 320 319 319 320 320 321 321 321 321 321 321 320 320 320 320 318 316 312 310 309 308 307 307 306 306 306 305 305
317 316 315 315 315 318 320 321 320 320 321 322 321 319 320 321 321 321 320 318 319 319 318 317 317 317 318 319 319 320 320 318 316 315 314 313 310 310 310 310 308 307 306 306
316 316 315 314 313 314 316 318 319 320 320 320 321 321 321 321 321 320 319 318 316 316 316 317 318 317 317 318 318 319 319 318 317 316 316 314 312 312 313 313 312 309 308 307
315 316 315 314 313 314 314 316 317 318 318 319 319 318 319 320 317 315 314 315 315 316 316 313 309 307 305 304 305 308 310 312 313 314 314 314 314 314 313 311 310 310 309 308
315 314 315 315 314 313 311 313 315 316 316 316 315 315 315 314 313 314 314 314 314 315 311 308 304 303 303 303 303 304 305 308 309 309 309 309 310 310 311 311 310 307 305 305
315 315 313 311 311 311 314 315 314 314 315 315 315 314 314 314 315 314 312 312 314 312 308 304 304 305 304 303 303 304 307 308 309 310 310 309 309 309 305 303 303 302 302 304
313 313 314 314 313 313 313 312 312 313 313 313 314 314 313 313 313 313 312 312 312 311 307 305 306 306 306 306 305 304 303 303 303 303 305 306 303 303 303 303 302 302 303 304
315 315 314 314 314 314 313 312 311 312 313 313 312 312 312 312 312 312 312 312 311 309 307 306 307 307 307 307 307 307 305 304 304 305 305 305 305 305 306 305 304 304 303 303